﻿<?xml version="1.0" encoding="utf-8"?><gpx creator="Garmin Desktop App" version="1.1" xsi:schemaLocation="http://www.topografix.com/GPX/1/1 http://www.topografix.com/GPX/1/1/gpx.xsd http://www.garmin.com/xmlschemas/WaypointExtension/v1 http://www8.garmin.com/xmlschemas/WaypointExtensionv1.xsd http://www.garmin.com/xmlschemas/TrackPointExtension/v1 http://www.garmin.com/xmlschemas/TrackPointExtensionv1.xsd http://www.garmin.com/xmlschemas/GpxExtensions/v3 http://www8.garmin.com/xmlschemas/GpxExtensionsv3.xsd http://www.garmin.com/xmlschemas/ActivityExtension/v1 http://www8.garmin.com/xmlschemas/ActivityExtensionv1.xsd http://www.garmin.com/xmlschemas/AdventuresExtensions/v1 http://www8.garmin.com/xmlschemas/AdventuresExtensionv1.xsd http://www.garmin.com/xmlschemas/PressureExtension/v1 http://www.garmin.com/xmlschemas/PressureExtensionv1.xsd http://www.garmin.com/xmlschemas/TripExtensions/v1 http://www.garmin.com/xmlschemas/TripExtensionsv1.xsd http://www.garmin.com/xmlschemas/TripMetaDataExtensions/v1 http://www.garmin.com/xmlschemas/TripMetaDataExtensionsv1.xsd http://www.garmin.com/xmlschemas/ViaPointTransportationModeExtensions/v1 http://www.garmin.com/xmlschemas/ViaPointTransportationModeExtensionsv1.xsd http://www.garmin.com/xmlschemas/CreationTimeExtension/v1 http://www.garmin.com/xmlschemas/CreationTimeExtensionsv1.xsd http://www.garmin.com/xmlschemas/AccelerationExtension/v1 http://www.garmin.com/xmlschemas/AccelerationExtensionv1.xsd http://www.garmin.com/xmlschemas/PowerExtension/v1 http://www.garmin.com/xmlschemas/PowerExtensionv1.xsd http://www.garmin.com/xmlschemas/VideoExtension/v1 http://www.garmin.com/xmlschemas/VideoExtensionv1.xsd" xmlns="http://www.topografix.com/GPX/1/1" xmlns:xsi="http://www.w3.org/2001/XMLSchema-instance" xmlns:wptx1="http://www.garmin.com/xmlschemas/WaypointExtension/v1" xmlns:gpxtrx="http://www.garmin.com/xmlschemas/GpxExtensions/v3" xmlns:gpxtpx="http://www.garmin.com/xmlschemas/TrackPointExtension/v1" xmlns:gpxx="http://www.garmin.com/xmlschemas/GpxExtensions/v3" xmlns:trp="http://www.garmin.com/xmlschemas/TripExtensions/v1" xmlns:adv="http://www.garmin.com/xmlschemas/AdventuresExtensions/v1" xmlns:prs="http://www.garmin.com/xmlschemas/PressureExtension/v1" xmlns:tmd="http://www.garmin.com/xmlschemas/TripMetaDataExtensions/v1" xmlns:vptm="http://www.garmin.com/xmlschemas/ViaPointTransportationModeExtensions/v1" xmlns:ctx="http://www.garmin.com/xmlschemas/CreationTimeExtension/v1" xmlns:gpxacc="http://www.garmin.com/xmlschemas/AccelerationExtension/v1" xmlns:gpxpx="http://www.garmin.com/xmlschemas/PowerExtension/v1" xmlns:vidx1="http://www.garmin.com/xmlschemas/VideoExtension/v1">

  <metadata>
    <link href="http://www.garmin.com">
      <text>Garmin International</text>
    </link>
    <time>2026-04-20T13:48:11Z</time>
    <bounds maxlat="52.359529919922352" maxlon="8.039999390020967" minlat="52.277013938874006" minlon="7.871754141524434" />
  </metadata>

  <trk>
    <name>20260420Westerkappeln</name>
    <extensions>
      <gpxx:TrackExtension>
        <gpxx:DisplayColor>Red</gpxx:DisplayColor>
      </gpxx:TrackExtension>
    </extensions>
    <trkseg>
      <trkpt lat="52.277018548920751" lon="8.039438556879759">
        <ele>70.15234375</ele>
        <time>2026-04-20T07:52:06Z</time>
      </trkpt>
      <trkpt lat="52.277249386534095" lon="8.039563447237015">
        <ele>69.72265625</ele>
        <time>2026-04-20T07:52:12Z</time>
      </trkpt>
      <trkpt lat="52.277450887486339" lon="8.039672328159213">
        <ele>69.515625</ele>
        <time>2026-04-20T07:52:18Z</time>
      </trkpt>
      <trkpt lat="52.277591032907367" lon="8.039843989536166">
        <ele>69.30859375</ele>
        <time>2026-04-20T08:00:52Z</time>
      </trkpt>
      <trkpt lat="52.277781805023551" lon="8.039901740849018">
        <ele>69.23828125</ele>
        <time>2026-04-20T08:01:02Z</time>
      </trkpt>
      <trkpt lat="52.278038375079632" lon="8.039821106940508">
        <ele>69.3359375</ele>
        <time>2026-04-20T08:01:08Z</time>
      </trkpt>
      <trkpt lat="52.278218837454915" lon="8.039876595139504">
        <ele>69.35546875</ele>
        <time>2026-04-20T08:01:14Z</time>
      </trkpt>
      <trkpt lat="52.278399718925357" lon="8.039972148835659">
        <ele>69.45703125</ele>
        <time>2026-04-20T08:01:22Z</time>
      </trkpt>
      <trkpt lat="52.278585378080606" lon="8.039703592658043">
        <ele>70.00390625</ele>
        <time>2026-04-20T08:01:30Z</time>
      </trkpt>
      <trkpt lat="52.278683613985777" lon="8.03940100595355">
        <ele>70.484375</ele>
        <time>2026-04-20T08:01:36Z</time>
      </trkpt>
      <trkpt lat="52.278777910396457" lon="8.039086433127523">
        <ele>70.9765625</ele>
        <time>2026-04-20T08:01:46Z</time>
      </trkpt>
      <trkpt lat="52.278899112716317" lon="8.038814775645733">
        <ele>71.44921875</ele>
        <time>2026-04-20T08:01:52Z</time>
      </trkpt>
      <trkpt lat="52.279086699709296" lon="8.038518391549587">
        <ele>71.40234375</ele>
        <time>2026-04-20T08:01:58Z</time>
      </trkpt>
      <trkpt lat="52.279256181791425" lon="8.038231059908867">
        <ele>70.8359375</ele>
        <time>2026-04-20T08:02:04Z</time>
      </trkpt>
      <trkpt lat="52.279431950300932" lon="8.037971975281835">
        <ele>70.43359375</ele>
        <time>2026-04-20T08:02:10Z</time>
      </trkpt>
      <trkpt lat="52.279641078785062" lon="8.037712639197707">
        <ele>70.203125</ele>
        <time>2026-04-20T08:02:16Z</time>
      </trkpt>
      <trkpt lat="52.279810057953" lon="8.037558160722256">
        <ele>70.16796875</ele>
        <time>2026-04-20T08:02:20Z</time>
      </trkpt>
      <trkpt lat="52.279981048777699" lon="8.037395467981696">
        <ele>70.34375</ele>
        <time>2026-04-20T08:02:24Z</time>
      </trkpt>
      <trkpt lat="52.280146842822433" lon="8.037228416651487">
        <ele>70.546875</ele>
        <time>2026-04-20T08:02:28Z</time>
      </trkpt>
      <trkpt lat="52.28030794300139" lon="8.037065975368023">
        <ele>70.74609375</ele>
        <time>2026-04-20T08:02:32Z</time>
      </trkpt>
      <trkpt lat="52.28052050806582" lon="8.036836227402091">
        <ele>71.0625</ele>
        <time>2026-04-20T08:02:38Z</time>
      </trkpt>
      <trkpt lat="52.280623940750957" lon="8.03653908893466">
        <ele>72.4609375</ele>
        <time>2026-04-20T08:02:48Z</time>
      </trkpt>
      <trkpt lat="52.280782777816057" lon="8.036396261304617">
        <ele>72.67578125</ele>
        <time>2026-04-20T08:02:54Z</time>
      </trkpt>
      <trkpt lat="52.280993917956948" lon="8.036172464489937">
        <ele>73.03125</ele>
        <time>2026-04-20T08:03:02Z</time>
      </trkpt>
      <trkpt lat="52.281186953186989" lon="8.035975489765406">
        <ele>73.19921875</ele>
        <time>2026-04-20T08:03:08Z</time>
      </trkpt>
      <trkpt lat="52.281381078064442" lon="8.035724367946386">
        <ele>73.97265625</ele>
        <time>2026-04-20T08:03:15Z</time>
      </trkpt>
      <trkpt lat="52.281566318124533" lon="8.03552177734673">
        <ele>74.73046875</ele>
        <time>2026-04-20T08:03:21Z</time>
      </trkpt>
      <trkpt lat="52.281747870147228" lon="8.035241654142737">
        <ele>75.87890625</ele>
        <time>2026-04-20T08:03:27Z</time>
      </trkpt>
      <trkpt lat="52.281914250925183" lon="8.034978378564119">
        <ele>76.44140625</ele>
        <time>2026-04-20T08:03:33Z</time>
      </trkpt>
      <trkpt lat="52.282147603109479" lon="8.034873269498348">
        <ele>75.84375</ele>
        <time>2026-04-20T08:03:39Z</time>
      </trkpt>
      <trkpt lat="52.282370142638683" lon="8.034826666116715">
        <ele>75.05078125</ele>
        <time>2026-04-20T08:03:45Z</time>
      </trkpt>
      <trkpt lat="52.282587988302112" lon="8.034735219553113">
        <ele>74.5546875</ele>
        <time>2026-04-20T08:03:51Z</time>
      </trkpt>
      <trkpt lat="52.282766690477729" lon="8.034625248983502">
        <ele>74.51171875</ele>
        <time>2026-04-20T08:03:55Z</time>
      </trkpt>
      <trkpt lat="52.282916391268373" lon="8.034436823800206">
        <ele>75.3203125</ele>
        <time>2026-04-20T08:03:59Z</time>
      </trkpt>
      <trkpt lat="52.283114204183221" lon="8.034193078055978">
        <ele>76.453125</ele>
        <time>2026-04-20T08:04:05Z</time>
      </trkpt>
      <trkpt lat="52.283309921622276" lon="8.033931059762836">
        <ele>77.0390625</ele>
        <time>2026-04-20T08:04:11Z</time>
      </trkpt>
      <trkpt lat="52.283511171117425" lon="8.033753279596567">
        <ele>77.16796875</ele>
        <time>2026-04-20T08:04:17Z</time>
      </trkpt>
      <trkpt lat="52.283690627664328" lon="8.033575164154172">
        <ele>77.375</ele>
        <time>2026-04-20T08:04:23Z</time>
      </trkpt>
      <trkpt lat="52.28381191380322" lon="8.03334197960794">
        <ele>77.7109375</ele>
        <time>2026-04-20T08:04:29Z</time>
      </trkpt>
      <trkpt lat="52.283796994015574" lon="8.03303562104702">
        <ele>78.1328125</ele>
        <time>2026-04-20T08:04:47Z</time>
      </trkpt>
      <trkpt lat="52.283770842477679" lon="8.032704200595617">
        <ele>78.625</ele>
        <time>2026-04-20T08:04:53Z</time>
      </trkpt>
      <trkpt lat="52.283866312354803" lon="8.032423071563244">
        <ele>78.67578125</ele>
        <time>2026-04-20T08:04:59Z</time>
      </trkpt>
      <trkpt lat="52.284121457487345" lon="8.032400524243712">
        <ele>77.25</ele>
        <time>2026-04-20T08:05:05Z</time>
      </trkpt>
      <trkpt lat="52.284322958439589" lon="8.032409073784947">
        <ele>75.84375</ele>
        <time>2026-04-20T08:05:09Z</time>
      </trkpt>
      <trkpt lat="52.284560753032565" lon="8.032314358279109">
        <ele>74.390625</ele>
        <time>2026-04-20T08:05:13Z</time>
      </trkpt>
      <trkpt lat="52.28467189706862" lon="8.031991990283132">
        <ele>74.34765625</ele>
        <time>2026-04-20T08:05:17Z</time>
      </trkpt>
      <trkpt lat="52.284752950072289" lon="8.031701054424048">
        <ele>74.421875</ele>
        <time>2026-04-20T08:05:21Z</time>
      </trkpt>
      <trkpt lat="52.284841295331717" lon="8.031437695026398">
        <ele>74.3125</ele>
        <time>2026-04-20T08:05:37Z</time>
      </trkpt>
      <trkpt lat="52.28476082906127" lon="8.031075680628419">
        <ele>75.08203125</ele>
        <time>2026-04-20T08:05:43Z</time>
      </trkpt>
      <trkpt lat="52.284776670858264" lon="8.030757335945964">
        <ele>75.58203125</ele>
        <time>2026-04-20T08:05:47Z</time>
      </trkpt>
      <trkpt lat="52.284862669184804" lon="8.030346622690558">
        <ele>76.14453125</ele>
        <time>2026-04-20T08:05:53Z</time>
      </trkpt>
      <trkpt lat="52.284930227324367" lon="8.030039761215448">
        <ele>76</ele>
        <time>2026-04-20T08:05:57Z</time>
      </trkpt>
      <trkpt lat="52.285021170973778" lon="8.029734240844846">
        <ele>74.39453125</ele>
        <time>2026-04-20T08:06:01Z</time>
      </trkpt>
      <trkpt lat="52.285102559253573" lon="8.029402988031507">
        <ele>73.05078125</ele>
        <time>2026-04-20T08:06:05Z</time>
      </trkpt>
      <trkpt lat="52.285178834572434" lon="8.029068382456899">
        <ele>72.0625</ele>
        <time>2026-04-20T08:06:09Z</time>
      </trkpt>
      <trkpt lat="52.285272963345051" lon="8.028730675578117">
        <ele>71.13671875</ele>
        <time>2026-04-20T08:06:13Z</time>
      </trkpt>
      <trkpt lat="52.285364409908652" lon="8.028388526290655">
        <ele>70.29296875</ele>
        <time>2026-04-20T08:06:17Z</time>
      </trkpt>
      <trkpt lat="52.285475553944707" lon="8.028063140809536">
        <ele>69.8359375</ele>
        <time>2026-04-20T08:06:21Z</time>
      </trkpt>
      <trkpt lat="52.28554897941649" lon="8.027767343446612">
        <ele>69.39453125</ele>
        <time>2026-04-20T08:06:25Z</time>
      </trkpt>
      <trkpt lat="52.285674791783094" lon="8.027457129210234">
        <ele>69.07421875</ele>
        <time>2026-04-20T08:06:31Z</time>
      </trkpt>
      <trkpt lat="52.28589884005487" lon="8.027476659044623">
        <ele>68.28515625</ele>
        <time>2026-04-20T08:06:45Z</time>
      </trkpt>
      <trkpt lat="52.286084918305278" lon="8.027549916878343">
        <ele>67.515625</ele>
        <time>2026-04-20T08:06:49Z</time>
      </trkpt>
      <trkpt lat="52.286291196942329" lon="8.027607249096036">
        <ele>66.66796875</ele>
        <time>2026-04-20T08:06:55Z</time>
      </trkpt>
      <trkpt lat="52.286393288522959" lon="8.02727515809238">
        <ele>67.05859375</ele>
        <time>2026-04-20T08:07:03Z</time>
      </trkpt>
      <trkpt lat="52.286393707618117" lon="8.026962094008923">
        <ele>67.7734375</ele>
        <time>2026-04-20T08:07:07Z</time>
      </trkpt>
      <trkpt lat="52.286417260766029" lon="8.026669900864363">
        <ele>68.37890625</ele>
        <time>2026-04-20T08:07:11Z</time>
      </trkpt>
      <trkpt lat="52.286421786993742" lon="8.026223564520478">
        <ele>69.37109375</ele>
        <time>2026-04-20T08:07:17Z</time>
      </trkpt>
      <trkpt lat="52.286431258544326" lon="8.025894239544869">
        <ele>69.8828125</ele>
        <time>2026-04-20T08:07:21Z</time>
      </trkpt>
      <trkpt lat="52.286437209695578" lon="8.025456955656409">
        <ele>68.83203125</ele>
        <time>2026-04-20T08:07:27Z</time>
      </trkpt>
      <trkpt lat="52.286489428952336" lon="8.02503920160234">
        <ele>67.87109375</ele>
        <time>2026-04-20T08:07:33Z</time>
      </trkpt>
      <trkpt lat="52.286528069525957" lon="8.024744912981987">
        <ele>67.484375</ele>
        <time>2026-04-20T08:07:37Z</time>
      </trkpt>
      <trkpt lat="52.286588670685887" lon="8.024407457560301">
        <ele>67.20703125</ele>
        <time>2026-04-20T08:07:41Z</time>
      </trkpt>
      <trkpt lat="52.286667209118605" lon="8.024127334356308">
        <ele>67.328125</ele>
        <time>2026-04-20T08:07:45Z</time>
      </trkpt>
      <trkpt lat="52.286698054522276" lon="8.023709496483207">
        <ele>67.5859375</ele>
        <time>2026-04-20T08:07:51Z</time>
      </trkpt>
      <trkpt lat="52.286758404225111" lon="8.023266177624464">
        <ele>67.51953125</ele>
        <time>2026-04-20T08:07:57Z</time>
      </trkpt>
      <trkpt lat="52.286791009828448" lon="8.02294590510428">
        <ele>67.25</ele>
        <time>2026-04-20T08:08:01Z</time>
      </trkpt>
      <trkpt lat="52.286841468885541" lon="8.022507447749376">
        <ele>67.0546875</ele>
        <time>2026-04-20T08:08:07Z</time>
      </trkpt>
      <trkpt lat="52.286873152479529" lon="8.022210812196136">
        <ele>67.23046875</ele>
        <time>2026-04-20T08:08:11Z</time>
      </trkpt>
      <trkpt lat="52.286904752254486" lon="8.021777803078294">
        <ele>67.51953125</ele>
        <time>2026-04-20T08:08:17Z</time>
      </trkpt>
      <trkpt lat="52.286946410313249" lon="8.021475216373801">
        <ele>68.296875</ele>
        <time>2026-04-20T08:08:21Z</time>
      </trkpt>
      <trkpt lat="52.286985889077187" lon="8.021045392379165">
        <ele>69.375</ele>
        <time>2026-04-20T08:08:27Z</time>
      </trkpt>
      <trkpt lat="52.287020506337285" lon="8.020742973312736">
        <ele>69.90625</ele>
        <time>2026-04-20T08:08:31Z</time>
      </trkpt>
      <trkpt lat="52.28705981746316" lon="8.020415995270014">
        <ele>70.2734375</ele>
        <time>2026-04-20T08:08:35Z</time>
      </trkpt>
      <trkpt lat="52.287086974829435" lon="8.020101506263018">
        <ele>70.5546875</ele>
        <time>2026-04-20T08:08:39Z</time>
      </trkpt>
      <trkpt lat="52.287119664251804" lon="8.019789699465036">
        <ele>71.01953125</ele>
        <time>2026-04-20T08:08:43Z</time>
      </trkpt>
      <trkpt lat="52.287150090560317" lon="8.019495829939842">
        <ele>71.40234375</ele>
        <time>2026-04-20T08:08:47Z</time>
      </trkpt>
      <trkpt lat="52.287190072238445" lon="8.019208749756217">
        <ele>71.875</ele>
        <time>2026-04-20T08:08:51Z</time>
      </trkpt>
      <trkpt lat="52.287223432213068" lon="8.018768196925521">
        <ele>73.6796875</ele>
        <time>2026-04-20T08:08:57Z</time>
      </trkpt>
      <trkpt lat="52.28725478053093" lon="8.018476087599993">
        <ele>74.93359375</ele>
        <time>2026-04-20T08:09:01Z</time>
      </trkpt>
      <trkpt lat="52.287290822714567" lon="8.0181441642344">
        <ele>75.36328125</ele>
        <time>2026-04-20T08:09:05Z</time>
      </trkpt>
      <trkpt lat="52.287339689210057" lon="8.017803691327572">
        <ele>75.546875</ele>
        <time>2026-04-20T08:09:09Z</time>
      </trkpt>
      <trkpt lat="52.287366259843111" lon="8.017482496798039">
        <ele>75.2890625</ele>
        <time>2026-04-20T08:09:13Z</time>
      </trkpt>
      <trkpt lat="52.287389980629086" lon="8.017189046368003">
        <ele>74.48828125</ele>
        <time>2026-04-20T08:09:17Z</time>
      </trkpt>
      <trkpt lat="52.287419987842441" lon="8.016834827139974">
        <ele>73.57421875</ele>
        <time>2026-04-20T08:09:21Z</time>
      </trkpt>
      <trkpt lat="52.2874756436795" lon="8.016499634832144">
        <ele>72.65625</ele>
        <time>2026-04-20T08:09:25Z</time>
      </trkpt>
      <trkpt lat="52.287519481033087" lon="8.01614373922348">
        <ele>71.83984375</ele>
        <time>2026-04-20T08:09:29Z</time>
      </trkpt>
      <trkpt lat="52.287551918998361" lon="8.015775857493281">
        <ele>70.9375</ele>
        <time>2026-04-20T08:09:33Z</time>
      </trkpt>
      <trkpt lat="52.287598438560963" lon="8.01541468128562">
        <ele>69.796875</ele>
        <time>2026-04-20T08:09:37Z</time>
      </trkpt>
      <trkpt lat="52.287636240944266" lon="8.015088541433215">
        <ele>68.83984375</ele>
        <time>2026-04-20T08:09:41Z</time>
      </trkpt>
      <trkpt lat="52.287666918709874" lon="8.014756115153432">
        <ele>68.953125</ele>
        <time>2026-04-20T08:09:45Z</time>
      </trkpt>
      <trkpt lat="52.287699524313211" lon="8.014420084655285">
        <ele>69.03515625</ele>
        <time>2026-04-20T08:09:49Z</time>
      </trkpt>
      <trkpt lat="52.287742691114545" lon="8.014091346412897">
        <ele>68.9140625</ele>
        <time>2026-04-20T08:09:53Z</time>
      </trkpt>
      <trkpt lat="52.2877830080688" lon="8.013748358935118">
        <ele>68.71875</ele>
        <time>2026-04-20T08:09:57Z</time>
      </trkpt>
      <trkpt lat="52.287823492661119" lon="8.013414172455668">
        <ele>68.546875</ele>
        <time>2026-04-20T08:10:01Z</time>
      </trkpt>
      <trkpt lat="52.287878980860114" lon="8.013108232989907">
        <ele>68.5625</ele>
        <time>2026-04-20T08:10:05Z</time>
      </trkpt>
      <trkpt lat="52.287933463230729" lon="8.012794749811292">
        <ele>68.7890625</ele>
        <time>2026-04-20T08:10:09Z</time>
      </trkpt>
      <trkpt lat="52.287974450737238" lon="8.012477997690439">
        <ele>69.234375</ele>
        <time>2026-04-20T08:10:13Z</time>
      </trkpt>
      <trkpt lat="52.288037315011024" lon="8.012133333832026">
        <ele>69.9453125</ele>
        <time>2026-04-20T08:10:17Z</time>
      </trkpt>
      <trkpt lat="52.288129348307848" lon="8.011827729642391">
        <ele>70.85546875</ele>
        <time>2026-04-20T08:10:21Z</time>
      </trkpt>
      <trkpt lat="52.288233200088143" lon="8.011526735499501">
        <ele>70.85546875</ele>
        <time>2026-04-20T08:10:25Z</time>
      </trkpt>
      <trkpt lat="52.288257088512182" lon="8.01116849295795">
        <ele>70.7578125</ele>
        <time>2026-04-20T08:10:29Z</time>
      </trkpt>
      <trkpt lat="52.288332190364599" lon="8.010826762765646">
        <ele>70.54296875</ele>
        <time>2026-04-20T08:10:33Z</time>
      </trkpt>
      <trkpt lat="52.288412908092141" lon="8.010508585721254">
        <ele>70.34765625</ele>
        <time>2026-04-20T08:10:37Z</time>
      </trkpt>
      <trkpt lat="52.288501001894474" lon="8.010200802236795">
        <ele>70.13671875</ele>
        <time>2026-04-20T08:10:41Z</time>
      </trkpt>
      <trkpt lat="52.288593789562583" lon="8.009897125884891">
        <ele>69.9140625</ele>
        <time>2026-04-20T08:10:45Z</time>
      </trkpt>
      <trkpt lat="52.288691522553563" lon="8.009514659643173">
        <ele>69.6796875</ele>
        <time>2026-04-20T08:10:51Z</time>
      </trkpt>
      <trkpt lat="52.288810629397631" lon="8.009204361587763">
        <ele>69.375</ele>
        <time>2026-04-20T08:10:57Z</time>
      </trkpt>
      <trkpt lat="52.288894113153219" lon="8.00892767496407">
        <ele>69.15234375</ele>
        <time>2026-04-20T08:11:03Z</time>
      </trkpt>
      <trkpt lat="52.288981536403298" lon="8.00866867415607">
        <ele>69.015625</ele>
        <time>2026-04-20T08:11:13Z</time>
      </trkpt>
      <trkpt lat="52.289081029593945" lon="8.008389389142394">
        <ele>69.19921875</ele>
        <time>2026-04-20T08:15:57Z</time>
      </trkpt>
      <trkpt lat="52.289184629917145" lon="8.008137512952089">
        <ele>69.31640625</ele>
        <time>2026-04-20T08:16:01Z</time>
      </trkpt>
      <trkpt lat="52.28931924328208" lon="8.007786646485329">
        <ele>69.69140625</ele>
        <time>2026-04-20T08:16:07Z</time>
      </trkpt>
      <trkpt lat="52.289435500279069" lon="8.007412226870656">
        <ele>69.96484375</ele>
        <time>2026-04-20T08:16:13Z</time>
      </trkpt>
      <trkpt lat="52.289555193856359" lon="8.007082147523761">
        <ele>70.14453125</ele>
        <time>2026-04-20T08:16:19Z</time>
      </trkpt>
      <trkpt lat="52.28964714333415" lon="8.006827924400568">
        <ele>70.28125</ele>
        <time>2026-04-20T08:16:23Z</time>
      </trkpt>
      <trkpt lat="52.289767256006598" lon="8.006435483694077">
        <ele>70.46484375</ele>
        <time>2026-04-20T08:16:29Z</time>
      </trkpt>
      <trkpt lat="52.289875466376543" lon="8.006053688004613">
        <ele>70.3125</ele>
        <time>2026-04-20T08:16:35Z</time>
      </trkpt>
      <trkpt lat="52.28993589989841" lon="8.005772642791271">
        <ele>70.83203125</ele>
        <time>2026-04-20T08:16:39Z</time>
      </trkpt>
      <trkpt lat="52.290008990094066" lon="8.005490424111486">
        <ele>71.6171875</ele>
        <time>2026-04-20T08:16:43Z</time>
      </trkpt>
      <trkpt lat="52.290104376152158" lon="8.005093708634377">
        <ele>72.30859375</ele>
        <time>2026-04-20T08:16:49Z</time>
      </trkpt>
      <trkpt lat="52.290175287052989" lon="8.004697747528553">
        <ele>72.3984375</ele>
        <time>2026-04-20T08:16:55Z</time>
      </trkpt>
      <trkpt lat="52.290226332843304" lon="8.004401028156281">
        <ele>72.421875</ele>
        <time>2026-04-20T08:16:59Z</time>
      </trkpt>
      <trkpt lat="52.290280479937792" lon="8.004116881638765">
        <ele>71.87890625</ele>
        <time>2026-04-20T08:17:03Z</time>
      </trkpt>
      <trkpt lat="52.290334291756153" lon="8.00382636487484">
        <ele>70.98828125</ele>
        <time>2026-04-20T08:17:07Z</time>
      </trkpt>
      <trkpt lat="52.290394390001893" lon="8.003538278862834">
        <ele>70.078125</ele>
        <time>2026-04-20T08:17:11Z</time>
      </trkpt>
      <trkpt lat="52.290460858494043" lon="8.00321850925684">
        <ele>70.44140625</ele>
        <time>2026-04-20T08:17:15Z</time>
      </trkpt>
      <trkpt lat="52.290527997538447" lon="8.002879377454519">
        <ele>71.390625</ele>
        <time>2026-04-20T08:17:19Z</time>
      </trkpt>
      <trkpt lat="52.290594885125756" lon="8.002548795193434">
        <ele>72.6484375</ele>
        <time>2026-04-20T08:17:23Z</time>
      </trkpt>
      <trkpt lat="52.290663868188858" lon="8.002220476046205">
        <ele>74.8515625</ele>
        <time>2026-04-20T08:17:27Z</time>
      </trkpt>
      <trkpt lat="52.290736120194197" lon="8.001888133585453">
        <ele>77.0703125</ele>
        <time>2026-04-20T08:17:31Z</time>
      </trkpt>
      <trkpt lat="52.29079102165997" lon="8.001559730619192">
        <ele>78.19140625</ele>
        <time>2026-04-20T08:17:35Z</time>
      </trkpt>
      <trkpt lat="52.290856903418899" lon="8.001215234398842">
        <ele>78.86328125</ele>
        <time>2026-04-20T08:17:39Z</time>
      </trkpt>
      <trkpt lat="52.29093468748033" lon="8.000876605510712">
        <ele>78.94140625</ele>
        <time>2026-04-20T08:17:43Z</time>
      </trkpt>
      <trkpt lat="52.290998557582498" lon="8.00050905905664">
        <ele>77.37109375</ele>
        <time>2026-04-20T08:17:47Z</time>
      </trkpt>
      <trkpt lat="52.291058739647269" lon="8.000153917819262">
        <ele>76.109375</ele>
        <time>2026-04-20T08:17:51Z</time>
      </trkpt>
      <trkpt lat="52.29112084954977" lon="7.999798441305757">
        <ele>75.14453125</ele>
        <time>2026-04-20T08:17:55Z</time>
      </trkpt>
      <trkpt lat="52.291173320263624" lon="7.999440869316459">
        <ele>74.109375</ele>
        <time>2026-04-20T08:17:59Z</time>
      </trkpt>
      <trkpt lat="52.291216570883989" lon="7.999098720028997">
        <ele>72.5625</ele>
        <time>2026-04-20T08:18:03Z</time>
      </trkpt>
      <trkpt lat="52.291269628331065" lon="7.998759420588613">
        <ele>70.3671875</ele>
        <time>2026-04-20T08:18:07Z</time>
      </trkpt>
      <trkpt lat="52.291316399350762" lon="7.998437555506825">
        <ele>68.0859375</ele>
        <time>2026-04-20T08:18:11Z</time>
      </trkpt>
      <trkpt lat="52.291363421827555" lon="7.998119462281466">
        <ele>67.12890625</ele>
        <time>2026-04-20T08:18:15Z</time>
      </trkpt>
      <trkpt lat="52.291414132341743" lon="7.997792484238744">
        <ele>65.98828125</ele>
        <time>2026-04-20T08:18:19Z</time>
      </trkpt>
      <trkpt lat="52.291461741551757" lon="7.997463326901197">
        <ele>65.88671875</ele>
        <time>2026-04-20T08:18:23Z</time>
      </trkpt>
      <trkpt lat="52.29149367660284" lon="7.997134672477841">
        <ele>67.29296875</ele>
        <time>2026-04-20T08:18:27Z</time>
      </trkpt>
      <trkpt lat="52.291538016870618" lon="7.996798222884536">
        <ele>68.66796875</ele>
        <time>2026-04-20T08:18:31Z</time>
      </trkpt>
      <trkpt lat="52.29158747009933" lon="7.99647937528789">
        <ele>68.87890625</ele>
        <time>2026-04-20T08:18:35Z</time>
      </trkpt>
      <trkpt lat="52.291634408757091" lon="7.996158516034484">
        <ele>69.1328125</ele>
        <time>2026-04-20T08:18:39Z</time>
      </trkpt>
      <trkpt lat="52.291685789823532" lon="7.995842602103949">
        <ele>69.3046875</ele>
        <time>2026-04-20T08:18:43Z</time>
      </trkpt>
      <trkpt lat="52.29173113591969" lon="7.995545715093613">
        <ele>69.37890625</ele>
        <time>2026-04-20T08:18:47Z</time>
      </trkpt>
      <trkpt lat="52.291778661310673" lon="7.995210690423846">
        <ele>69.55859375</ele>
        <time>2026-04-20T08:18:51Z</time>
      </trkpt>
      <trkpt lat="52.291837837547064" lon="7.99487030133605">
        <ele>68.90234375</ele>
        <time>2026-04-20T08:18:55Z</time>
      </trkpt>
      <trkpt lat="52.291876059025526" lon="7.994525721296668">
        <ele>68.046875</ele>
        <time>2026-04-20T08:18:59Z</time>
      </trkpt>
      <trkpt lat="52.291914699599147" lon="7.994205448776484">
        <ele>67.46484375</ele>
        <time>2026-04-20T08:19:03Z</time>
      </trkpt>
      <trkpt lat="52.291964069008827" lon="7.99390378408134">
        <ele>67.2265625</ele>
        <time>2026-04-20T08:19:07Z</time>
      </trkpt>
      <trkpt lat="52.292005391791463" lon="7.993596084415913">
        <ele>66.8671875</ele>
        <time>2026-04-20T08:19:11Z</time>
      </trkpt>
      <trkpt lat="52.292047301307321" lon="7.993285534903407">
        <ele>66.96484375</ele>
        <time>2026-04-20T08:19:15Z</time>
      </trkpt>
      <trkpt lat="52.292093150317669" lon="7.992968447506428">
        <ele>67.40625</ele>
        <time>2026-04-20T08:19:19Z</time>
      </trkpt>
      <trkpt lat="52.292145201936364" lon="7.992638284340501">
        <ele>67.75390625</ele>
        <time>2026-04-20T08:19:23Z</time>
      </trkpt>
      <trkpt lat="52.292185518890619" lon="7.992326309904456">
        <ele>68.87890625</ele>
        <time>2026-04-20T08:19:27Z</time>
      </trkpt>
      <trkpt lat="52.292227512225509" lon="7.992019783705473">
        <ele>69.84765625</ele>
        <time>2026-04-20T08:19:31Z</time>
      </trkpt>
      <trkpt lat="52.292261710390449" lon="7.99169129692018">
        <ele>70.53515625</ele>
        <time>2026-04-20T08:19:35Z</time>
      </trkpt>
      <trkpt lat="52.292319377884269" lon="7.991410754621029">
        <ele>70.3984375</ele>
        <time>2026-04-20T08:19:39Z</time>
      </trkpt>
      <trkpt lat="52.292374027892947" lon="7.991112694144249">
        <ele>70.4921875</ele>
        <time>2026-04-20T08:19:43Z</time>
      </trkpt>
      <trkpt lat="52.29248559102416" lon="7.990877162665129">
        <ele>69.65625</ele>
        <time>2026-04-20T08:19:47Z</time>
      </trkpt>
      <trkpt lat="52.292509563267231" lon="7.990547502413392">
        <ele>67.76171875</ele>
        <time>2026-04-20T08:19:51Z</time>
      </trkpt>
      <trkpt lat="52.292527668178082" lon="7.990099070593715">
        <ele>65.33984375</ele>
        <time>2026-04-20T08:19:57Z</time>
      </trkpt>
      <trkpt lat="52.292573349550366" lon="7.989737894386053">
        <ele>63.78515625</ele>
        <time>2026-04-20T08:20:01Z</time>
      </trkpt>
      <trkpt lat="52.292592041194439" lon="7.989431535825133">
        <ele>62.5</ele>
        <time>2026-04-20T08:20:05Z</time>
      </trkpt>
      <trkpt lat="52.292641159147024" lon="7.989077065140009">
        <ele>62.4296875</ele>
        <time>2026-04-20T08:20:09Z</time>
      </trkpt>
      <trkpt lat="52.292676111683249" lon="7.988682696595788">
        <ele>63.47265625</ele>
        <time>2026-04-20T08:20:13Z</time>
      </trkpt>
      <trkpt lat="52.292708549648523" lon="7.988342391327024">
        <ele>64.46484375</ele>
        <time>2026-04-20T08:20:17Z</time>
      </trkpt>
      <trkpt lat="52.292738221585751" lon="7.988017005845904">
        <ele>65.640625</ele>
        <time>2026-04-20T08:20:21Z</time>
      </trkpt>
      <trkpt lat="52.292768061161041" lon="7.987680304795504">
        <ele>67.03515625</ele>
        <time>2026-04-20T08:20:25Z</time>
      </trkpt>
      <trkpt lat="52.292785998433828" lon="7.987384842708707">
        <ele>66.1171875</ele>
        <time>2026-04-20T08:20:29Z</time>
      </trkpt>
      <trkpt lat="52.292821370065212" lon="7.987025510519743">
        <ele>64.55859375</ele>
        <time>2026-04-20T08:20:33Z</time>
      </trkpt>
      <trkpt lat="52.292884401977062" lon="7.986680259928107">
        <ele>63.58203125</ele>
        <time>2026-04-20T08:20:37Z</time>
      </trkpt>
      <trkpt lat="52.292936788871884" lon="7.986348336562514">
        <ele>63.2109375</ele>
        <time>2026-04-20T08:20:41Z</time>
      </trkpt>
      <trkpt lat="52.292971489951015" lon="7.986029656603932">
        <ele>62.71875</ele>
        <time>2026-04-20T08:20:45Z</time>
      </trkpt>
      <trkpt lat="52.292985403910279" lon="7.985709132626653">
        <ele>62.69140625</ele>
        <time>2026-04-20T08:20:49Z</time>
      </trkpt>
      <trkpt lat="52.29299277998507" lon="7.985402187332511">
        <ele>62.76953125</ele>
        <time>2026-04-20T08:20:53Z</time>
      </trkpt>
      <trkpt lat="52.29297861456871" lon="7.985087195411325">
        <ele>62.8671875</ele>
        <time>2026-04-20T08:20:57Z</time>
      </trkpt>
      <trkpt lat="52.292970148846507" lon="7.984647396951914">
        <ele>63.3828125</ele>
        <time>2026-04-20T08:21:03Z</time>
      </trkpt>
      <trkpt lat="52.292957827448845" lon="7.984342044219375">
        <ele>63.734375</ele>
        <time>2026-04-20T08:21:07Z</time>
      </trkpt>
      <trkpt lat="52.292950199916959" lon="7.983903754502535">
        <ele>64.73046875</ele>
        <time>2026-04-20T08:21:13Z</time>
      </trkpt>
      <trkpt lat="52.292947517707944" lon="7.983609633520246">
        <ele>65.43359375</ele>
        <time>2026-04-20T08:21:17Z</time>
      </trkpt>
      <trkpt lat="52.292953887954354" lon="7.983308807015419">
        <ele>66.015625</ele>
        <time>2026-04-20T08:21:21Z</time>
      </trkpt>
      <trkpt lat="52.2929429076612" lon="7.982923071831465">
        <ele>66.57421875</ele>
        <time>2026-04-20T08:21:27Z</time>
      </trkpt>
      <trkpt lat="52.292924048379064" lon="7.982566170394421">
        <ele>67.19140625</ele>
        <time>2026-04-20T08:21:33Z</time>
      </trkpt>
      <trkpt lat="52.292943745851517" lon="7.982198288664222">
        <ele>68.17578125</ele>
        <time>2026-04-20T08:21:39Z</time>
      </trkpt>
      <trkpt lat="52.293042987585068" lon="7.981915064156056">
        <ele>68.83203125</ele>
        <time>2026-04-20T08:21:45Z</time>
      </trkpt>
      <trkpt lat="52.293148180469871" lon="7.981667881831527">
        <ele>69.48828125</ele>
        <time>2026-04-20T08:21:51Z</time>
      </trkpt>
      <trkpt lat="52.293291008099914" lon="7.981434362009168">
        <ele>70.41015625</ele>
        <time>2026-04-20T08:21:59Z</time>
      </trkpt>
      <trkpt lat="52.293464429676533" lon="7.981415335088968">
        <ele>70.58203125</ele>
        <time>2026-04-20T08:22:07Z</time>
      </trkpt>
      <trkpt lat="52.293643802404404" lon="7.981708450242877">
        <ele>69.41015625</ele>
        <time>2026-04-20T08:22:13Z</time>
      </trkpt>
      <trkpt lat="52.293791407719254" lon="7.98196610994637">
        <ele>68.3046875</ele>
        <time>2026-04-20T08:22:17Z</time>
      </trkpt>
      <trkpt lat="52.293958207592368" lon="7.982228044420481">
        <ele>66.9765625</ele>
        <time>2026-04-20T08:22:21Z</time>
      </trkpt>
      <trkpt lat="52.294132634997368" lon="7.98254412598908">
        <ele>65.3125</ele>
        <time>2026-04-20T08:22:25Z</time>
      </trkpt>
      <trkpt lat="52.29431158863008" lon="7.982836738228798">
        <ele>64.25</ele>
        <time>2026-04-20T08:22:29Z</time>
      </trkpt>
      <trkpt lat="52.294490374624729" lon="7.983139408752322">
        <ele>63.39453125</ele>
        <time>2026-04-20T08:22:33Z</time>
      </trkpt>
      <trkpt lat="52.294668322429061" lon="7.983424393460155">
        <ele>62.42578125</ele>
        <time>2026-04-20T08:22:37Z</time>
      </trkpt>
      <trkpt lat="52.294831015169621" lon="7.983696134760976">
        <ele>62.10546875</ele>
        <time>2026-04-20T08:22:41Z</time>
      </trkpt>
      <trkpt lat="52.294986415654421" lon="7.983919428661466">
        <ele>62.77734375</ele>
        <time>2026-04-20T08:22:45Z</time>
      </trkpt>
      <trkpt lat="52.295146761462092" lon="7.98417960293591">
        <ele>63.5859375</ele>
        <time>2026-04-20T08:22:49Z</time>
      </trkpt>
      <trkpt lat="52.295303251594305" lon="7.984444554895163">
        <ele>64.36328125</ele>
        <time>2026-04-20T08:22:53Z</time>
      </trkpt>
      <trkpt lat="52.295469967648387" lon="7.984691737219691">
        <ele>64.91796875</ele>
        <time>2026-04-20T08:22:57Z</time>
      </trkpt>
      <trkpt lat="52.295619081705809" lon="7.984885275363922">
        <ele>65.24609375</ele>
        <time>2026-04-20T08:23:01Z</time>
      </trkpt>
      <trkpt lat="52.29587422683835" lon="7.985055092722178">
        <ele>64.5234375</ele>
        <time>2026-04-20T08:23:07Z</time>
      </trkpt>
      <trkpt lat="52.29603641666472" lon="7.985181575641036">
        <ele>64.06640625</ele>
        <time>2026-04-20T08:23:11Z</time>
      </trkpt>
      <trkpt lat="52.296206569299102" lon="7.985306130722165">
        <ele>63.84765625</ele>
        <time>2026-04-20T08:23:15Z</time>
      </trkpt>
      <trkpt lat="52.296365825459361" lon="7.985447281971574">
        <ele>63.859375</ele>
        <time>2026-04-20T08:23:19Z</time>
      </trkpt>
      <trkpt lat="52.296438412740827" lon="7.985168835148215">
        <ele>63.15234375</ele>
        <time>2026-04-20T08:23:23Z</time>
      </trkpt>
      <trkpt lat="52.296464229002595" lon="7.984823416918516">
        <ele>63.38671875</ele>
        <time>2026-04-20T08:23:27Z</time>
      </trkpt>
      <trkpt lat="52.296537570655346" lon="7.984471628442407">
        <ele>63.5859375</ele>
        <time>2026-04-20T08:23:31Z</time>
      </trkpt>
      <trkpt lat="52.296602530404925" lon="7.984141549095511">
        <ele>63.68359375</ele>
        <time>2026-04-20T08:23:35Z</time>
      </trkpt>
      <trkpt lat="52.296666065230966" lon="7.983826389536262">
        <ele>63.7265625</ele>
        <time>2026-04-20T08:23:39Z</time>
      </trkpt>
      <trkpt lat="52.296747621148825" lon="7.983523132279515">
        <ele>63.62109375</ele>
        <time>2026-04-20T08:23:43Z</time>
      </trkpt>
      <trkpt lat="52.296828087419271" lon="7.9832130856812">
        <ele>63.54296875</ele>
        <time>2026-04-20T08:23:47Z</time>
      </trkpt>
      <trkpt lat="52.296907464042306" lon="7.982912845909596">
        <ele>63.59765625</ele>
        <time>2026-04-20T08:23:51Z</time>
      </trkpt>
      <trkpt lat="52.296994049102068" lon="7.982606654986739">
        <ele>63.77734375</ele>
        <time>2026-04-20T08:23:55Z</time>
      </trkpt>
      <trkpt lat="52.297084154561162" lon="7.982283029705286">
        <ele>63.94921875</ele>
        <time>2026-04-20T08:23:59Z</time>
      </trkpt>
      <trkpt lat="52.297175265848637" lon="7.981978263705969">
        <ele>64.09375</ele>
        <time>2026-04-20T08:24:03Z</time>
      </trkpt>
      <trkpt lat="52.297266377136111" lon="7.981660170480609">
        <ele>64.0859375</ele>
        <time>2026-04-20T08:24:07Z</time>
      </trkpt>
      <trkpt lat="52.297356482595205" lon="7.98134702257812">
        <ele>63.90625</ele>
        <time>2026-04-20T08:24:11Z</time>
      </trkpt>
      <trkpt lat="52.297447929158807" lon="7.981044435873628">
        <ele>63.80859375</ele>
        <time>2026-04-20T08:24:15Z</time>
      </trkpt>
      <trkpt lat="52.29754725471139" lon="7.980735898017883">
        <ele>63.7890625</ele>
        <time>2026-04-20T08:24:19Z</time>
      </trkpt>
      <trkpt lat="52.297640042379498" lon="7.980417804792523">
        <ele>63.86328125</ele>
        <time>2026-04-20T08:24:23Z</time>
      </trkpt>
      <trkpt lat="52.297733249142766" lon="7.980113122612238">
        <ele>64.015625</ele>
        <time>2026-04-20T08:24:27Z</time>
      </trkpt>
      <trkpt lat="52.297819834202528" lon="7.97981271520257">
        <ele>64.1484375</ele>
        <time>2026-04-20T08:24:31Z</time>
      </trkpt>
      <trkpt lat="52.297916980460286" lon="7.97950828447938">
        <ele>64.19921875</ele>
        <time>2026-04-20T08:24:35Z</time>
      </trkpt>
      <trkpt lat="52.29800658300519" lon="7.979212235659361">
        <ele>64.265625</ele>
        <time>2026-04-20T08:24:39Z</time>
      </trkpt>
      <trkpt lat="52.298087468370795" lon="7.978916941210628">
        <ele>64.5234375</ele>
        <time>2026-04-20T08:24:43Z</time>
      </trkpt>
      <trkpt lat="52.298175310716033" lon="7.978622987866402">
        <ele>64.68359375</ele>
        <time>2026-04-20T08:24:47Z</time>
      </trkpt>
      <trkpt lat="52.298266170546412" lon="7.978340266272426">
        <ele>64.7109375</ele>
        <time>2026-04-20T08:24:51Z</time>
      </trkpt>
      <trkpt lat="52.298361640423536" lon="7.978033740073443">
        <ele>64.85546875</ele>
        <time>2026-04-20T08:24:55Z</time>
      </trkpt>
      <trkpt lat="52.298438670113683" lon="7.977731740102172">
        <ele>65.12109375</ele>
        <time>2026-04-20T08:24:59Z</time>
      </trkpt>
      <trkpt lat="52.29852207005024" lon="7.977426135912538">
        <ele>65.08984375</ele>
        <time>2026-04-20T08:25:03Z</time>
      </trkpt>
      <trkpt lat="52.29862567037344" lon="7.9771414026618">
        <ele>64.71484375</ele>
        <time>2026-04-20T08:25:07Z</time>
      </trkpt>
      <trkpt lat="52.298704879358411" lon="7.976845605298877">
        <ele>64.28125</ele>
        <time>2026-04-20T08:25:11Z</time>
      </trkpt>
      <trkpt lat="52.298801019787788" lon="7.976545030251145">
        <ele>64.3671875</ele>
        <time>2026-04-20T08:25:15Z</time>
      </trkpt>
      <trkpt lat="52.298888023942709" lon="7.976267505437136">
        <ele>64.6171875</ele>
        <time>2026-04-20T08:25:19Z</time>
      </trkpt>
      <trkpt lat="52.298968238756061" lon="7.975916136056185">
        <ele>65.06640625</ele>
        <time>2026-04-20T08:25:25Z</time>
      </trkpt>
      <trkpt lat="52.299058428034186" lon="7.975643472746015">
        <ele>65.0703125</ele>
        <time>2026-04-20T08:25:29Z</time>
      </trkpt>
      <trkpt lat="52.299131099134684" lon="7.975326050072908">
        <ele>65.19140625</ele>
        <time>2026-04-20T08:25:33Z</time>
      </trkpt>
      <trkpt lat="52.299226652830839" lon="7.975063780322671">
        <ele>65.1875</ele>
        <time>2026-04-20T08:25:37Z</time>
      </trkpt>
      <trkpt lat="52.299324050545692" lon="7.974788602441549">
        <ele>65.3203125</ele>
        <time>2026-04-20T08:25:41Z</time>
      </trkpt>
      <trkpt lat="52.299400744959712" lon="7.974483920261264">
        <ele>65.640625</ele>
        <time>2026-04-20T08:25:45Z</time>
      </trkpt>
      <trkpt lat="52.299489509314299" lon="7.974193906411529">
        <ele>66.125</ele>
        <time>2026-04-20T08:25:49Z</time>
      </trkpt>
      <trkpt lat="52.299579866230488" lon="7.973895259201527">
        <ele>66.78515625</ele>
        <time>2026-04-20T08:25:53Z</time>
      </trkpt>
      <trkpt lat="52.299658320844173" lon="7.973618740215898">
        <ele>67.28125</ele>
        <time>2026-04-20T08:25:57Z</time>
      </trkpt>
      <trkpt lat="52.299760831519961" lon="7.973329145461321">
        <ele>67.5859375</ele>
        <time>2026-04-20T08:26:01Z</time>
      </trkpt>
      <trkpt lat="52.299845991656184" lon="7.973045669496059">
        <ele>67.8125</ele>
        <time>2026-04-20T08:26:05Z</time>
      </trkpt>
      <trkpt lat="52.299935594201088" lon="7.972747022286058">
        <ele>67.98046875</ele>
        <time>2026-04-20T08:26:09Z</time>
      </trkpt>
      <trkpt lat="52.300026202574372" lon="7.972473856061697">
        <ele>67.703125</ele>
        <time>2026-04-20T08:26:13Z</time>
      </trkpt>
      <trkpt lat="52.30009744875133" lon="7.972188200801611">
        <ele>67.4140625</ele>
        <time>2026-04-20T08:26:17Z</time>
      </trkpt>
      <trkpt lat="52.300169616937637" lon="7.971902545541525">
        <ele>67.1796875</ele>
        <time>2026-04-20T08:26:21Z</time>
      </trkpt>
      <trkpt lat="52.300257291644812" lon="7.971610184758902">
        <ele>67.046875</ele>
        <time>2026-04-20T08:26:25Z</time>
      </trkpt>
      <trkpt lat="52.300346810370684" lon="7.971315644681454">
        <ele>66.96875</ele>
        <time>2026-04-20T08:26:29Z</time>
      </trkpt>
      <trkpt lat="52.300439933314919" lon="7.971040047705174">
        <ele>66.85546875</ele>
        <time>2026-04-20T08:26:33Z</time>
      </trkpt>
      <trkpt lat="52.300527272745967" lon="7.970740897580981">
        <ele>67.1484375</ele>
        <time>2026-04-20T08:26:37Z</time>
      </trkpt>
      <trkpt lat="52.300636069849133" lon="7.970326747745276">
        <ele>67.55078125</ele>
        <time>2026-04-20T08:26:43Z</time>
      </trkpt>
      <trkpt lat="52.300728019326925" lon="7.970061041414738">
        <ele>68.125</ele>
        <time>2026-04-20T08:26:47Z</time>
      </trkpt>
      <trkpt lat="52.300803037360311" lon="7.969793910160661">
        <ele>69.234375</ele>
        <time>2026-04-20T08:26:51Z</time>
      </trkpt>
      <trkpt lat="52.300909487530589" lon="7.96941764652729">
        <ele>70.5</ele>
        <time>2026-04-20T08:26:57Z</time>
      </trkpt>
      <trkpt lat="52.3010263312608" lon="7.969034593552351">
        <ele>71.53515625</ele>
        <time>2026-04-20T08:27:03Z</time>
      </trkpt>
      <trkpt lat="52.301126746460795" lon="7.968652630224824">
        <ele>72.3203125</ele>
        <time>2026-04-20T08:27:09Z</time>
      </trkpt>
      <trkpt lat="52.301215343177319" lon="7.968307295814157">
        <ele>72.69140625</ele>
        <time>2026-04-20T08:27:15Z</time>
      </trkpt>
      <trkpt lat="52.30130922049284" lon="7.967967074364424">
        <ele>72.84375</ele>
        <time>2026-04-20T08:27:21Z</time>
      </trkpt>
      <trkpt lat="52.301388429477811" lon="7.967618722468615">
        <ele>73.125</ele>
        <time>2026-04-20T08:27:27Z</time>
      </trkpt>
      <trkpt lat="52.30146361514926" lon="7.967277076095343">
        <ele>73.36328125</ele>
        <time>2026-04-20T08:27:33Z</time>
      </trkpt>
      <trkpt lat="52.301543159410357" lon="7.966941213235259">
        <ele>73.72265625</ele>
        <time>2026-04-20T08:27:39Z</time>
      </trkpt>
      <trkpt lat="52.301630079746246" lon="7.966600069776177">
        <ele>73.69140625</ele>
        <time>2026-04-20T08:27:45Z</time>
      </trkpt>
      <trkpt lat="52.301706774160266" lon="7.96621123328805">
        <ele>73.640625</ele>
        <time>2026-04-20T08:27:51Z</time>
      </trkpt>
      <trkpt lat="52.301801322028041" lon="7.965836897492409">
        <ele>73.42578125</ele>
        <time>2026-04-20T08:27:57Z</time>
      </trkpt>
      <trkpt lat="52.30189218185842" lon="7.965461136773229">
        <ele>73.4375</ele>
        <time>2026-04-20T08:28:03Z</time>
      </trkpt>
      <trkpt lat="52.301988322287798" lon="7.965044975280762">
        <ele>73.2734375</ele>
        <time>2026-04-20T08:28:09Z</time>
      </trkpt>
      <trkpt lat="52.302063591778278" lon="7.964758817106485">
        <ele>72.7109375</ele>
        <time>2026-04-20T08:28:13Z</time>
      </trkpt>
      <trkpt lat="52.302132239565253" lon="7.964472575113177">
        <ele>72.1796875</ele>
        <time>2026-04-20T08:28:17Z</time>
      </trkpt>
      <trkpt lat="52.302210191264749" lon="7.964177783578634">
        <ele>71.30078125</ele>
        <time>2026-04-20T08:28:21Z</time>
      </trkpt>
      <trkpt lat="52.302282527089119" lon="7.96388877555728">
        <ele>70.25</ele>
        <time>2026-04-20T08:28:25Z</time>
      </trkpt>
      <trkpt lat="52.302359221503139" lon="7.963568335399032">
        <ele>69.4375</ele>
        <time>2026-04-20T08:28:29Z</time>
      </trkpt>
      <trkpt lat="52.302438011392951" lon="7.963216714560986">
        <ele>68.0859375</ele>
        <time>2026-04-20T08:28:33Z</time>
      </trkpt>
      <trkpt lat="52.302523171529174" lon="7.962862327694893">
        <ele>66.5625</ele>
        <time>2026-04-20T08:28:37Z</time>
      </trkpt>
      <trkpt lat="52.302623754367232" lon="7.962486231699586">
        <ele>65.15234375</ele>
        <time>2026-04-20T08:28:41Z</time>
      </trkpt>
      <trkpt lat="52.302701119333506" lon="7.962177274748683">
        <ele>64.328125</ele>
        <time>2026-04-20T08:28:44Z</time>
      </trkpt>
      <trkpt lat="52.30282005853951" lon="7.96174275688827">
        <ele>63.26953125</ele>
        <time>2026-04-20T08:28:48Z</time>
      </trkpt>
      <trkpt lat="52.302948804572225" lon="7.96125702559948">
        <ele>62.6953125</ele>
        <time>2026-04-20T08:28:52Z</time>
      </trkpt>
      <trkpt lat="52.303117448464036" lon="7.960794679820538">
        <ele>61.84765625</ele>
        <time>2026-04-20T08:28:56Z</time>
      </trkpt>
      <trkpt lat="52.303272848948836" lon="7.960409950464964">
        <ele>61.08984375</ele>
        <time>2026-04-20T08:29:00Z</time>
      </trkpt>
      <trkpt lat="52.303452976047993" lon="7.96006771735847">
        <ele>60.578125</ele>
        <time>2026-04-20T08:29:04Z</time>
      </trkpt>
      <trkpt lat="52.303614998236299" lon="7.959776949137449">
        <ele>60.16015625</ele>
        <time>2026-04-20T08:29:08Z</time>
      </trkpt>
      <trkpt lat="52.30378900654614" lon="7.959533035755158">
        <ele>59.62890625</ele>
        <time>2026-04-20T08:29:12Z</time>
      </trkpt>
      <trkpt lat="52.303947675973177" lon="7.959303539246321">
        <ele>59.02734375</ele>
        <time>2026-04-20T08:29:16Z</time>
      </trkpt>
      <trkpt lat="52.304122438654304" lon="7.959136655554175">
        <ele>59.16015625</ele>
        <time>2026-04-20T08:29:20Z</time>
      </trkpt>
      <trkpt lat="52.304315557703376" lon="7.959003215655685">
        <ele>59.46484375</ele>
        <time>2026-04-20T08:29:24Z</time>
      </trkpt>
      <trkpt lat="52.304504904896021" lon="7.958849240094423">
        <ele>59.734375</ele>
        <time>2026-04-20T08:29:28Z</time>
      </trkpt>
      <trkpt lat="52.304714871570468" lon="7.958683278411627">
        <ele>60.0390625</ele>
        <time>2026-04-20T08:29:32Z</time>
      </trkpt>
      <trkpt lat="52.304905140772462" lon="7.958511114120483">
        <ele>60.1640625</ele>
        <time>2026-04-20T08:29:36Z</time>
      </trkpt>
      <trkpt lat="52.305088201537728" lon="7.958370298147202">
        <ele>60.2109375</ele>
        <time>2026-04-20T08:29:40Z</time>
      </trkpt>
      <trkpt lat="52.30527495034039" lon="7.958235265687108">
        <ele>60.2734375</ele>
        <time>2026-04-20T08:29:44Z</time>
      </trkpt>
      <trkpt lat="52.305416353046894" lon="7.958038374781609">
        <ele>60.20703125</ele>
        <time>2026-04-20T08:29:48Z</time>
      </trkpt>
      <trkpt lat="52.305439906194806" lon="7.957728495821357">
        <ele>59.86328125</ele>
        <time>2026-04-20T08:29:52Z</time>
      </trkpt>
      <trkpt lat="52.305426578968763" lon="7.957407971844077">
        <ele>59.60546875</ele>
        <time>2026-04-20T08:29:56Z</time>
      </trkpt>
      <trkpt lat="52.30541568249464" lon="7.95710320584476">
        <ele>59.421875</ele>
        <time>2026-04-20T08:30:00Z</time>
      </trkpt>
      <trkpt lat="52.305424232035875" lon="7.95677580870688">
        <ele>59.28515625</ele>
        <time>2026-04-20T08:30:04Z</time>
      </trkpt>
      <trkpt lat="52.305435044690967" lon="7.956462325528264">
        <ele>59.5625</ele>
        <time>2026-04-20T08:30:08Z</time>
      </trkpt>
      <trkpt lat="52.305433368310332" lon="7.956135515123606">
        <ele>59.86328125</ele>
        <time>2026-04-20T08:30:16Z</time>
      </trkpt>
      <trkpt lat="52.30542884208262" lon="7.955758329480887">
        <ele>59.79296875</ele>
        <time>2026-04-20T08:30:56Z</time>
      </trkpt>
      <trkpt lat="52.305422136560082" lon="7.955450713634491">
        <ele>59.51953125</ele>
        <time>2026-04-20T08:31:00Z</time>
      </trkpt>
      <trkpt lat="52.305423896759748" lon="7.95511887408793">
        <ele>59.1875</ele>
        <time>2026-04-20T08:31:04Z</time>
      </trkpt>
      <trkpt lat="52.305410737171769" lon="7.954825256019831">
        <ele>58.68359375</ele>
        <time>2026-04-20T08:31:08Z</time>
      </trkpt>
      <trkpt lat="52.30540000833571" lon="7.954507917165756">
        <ele>58.15625</ele>
        <time>2026-04-20T08:31:12Z</time>
      </trkpt>
      <trkpt lat="52.305387938395143" lon="7.954159313812852">
        <ele>57.875</ele>
        <time>2026-04-20T08:31:16Z</time>
      </trkpt>
      <trkpt lat="52.305385759100318" lon="7.953827893361449">
        <ele>57.8828125</ele>
        <time>2026-04-20T08:31:20Z</time>
      </trkpt>
      <trkpt lat="52.305380227044225" lon="7.953454563394189">
        <ele>57.86328125</ele>
        <time>2026-04-20T08:31:24Z</time>
      </trkpt>
      <trkpt lat="52.305383831262589" lon="7.953101517632604">
        <ele>57.42578125</ele>
        <time>2026-04-20T08:31:28Z</time>
      </trkpt>
      <trkpt lat="52.305389950051904" lon="7.952784430235624">
        <ele>57.0234375</ele>
        <time>2026-04-20T08:31:32Z</time>
      </trkpt>
      <trkpt lat="52.305387686938047" lon="7.952478574588895">
        <ele>57.234375</ele>
        <time>2026-04-20T08:31:36Z</time>
      </trkpt>
      <trkpt lat="52.305394560098648" lon="7.95215486548841">
        <ele>57.87890625</ele>
        <time>2026-04-20T08:31:40Z</time>
      </trkpt>
      <trkpt lat="52.305391039699316" lon="7.951838113367558">
        <ele>58.54296875</ele>
        <time>2026-04-20T08:31:44Z</time>
      </trkpt>
      <trkpt lat="52.305395398288965" lon="7.951530329883099">
        <ele>58.81640625</ele>
        <time>2026-04-20T08:31:48Z</time>
      </trkpt>
      <trkpt lat="52.305396068841219" lon="7.951224893331528">
        <ele>59.078125</ele>
        <time>2026-04-20T08:31:52Z</time>
      </trkpt>
      <trkpt lat="52.305393721908331" lon="7.950903195887804">
        <ele>59.38671875</ele>
        <time>2026-04-20T08:31:56Z</time>
      </trkpt>
      <trkpt lat="52.305393638089299" lon="7.950586611405015">
        <ele>59.765625</ele>
        <time>2026-04-20T08:32:00Z</time>
      </trkpt>
      <trkpt lat="52.30538684874773" lon="7.950290311127901">
        <ele>60.1328125</ele>
        <time>2026-04-20T08:32:04Z</time>
      </trkpt>
      <trkpt lat="52.305390704423189" lon="7.949954448267818">
        <ele>60.66796875</ele>
        <time>2026-04-20T08:32:08Z</time>
      </trkpt>
      <trkpt lat="52.305394224822521" lon="7.949623530730605">
        <ele>61.28515625</ele>
        <time>2026-04-20T08:32:12Z</time>
      </trkpt>
      <trkpt lat="52.305396068841219" lon="7.949319519102573">
        <ele>61.84765625</ele>
        <time>2026-04-20T08:32:16Z</time>
      </trkpt>
      <trkpt lat="52.305565886199474" lon="7.949151378124952">
        <ele>61.421875</ele>
        <time>2026-04-20T08:32:22Z</time>
      </trkpt>
      <trkpt lat="52.305741822347045" lon="7.949312562122941">
        <ele>60.87890625</ele>
        <time>2026-04-20T08:32:26Z</time>
      </trkpt>
      <trkpt lat="52.305913232266903" lon="7.949452456086874">
        <ele>60.50390625</ele>
        <time>2026-04-20T08:32:30Z</time>
      </trkpt>
      <trkpt lat="52.306085480377078" lon="7.949587572365999">
        <ele>60.13671875</ele>
        <time>2026-04-20T08:32:34Z</time>
      </trkpt>
      <trkpt lat="52.306264098733664" lon="7.949724867939949">
        <ele>59.7578125</ele>
        <time>2026-04-20T08:32:38Z</time>
      </trkpt>
      <trkpt lat="52.306437604129314" lon="7.949863504618406">
        <ele>59.3828125</ele>
        <time>2026-04-20T08:32:42Z</time>
      </trkpt>
      <trkpt lat="52.306607505306602" lon="7.949998788535595">
        <ele>59.328125</ele>
        <time>2026-04-20T08:32:46Z</time>
      </trkpt>
      <trkpt lat="52.306791990995407" lon="7.950132396072149">
        <ele>59.41015625</ele>
        <time>2026-04-20T08:32:50Z</time>
      </trkpt>
      <trkpt lat="52.306973962113261" lon="7.950284443795681">
        <ele>59.61328125</ele>
        <time>2026-04-20T08:32:54Z</time>
      </trkpt>
      <trkpt lat="52.307154173031449" lon="7.950417548418045">
        <ele>59.828125</ele>
        <time>2026-04-20T08:32:58Z</time>
      </trkpt>
      <trkpt lat="52.307336060330272" lon="7.950553754344583">
        <ele>60.05078125</ele>
        <time>2026-04-20T08:33:02Z</time>
      </trkpt>
      <trkpt lat="52.30755440890789" lon="7.950613684952259">
        <ele>60.28125</ele>
        <time>2026-04-20T08:33:06Z</time>
      </trkpt>
      <trkpt lat="52.307777870446444" lon="7.950584096834064">
        <ele>60.5625</ele>
        <time>2026-04-20T08:33:10Z</time>
      </trkpt>
      <trkpt lat="52.307980880141258" lon="7.950548809021711">
        <ele>60.8671875</ele>
        <time>2026-04-20T08:33:14Z</time>
      </trkpt>
      <trkpt lat="52.308188080787659" lon="7.950505390763283">
        <ele>61.05078125</ele>
        <time>2026-04-20T08:33:18Z</time>
      </trkpt>
      <trkpt lat="52.308394024148583" lon="7.950464822351933">
        <ele>60.73828125</ele>
        <time>2026-04-20T08:33:22Z</time>
      </trkpt>
      <trkpt lat="52.308601140975952" lon="7.950448477640748">
        <ele>60.36328125</ele>
        <time>2026-04-20T08:33:26Z</time>
      </trkpt>
      <trkpt lat="52.308807335793972" lon="7.95045199804008">
        <ele>59.94921875</ele>
        <time>2026-04-20T08:33:30Z</time>
      </trkpt>
      <trkpt lat="52.309007663279772" lon="7.950480580329895">
        <ele>59.53515625</ele>
        <time>2026-04-20T08:33:34Z</time>
      </trkpt>
      <trkpt lat="52.309214361011982" lon="7.950504971668124">
        <ele>59.15234375</ele>
        <time>2026-04-20T08:33:38Z</time>
      </trkpt>
      <trkpt lat="52.309426004067063" lon="7.950515281409025">
        <ele>58.76953125</ele>
        <time>2026-04-20T08:33:42Z</time>
      </trkpt>
      <trkpt lat="52.309611830860376" lon="7.950545623898506">
        <ele>58.38671875</ele>
        <time>2026-04-20T08:33:46Z</time>
      </trkpt>
      <trkpt lat="52.309787012636662" lon="7.950605135411024">
        <ele>57.9375</ele>
        <time>2026-04-20T08:33:50Z</time>
      </trkpt>
      <trkpt lat="52.309992201626301" lon="7.95070949010551">
        <ele>58.62109375</ele>
        <time>2026-04-20T08:33:56Z</time>
      </trkpt>
      <trkpt lat="52.310161851346493" lon="7.950592814013362">
        <ele>59.71484375</ele>
        <time>2026-04-20T08:34:02Z</time>
      </trkpt>
      <trkpt lat="52.310274001210928" lon="7.950358456000686">
        <ele>60.81640625</ele>
        <time>2026-04-20T08:34:06Z</time>
      </trkpt>
      <trkpt lat="52.310388581827283" lon="7.950128875672817">
        <ele>61.9921875</ele>
        <time>2026-04-20T08:34:10Z</time>
      </trkpt>
      <trkpt lat="52.310566110536456" lon="7.949850596487522">
        <ele>64.19921875</ele>
        <time>2026-04-20T08:34:16Z</time>
      </trkpt>
      <trkpt lat="52.310718661174178" lon="7.949618082493544">
        <ele>65.55859375</ele>
        <time>2026-04-20T08:34:22Z</time>
      </trkpt>
      <trkpt lat="52.310865260660648" lon="7.949385652318597">
        <ele>66.234375</ele>
        <time>2026-04-20T08:34:28Z</time>
      </trkpt>
      <trkpt lat="52.310996688902378" lon="7.949143666774035">
        <ele>66.234375</ele>
        <time>2026-04-20T08:34:34Z</time>
      </trkpt>
      <trkpt lat="52.311181258410215" lon="7.948831943795085">
        <ele>65.8671875</ele>
        <time>2026-04-20T08:34:40Z</time>
      </trkpt>
      <trkpt lat="52.311325259506702" lon="7.948633208870888">
        <ele>65.45703125</ele>
        <time>2026-04-20T08:34:44Z</time>
      </trkpt>
      <trkpt lat="52.311473786830902" lon="7.948421314358711">
        <ele>64.96875</ele>
        <time>2026-04-20T08:34:48Z</time>
      </trkpt>
      <trkpt lat="52.311608400195837" lon="7.948202630504966">
        <ele>64.70703125</ele>
        <time>2026-04-20T08:34:52Z</time>
      </trkpt>
      <trkpt lat="52.311759274452925" lon="7.947975229471922">
        <ele>64.50390625</ele>
        <time>2026-04-20T08:34:56Z</time>
      </trkpt>
      <trkpt lat="52.311915261670947" lon="7.947744475677609">
        <ele>64.3984375</ele>
        <time>2026-04-20T08:35:00Z</time>
      </trkpt>
      <trkpt lat="52.312073763459921" lon="7.94750944711268">
        <ele>64.26171875</ele>
        <time>2026-04-20T08:35:04Z</time>
      </trkpt>
      <trkpt lat="52.312272330746055" lon="7.947345748543739">
        <ele>64.0234375</ele>
        <time>2026-04-20T08:35:10Z</time>
      </trkpt>
      <trkpt lat="52.312451368197799" lon="7.947308281436563">
        <ele>63.76171875</ele>
        <time>2026-04-20T08:35:16Z</time>
      </trkpt>
      <trkpt lat="52.312610289081931" lon="7.94715522788465">
        <ele>63.3125</ele>
        <time>2026-04-20T08:35:20Z</time>
      </trkpt>
      <trkpt lat="52.312829727306962" lon="7.946938890963793">
        <ele>62.33203125</ele>
        <time>2026-04-20T08:35:26Z</time>
      </trkpt>
      <trkpt lat="52.313093589618802" lon="7.946989936754108">
        <ele>61.6875</ele>
        <time>2026-04-20T08:35:32Z</time>
      </trkpt>
      <trkpt lat="52.313328282907605" lon="7.947064954787493">
        <ele>61.69140625</ele>
        <time>2026-04-20T08:35:38Z</time>
      </trkpt>
      <trkpt lat="52.313549900427461" lon="7.947121197357774">
        <ele>61.73828125</ele>
        <time>2026-04-20T08:35:44Z</time>
      </trkpt>
      <trkpt lat="52.313774200156331" lon="7.947257654741406">
        <ele>62.1875</ele>
        <time>2026-04-20T08:35:50Z</time>
      </trkpt>
      <trkpt lat="52.313968660309911" lon="7.947347844019532">
        <ele>62.50390625</ele>
        <time>2026-04-20T08:35:56Z</time>
      </trkpt>
      <trkpt lat="52.314215758815408" lon="7.947394112125039">
        <ele>62.5234375</ele>
        <time>2026-04-20T08:36:02Z</time>
      </trkpt>
      <trkpt lat="52.31442354619503" lon="7.947375169023871">
        <ele>62.2734375</ele>
        <time>2026-04-20T08:36:06Z</time>
      </trkpt>
      <trkpt lat="52.314628399908543" lon="7.94742152094841">
        <ele>62.2890625</ele>
        <time>2026-04-20T08:36:10Z</time>
      </trkpt>
      <trkpt lat="52.314824620261788" lon="7.947486396878958">
        <ele>62.34375</ele>
        <time>2026-04-20T08:36:14Z</time>
      </trkpt>
      <trkpt lat="52.315024612471461" lon="7.94755294919014">
        <ele>62.34375</ele>
        <time>2026-04-20T08:36:18Z</time>
      </trkpt>
      <trkpt lat="52.315224520862103" lon="7.947631403803825">
        <ele>62.38671875</ele>
        <time>2026-04-20T08:36:22Z</time>
      </trkpt>
      <trkpt lat="52.315436080098152" lon="7.947773979976773">
        <ele>62.5390625</ele>
        <time>2026-04-20T08:36:26Z</time>
      </trkpt>
      <trkpt lat="52.315638419240713" lon="7.947953855618835">
        <ele>62.64453125</ele>
        <time>2026-04-20T08:36:30Z</time>
      </trkpt>
      <trkpt lat="52.315835561603308" lon="7.948151668533683">
        <ele>62.171875</ele>
        <time>2026-04-20T08:36:34Z</time>
      </trkpt>
      <trkpt lat="52.316041588783264" lon="7.94832743704319">
        <ele>61.60546875</ele>
        <time>2026-04-20T08:36:38Z</time>
      </trkpt>
      <trkpt lat="52.316242922097445" lon="7.948517873883247">
        <ele>61.2109375</ele>
        <time>2026-04-20T08:36:42Z</time>
      </trkpt>
      <trkpt lat="52.316443249583244" lon="7.94868509285152">
        <ele>61.24609375</ele>
        <time>2026-04-20T08:36:46Z</time>
      </trkpt>
      <trkpt lat="52.316644163802266" lon="7.948870835825801">
        <ele>61.5078125</ele>
        <time>2026-04-20T08:36:50Z</time>
      </trkpt>
      <trkpt lat="52.316802917048335" lon="7.94910091906786">
        <ele>62.1171875</ele>
        <time>2026-04-20T08:36:54Z</time>
      </trkpt>
      <trkpt lat="52.31695219874382" lon="7.949336702004075">
        <ele>62.7734375</ele>
        <time>2026-04-20T08:36:58Z</time>
      </trkpt>
      <trkpt lat="52.317094942554832" lon="7.949562259018421">
        <ele>64.19921875</ele>
        <time>2026-04-20T08:37:02Z</time>
      </trkpt>
      <trkpt lat="52.31723072938621" lon="7.949798880144954">
        <ele>65.0390625</ele>
        <time>2026-04-20T08:37:06Z</time>
      </trkpt>
      <trkpt lat="52.31735821813345" lon="7.950049499049783">
        <ele>65.7109375</ele>
        <time>2026-04-20T08:37:10Z</time>
      </trkpt>
      <trkpt lat="52.317486712709069" lon="7.950280923396349">
        <ele>66.0625</ele>
        <time>2026-04-20T08:37:14Z</time>
      </trkpt>
      <trkpt lat="52.317626858130097" lon="7.950519639998674">
        <ele>66.17578125</ele>
        <time>2026-04-20T08:37:18Z</time>
      </trkpt>
      <trkpt lat="52.317738588899374" lon="7.950790291652083">
        <ele>66.62890625</ele>
        <time>2026-04-20T08:37:22Z</time>
      </trkpt>
      <trkpt lat="52.317838501185179" lon="7.951090279966593">
        <ele>67.01171875</ele>
        <time>2026-04-20T08:37:26Z</time>
      </trkpt>
      <trkpt lat="52.31791527941823" lon="7.951417006552219">
        <ele>67.41015625</ele>
        <time>2026-04-20T08:37:30Z</time>
      </trkpt>
      <trkpt lat="52.318019466474652" lon="7.951708780601621">
        <ele>67.9140625</ele>
        <time>2026-04-20T08:37:34Z</time>
      </trkpt>
      <trkpt lat="52.318168915808201" lon="7.951923441141844">
        <ele>68.15234375</ele>
        <time>2026-04-20T08:37:38Z</time>
      </trkpt>
      <trkpt lat="52.318323561921716" lon="7.952125277370215">
        <ele>67.92578125</ele>
        <time>2026-04-20T08:37:42Z</time>
      </trkpt>
      <trkpt lat="52.318497570231557" lon="7.952310014516115">
        <ele>67.3828125</ele>
        <time>2026-04-20T08:37:46Z</time>
      </trkpt>
      <trkpt lat="52.318709380924702" lon="7.952438592910767">
        <ele>66.21484375</ele>
        <time>2026-04-20T08:37:50Z</time>
      </trkpt>
      <trkpt lat="52.318941308185458" lon="7.952544959262013">
        <ele>64.7265625</ele>
        <time>2026-04-20T08:37:54Z</time>
      </trkpt>
      <trkpt lat="52.319172229617834" lon="7.952618720009923">
        <ele>63.34375</ele>
        <time>2026-04-20T08:37:58Z</time>
      </trkpt>
      <trkpt lat="52.319399211555719" lon="7.952734641730785">
        <ele>62.1796875</ele>
        <time>2026-04-20T08:38:02Z</time>
      </trkpt>
      <trkpt lat="52.319619068875909" lon="7.952843438833952">
        <ele>60.859375</ele>
        <time>2026-04-20T08:38:06Z</time>
      </trkpt>
      <trkpt lat="52.319841356948018" lon="7.952959025278688">
        <ele>59.4765625</ele>
        <time>2026-04-20T08:38:10Z</time>
      </trkpt>
      <trkpt lat="52.320075295865536" lon="7.953088860958815">
        <ele>58.66796875</ele>
        <time>2026-04-20T08:38:14Z</time>
      </trkpt>
      <trkpt lat="52.320295991376042" lon="7.953187515959144">
        <ele>57.84375</ele>
        <time>2026-04-20T08:38:18Z</time>
      </trkpt>
      <trkpt lat="52.320519955828786" lon="7.95331047847867">
        <ele>57.0625</ele>
        <time>2026-04-20T08:38:22Z</time>
      </trkpt>
      <trkpt lat="52.320737969130278" lon="7.953431680798531">
        <ele>56.734375</ele>
        <time>2026-04-20T08:38:26Z</time>
      </trkpt>
      <trkpt lat="52.320941565558314" lon="7.953586829826236">
        <ele>56.8828125</ele>
        <time>2026-04-20T08:38:30Z</time>
      </trkpt>
      <trkpt lat="52.321124374866486" lon="7.95378539711237">
        <ele>57.0390625</ele>
        <time>2026-04-20T08:38:34Z</time>
      </trkpt>
      <trkpt lat="52.321309698745608" lon="7.953989244997501">
        <ele>56.984375</ele>
        <time>2026-04-20T08:38:38Z</time>
      </trkpt>
      <trkpt lat="52.321485551074147" lon="7.954184459522367">
        <ele>56.9609375</ele>
        <time>2026-04-20T08:38:42Z</time>
      </trkpt>
      <trkpt lat="52.321660229936242" lon="7.954381015151739">
        <ele>57.8515625</ele>
        <time>2026-04-20T08:38:46Z</time>
      </trkpt>
      <trkpt lat="52.321836836636066" lon="7.9545608907938">
        <ele>58.69140625</ele>
        <time>2026-04-20T08:38:50Z</time>
      </trkpt>
      <trkpt lat="52.322004642337561" lon="7.954734563827515">
        <ele>59.3203125</ele>
        <time>2026-04-20T08:38:54Z</time>
      </trkpt>
      <trkpt lat="52.322163982316852" lon="7.954913936555386">
        <ele>59.765625</ele>
        <time>2026-04-20T08:38:58Z</time>
      </trkpt>
      <trkpt lat="52.322328351438046" lon="7.955093896016479">
        <ele>59.7578125</ele>
        <time>2026-04-20T08:39:02Z</time>
      </trkpt>
      <trkpt lat="52.322487607598305" lon="7.955277794972062">
        <ele>58.5703125</ele>
        <time>2026-04-20T08:39:06Z</time>
      </trkpt>
      <trkpt lat="52.322702771052718" lon="7.955497233197093">
        <ele>57.08984375</ele>
        <time>2026-04-20T08:39:12Z</time>
      </trkpt>
      <trkpt lat="52.322859596461058" lon="7.95563586987555">
        <ele>56.19921875</ele>
        <time>2026-04-20T08:39:18Z</time>
      </trkpt>
      <trkpt lat="52.322948360815644" lon="7.95524250715971">
        <ele>55.984375</ele>
        <time>2026-04-20T08:39:24Z</time>
      </trkpt>
      <trkpt lat="52.323005273938179" lon="7.954912092536688">
        <ele>55.9375</ele>
        <time>2026-04-20T08:39:28Z</time>
      </trkpt>
      <trkpt lat="52.323061767965555" lon="7.954563992097974">
        <ele>56.0078125</ele>
        <time>2026-04-20T08:39:32Z</time>
      </trkpt>
      <trkpt lat="52.323122955858707" lon="7.954233409836888">
        <ele>55.99609375</ele>
        <time>2026-04-20T08:39:36Z</time>
      </trkpt>
      <trkpt lat="52.323189340531826" lon="7.953916070982814">
        <ele>55.875</ele>
        <time>2026-04-20T08:39:40Z</time>
      </trkpt>
      <trkpt lat="52.323292437940836" lon="7.95358557254076">
        <ele>55.609375</ele>
        <time>2026-04-20T08:39:44Z</time>
      </trkpt>
      <trkpt lat="52.323401989415288" lon="7.953304778784514">
        <ele>55.17578125</ele>
        <time>2026-04-20T08:39:48Z</time>
      </trkpt>
      <trkpt lat="52.32352620922029" lon="7.953052567318082">
        <ele>54.7578125</ele>
        <time>2026-04-20T08:39:52Z</time>
      </trkpt>
      <trkpt lat="52.323648668825626" lon="7.95281108468771">
        <ele>54.43359375</ele>
        <time>2026-04-20T08:39:56Z</time>
      </trkpt>
      <trkpt lat="52.323843045160174" lon="7.952521657571197">
        <ele>54.25</ele>
        <time>2026-04-20T08:40:02Z</time>
      </trkpt>
      <trkpt lat="52.324003474786878" lon="7.952342787757516">
        <ele>54.44921875</ele>
        <time>2026-04-20T08:40:06Z</time>
      </trkpt>
      <trkpt lat="52.32417362742126" lon="7.952221250161529">
        <ele>54.7734375</ele>
        <time>2026-04-20T08:40:10Z</time>
      </trkpt>
      <trkpt lat="52.324358364567161" lon="7.952081859111786">
        <ele>54.9921875</ele>
        <time>2026-04-20T08:40:14Z</time>
      </trkpt>
      <trkpt lat="52.324547711759806" lon="7.951946491375566">
        <ele>55.0625</ele>
        <time>2026-04-20T08:40:18Z</time>
      </trkpt>
      <trkpt lat="52.324738819152117" lon="7.951800143346191">
        <ele>54.94921875</ele>
        <time>2026-04-20T08:40:22Z</time>
      </trkpt>
      <trkpt lat="52.32493587769568" lon="7.951663602143526">
        <ele>54.65625</ele>
        <time>2026-04-20T08:40:26Z</time>
      </trkpt>
      <trkpt lat="52.325141401961446" lon="7.951521528884769">
        <ele>54.43359375</ele>
        <time>2026-04-20T08:40:30Z</time>
      </trkpt>
      <trkpt lat="52.325333766639233" lon="7.951393537223339">
        <ele>54.30859375</ele>
        <time>2026-04-20T08:40:34Z</time>
      </trkpt>
      <trkpt lat="52.32551883906126" lon="7.951263198629022">
        <ele>54.25</ele>
        <time>2026-04-20T08:40:38Z</time>
      </trkpt>
      <trkpt lat="52.325682872906327" lon="7.951139900833368">
        <ele>54.10546875</ele>
        <time>2026-04-20T08:40:42Z</time>
      </trkpt>
      <trkpt lat="52.325857132673264" lon="7.951020374894142">
        <ele>53.75</ele>
        <time>2026-04-20T08:40:46Z</time>
      </trkpt>
      <trkpt lat="52.326025357469916" lon="7.950898921117187">
        <ele>53.6171875</ele>
        <time>2026-04-20T08:40:50Z</time>
      </trkpt>
      <trkpt lat="52.326201377436519" lon="7.950773276388645">
        <ele>53.6640625</ele>
        <time>2026-04-20T08:40:54Z</time>
      </trkpt>
      <trkpt lat="52.326377145946026" lon="7.950638076290488">
        <ele>53.85546875</ele>
        <time>2026-04-20T08:40:58Z</time>
      </trkpt>
      <trkpt lat="52.326558278873563" lon="7.950524752959609">
        <ele>54.171875</ele>
        <time>2026-04-20T08:41:02Z</time>
      </trkpt>
      <trkpt lat="52.326738825067878" lon="7.950411345809698">
        <ele>54.4921875</ele>
        <time>2026-04-20T08:41:06Z</time>
      </trkpt>
      <trkpt lat="52.326902691274881" lon="7.950285701081157">
        <ele>54.7734375</ele>
        <time>2026-04-20T08:41:10Z</time>
      </trkpt>
      <trkpt lat="52.327117100358009" lon="7.950052684172988">
        <ele>54.875</ele>
        <time>2026-04-20T08:41:16Z</time>
      </trkpt>
      <trkpt lat="52.327299658209085" lon="7.949954364448786">
        <ele>54.765625</ele>
        <time>2026-04-20T08:41:20Z</time>
      </trkpt>
      <trkpt lat="52.327496465295553" lon="7.949860235676169">
        <ele>54.82421875</ele>
        <time>2026-04-20T08:41:24Z</time>
      </trkpt>
      <trkpt lat="52.327697211876512" lon="7.94971564784646">
        <ele>54.99609375</ele>
        <time>2026-04-20T08:41:28Z</time>
      </trkpt>
      <trkpt lat="52.327888319268823" lon="7.949588410556316">
        <ele>55.30859375</ele>
        <time>2026-04-20T08:41:32Z</time>
      </trkpt>
      <trkpt lat="52.328073810786009" lon="7.949503418058157">
        <ele>55.703125</ele>
        <time>2026-04-20T08:41:36Z</time>
      </trkpt>
      <trkpt lat="52.32825418934226" lon="7.949396213516593">
        <ele>56.2421875</ele>
        <time>2026-04-20T08:41:40Z</time>
      </trkpt>
      <trkpt lat="52.328428868204355" lon="7.949293367564678">
        <ele>56.77734375</ele>
        <time>2026-04-20T08:41:44Z</time>
      </trkpt>
      <trkpt lat="52.328669847920537" lon="7.949149366468191">
        <ele>57.60546875</ele>
        <time>2026-04-20T08:41:50Z</time>
      </trkpt>
      <trkpt lat="52.328842179849744" lon="7.949042245745659">
        <ele>58.328125</ele>
        <time>2026-04-20T08:41:54Z</time>
      </trkpt>
      <trkpt lat="52.329013757407665" lon="7.948947194963694">
        <ele>58.82421875</ele>
        <time>2026-04-20T08:41:58Z</time>
      </trkpt>
      <trkpt lat="52.329185083508492" lon="7.948836805298924">
        <ele>58.88671875</ele>
        <time>2026-04-20T08:42:02Z</time>
      </trkpt>
      <trkpt lat="52.329367641359568" lon="7.948734378442168">
        <ele>58.9140625</ele>
        <time>2026-04-20T08:42:06Z</time>
      </trkpt>
      <trkpt lat="52.329538380727172" lon="7.948631783947349">
        <ele>58.953125</ele>
        <time>2026-04-20T08:42:10Z</time>
      </trkpt>
      <trkpt lat="52.32971079647541" lon="7.948544779792428">
        <ele>58.95703125</ele>
        <time>2026-04-20T08:42:14Z</time>
      </trkpt>
      <trkpt lat="52.329877428710461" lon="7.948428606614471">
        <ele>59.0703125</ele>
        <time>2026-04-20T08:42:18Z</time>
      </trkpt>
      <trkpt lat="52.330044060945511" lon="7.948299441486597">
        <ele>59.2890625</ele>
        <time>2026-04-20T08:42:22Z</time>
      </trkpt>
      <trkpt lat="52.330206083133817" lon="7.948149153962731">
        <ele>59.62109375</ele>
        <time>2026-04-20T08:42:26Z</time>
      </trkpt>
      <trkpt lat="52.330435076728463" lon="7.947929380461574">
        <ele>60.12890625</ele>
        <time>2026-04-20T08:42:32Z</time>
      </trkpt>
      <trkpt lat="52.33060154132545" lon="7.947787810117006">
        <ele>60.40625</ele>
        <time>2026-04-20T08:42:36Z</time>
      </trkpt>
      <trkpt lat="52.330770017579198" lon="7.947641965001822">
        <ele>60.7578125</ele>
        <time>2026-04-20T08:42:40Z</time>
      </trkpt>
      <trkpt lat="52.330936901271343" lon="7.947502238675952">
        <ele>61.70703125</ele>
        <time>2026-04-20T08:42:44Z</time>
      </trkpt>
      <trkpt lat="52.331113591790199" lon="7.947358321398497">
        <ele>63.03515625</ele>
        <time>2026-04-20T08:42:48Z</time>
      </trkpt>
      <trkpt lat="52.331278380006552" lon="7.947233933955431">
        <ele>64.484375</ele>
        <time>2026-04-20T08:42:52Z</time>
      </trkpt>
      <trkpt lat="52.331449957564473" lon="7.947093201801181">
        <ele>66.44140625</ele>
        <time>2026-04-20T08:42:56Z</time>
      </trkpt>
      <trkpt lat="52.331621870398521" lon="7.946954984217882">
        <ele>66.7734375</ele>
        <time>2026-04-20T08:43:00Z</time>
      </trkpt>
      <trkpt lat="52.331785568967462" lon="7.946805199608207">
        <ele>66.9296875</ele>
        <time>2026-04-20T08:43:04Z</time>
      </trkpt>
      <trkpt lat="52.33193845488131" lon="7.946634879335761">
        <ele>67.0625</ele>
        <time>2026-04-20T08:43:08Z</time>
      </trkpt>
      <trkpt lat="52.33209284953773" lon="7.946454668417573">
        <ele>67.50390625</ele>
        <time>2026-04-20T08:43:12Z</time>
      </trkpt>
      <trkpt lat="52.33222377486527" lon="7.946247216314077">
        <ele>68.6484375</ele>
        <time>2026-04-20T08:43:16Z</time>
      </trkpt>
      <trkpt lat="52.332349503412843" lon="7.946019228547812">
        <ele>69.734375</ele>
        <time>2026-04-20T08:43:20Z</time>
      </trkpt>
      <trkpt lat="52.332535330206156" lon="7.945703063160181">
        <ele>70.03515625</ele>
        <time>2026-04-20T08:43:26Z</time>
      </trkpt>
      <trkpt lat="52.332654017955065" lon="7.945347335189581">
        <ele>71.203125</ele>
        <time>2026-04-20T08:43:32Z</time>
      </trkpt>
      <trkpt lat="52.332593919709325" lon="7.945017172023654">
        <ele>74.24609375</ele>
        <time>2026-04-20T08:43:38Z</time>
      </trkpt>
      <trkpt lat="52.332476573064923" lon="7.944725230336189">
        <ele>76.73046875</ele>
        <time>2026-04-20T08:43:44Z</time>
      </trkpt>
      <trkpt lat="52.332401387393475" lon="7.944453321397305">
        <ele>78.17578125</ele>
        <time>2026-04-20T08:43:50Z</time>
      </trkpt>
      <trkpt lat="52.332298709079623" lon="7.944136653095484">
        <ele>79.3125</ele>
        <time>2026-04-20T08:43:58Z</time>
      </trkpt>
      <trkpt lat="52.332200221717358" lon="7.943816212937236">
        <ele>79.35546875</ele>
        <time>2026-04-20T08:44:06Z</time>
      </trkpt>
      <trkpt lat="52.332100728526711" lon="7.943506753072143">
        <ele>79.33203125</ele>
        <time>2026-04-20T08:44:14Z</time>
      </trkpt>
      <trkpt lat="52.331965025514364" lon="7.943258229643107">
        <ele>78.3671875</ele>
        <time>2026-04-20T08:44:22Z</time>
      </trkpt>
      <trkpt lat="52.331928480416536" lon="7.943022781983018">
        <ele>76.671875</ele>
        <time>2026-04-20T08:44:30Z</time>
      </trkpt>
      <trkpt lat="52.331939628347754" lon="7.942732349038124">
        <ele>74.2265625</ele>
        <time>2026-04-20T08:44:36Z</time>
      </trkpt>
      <trkpt lat="52.331964522600174" lon="7.942396569997072">
        <ele>72.5234375</ele>
        <time>2026-04-20T08:44:42Z</time>
      </trkpt>
      <trkpt lat="52.331998217850924" lon="7.942071184515953">
        <ele>71.22265625</ele>
        <time>2026-04-20T08:44:48Z</time>
      </trkpt>
      <trkpt lat="52.332042055204511" lon="7.94174512848258">
        <ele>70.4296875</ele>
        <time>2026-04-20T08:44:54Z</time>
      </trkpt>
      <trkpt lat="52.332064853981137" lon="7.941439105197787">
        <ele>70.94921875</ele>
        <time>2026-04-20T08:45:00Z</time>
      </trkpt>
      <trkpt lat="52.332098130136728" lon="7.941131154075265">
        <ele>71.5234375</ele>
        <time>2026-04-20T08:45:06Z</time>
      </trkpt>
      <trkpt lat="52.33214071020484" lon="7.940751202404499">
        <ele>72.125</ele>
        <time>2026-04-20T08:45:14Z</time>
      </trkpt>
      <trkpt lat="52.332181110978127" lon="7.940370915457606">
        <ele>72.62890625</ele>
        <time>2026-04-20T08:45:22Z</time>
      </trkpt>
      <trkpt lat="52.332214135676622" lon="7.940066233277321">
        <ele>72.91796875</ele>
        <time>2026-04-20T08:45:28Z</time>
      </trkpt>
      <trkpt lat="52.33224187977612" lon="7.939767921343446">
        <ele>72.953125</ele>
        <time>2026-04-20T08:45:34Z</time>
      </trkpt>
      <trkpt lat="52.332274485379457" lon="7.939459718763828">
        <ele>72.9921875</ele>
        <time>2026-04-20T08:45:40Z</time>
      </trkpt>
      <trkpt lat="52.332310108467937" lon="7.939129890874028">
        <ele>73.328125</ele>
        <time>2026-04-20T08:45:46Z</time>
      </trkpt>
      <trkpt lat="52.332344809547067" lon="7.938834177330136">
        <ele>73.734375</ele>
        <time>2026-04-20T08:45:52Z</time>
      </trkpt>
      <trkpt lat="52.33237624168396" lon="7.938533099368215">
        <ele>74.08203125</ele>
        <time>2026-04-20T08:45:58Z</time>
      </trkpt>
      <trkpt lat="52.332408679649234" lon="7.938220035284758">
        <ele>74.15234375</ele>
        <time>2026-04-20T08:46:04Z</time>
      </trkpt>
      <trkpt lat="52.33243583701551" lon="7.937918957322836">
        <ele>74.1875</ele>
        <time>2026-04-20T08:46:10Z</time>
      </trkpt>
      <trkpt lat="52.332469699904323" lon="7.937625590711832">
        <ele>74.1953125</ele>
        <time>2026-04-20T08:46:16Z</time>
      </trkpt>
      <trkpt lat="52.33250574208796" lon="7.937318310141563">
        <ele>73.93359375</ele>
        <time>2026-04-20T08:46:22Z</time>
      </trkpt>
      <trkpt lat="52.332546981051564" lon="7.936949171125889">
        <ele>73.49609375</ele>
        <time>2026-04-20T08:46:29Z</time>
      </trkpt>
      <trkpt lat="52.33258780092001" lon="7.936599478125572">
        <ele>73.16015625</ele>
        <time>2026-04-20T08:46:35Z</time>
      </trkpt>
      <trkpt lat="52.332638930529356" lon="7.936192536726594">
        <ele>72.8125</ele>
        <time>2026-04-20T08:46:41Z</time>
      </trkpt>
      <trkpt lat="52.332675810903311" lon="7.935855919495225">
        <ele>72.23828125</ele>
        <time>2026-04-20T08:46:45Z</time>
      </trkpt>
      <trkpt lat="52.332719061523676" lon="7.935476722195745">
        <ele>71.171875</ele>
        <time>2026-04-20T08:46:49Z</time>
      </trkpt>
      <trkpt lat="52.332762228325009" lon="7.935086628422141">
        <ele>70.171875</ele>
        <time>2026-04-20T08:46:53Z</time>
      </trkpt>
      <trkpt lat="52.332810088992119" lon="7.934706257656217">
        <ele>69.54296875</ele>
        <time>2026-04-20T08:46:57Z</time>
      </trkpt>
      <trkpt lat="52.332856692373753" lon="7.934327898547053">
        <ele>68.92578125</ele>
        <time>2026-04-20T08:47:01Z</time>
      </trkpt>
      <trkpt lat="52.332891309633851" lon="7.933959932997823">
        <ele>68.68359375</ele>
        <time>2026-04-20T08:47:05Z</time>
      </trkpt>
      <trkpt lat="52.33293330296874" lon="7.93360261246562">
        <ele>68.4609375</ele>
        <time>2026-04-20T08:47:09Z</time>
      </trkpt>
      <trkpt lat="52.332969177514315" lon="7.933261720463634">
        <ele>68.01171875</ele>
        <time>2026-04-20T08:47:13Z</time>
      </trkpt>
      <trkpt lat="52.333007901906967" lon="7.932914542034268">
        <ele>67.4609375</ele>
        <time>2026-04-20T08:47:17Z</time>
      </trkpt>
      <trkpt lat="52.333045452833176" lon="7.932581612840295">
        <ele>66.78515625</ele>
        <time>2026-04-20T08:47:21Z</time>
      </trkpt>
      <trkpt lat="52.333090379834175" lon="7.932202834635973">
        <ele>65.37109375</ele>
        <time>2026-04-20T08:47:25Z</time>
      </trkpt>
      <trkpt lat="52.333134049549699" lon="7.931826068088412">
        <ele>64.01171875</ele>
        <time>2026-04-20T08:47:29Z</time>
      </trkpt>
      <trkpt lat="52.333182580769062" lon="7.931447792798281">
        <ele>64.6171875</ele>
        <time>2026-04-20T08:47:33Z</time>
      </trkpt>
      <trkpt lat="52.333214599639177" lon="7.931081084534526">
        <ele>65.33984375</ele>
        <time>2026-04-20T08:47:37Z</time>
      </trkpt>
      <trkpt lat="52.333254078403115" lon="7.930731810629368">
        <ele>66.69921875</ele>
        <time>2026-04-20T08:47:41Z</time>
      </trkpt>
      <trkpt lat="52.333302609622478" lon="7.930354289710522">
        <ele>68.69140625</ele>
        <time>2026-04-20T08:47:45Z</time>
      </trkpt>
      <trkpt lat="52.333337226882577" lon="7.930063772946596">
        <ele>70.05078125</ele>
        <time>2026-04-20T08:47:48Z</time>
      </trkpt>
      <trkpt lat="52.333376789465547" lon="7.929674098268151">
        <ele>71.03515625</ele>
        <time>2026-04-20T08:47:52Z</time>
      </trkpt>
      <trkpt lat="52.333412664011121" lon="7.929306384176016">
        <ele>71.94921875</ele>
        <time>2026-04-20T08:47:56Z</time>
      </trkpt>
      <trkpt lat="52.333456082269549" lon="7.928953757509589">
        <ele>71.73046875</ele>
        <time>2026-04-20T08:48:00Z</time>
      </trkpt>
      <trkpt lat="52.333492795005441" lon="7.928590150550008">
        <ele>71.25390625</ele>
        <time>2026-04-20T08:48:04Z</time>
      </trkpt>
      <trkpt lat="52.333523221313953" lon="7.928256886079907">
        <ele>70.67578125</ele>
        <time>2026-04-20T08:48:08Z</time>
      </trkpt>
      <trkpt lat="52.333547528833151" lon="7.927929405122995">
        <ele>69.96484375</ele>
        <time>2026-04-20T08:48:12Z</time>
      </trkpt>
      <trkpt lat="52.333602346479893" lon="7.927524810656905">
        <ele>69.0078125</ele>
        <time>2026-04-20T08:48:18Z</time>
      </trkpt>
      <trkpt lat="52.333639897406101" lon="7.927196072414517">
        <ele>67.6875</ele>
        <time>2026-04-20T08:48:24Z</time>
      </trkpt>
      <trkpt lat="52.333842571824789" lon="7.927155671641231">
        <ele>68.68359375</ele>
        <time>2026-04-20T08:48:36Z</time>
      </trkpt>
      <trkpt lat="52.334038959816098" lon="7.927139662206173">
        <ele>69.05859375</ele>
        <time>2026-04-20T08:48:42Z</time>
      </trkpt>
      <trkpt lat="52.334251021966338" lon="7.927146535366774">
        <ele>68.82421875</ele>
        <time>2026-04-20T08:48:46Z</time>
      </trkpt>
      <trkpt lat="52.334474315866828" lon="7.927180817350745">
        <ele>68.69140625</ele>
        <time>2026-04-20T08:48:50Z</time>
      </trkpt>
      <trkpt lat="52.334673050791025" lon="7.92718886397779">
        <ele>68.4296875</ele>
        <time>2026-04-20T08:48:54Z</time>
      </trkpt>
      <trkpt lat="52.334879161790013" lon="7.92720353230834">
        <ele>68.23828125</ele>
        <time>2026-04-20T08:48:58Z</time>
      </trkpt>
      <trkpt lat="52.335060797631741" lon="7.927199173718691">
        <ele>68.0703125</ele>
        <time>2026-04-20T08:49:02Z</time>
      </trkpt>
      <trkpt lat="52.335311081260443" lon="7.927225744351745">
        <ele>68.01953125</ele>
        <time>2026-04-20T08:49:08Z</time>
      </trkpt>
      <trkpt lat="52.335557760670781" lon="7.927261702716351">
        <ele>68.08984375</ele>
        <time>2026-04-20T08:49:14Z</time>
      </trkpt>
      <trkpt lat="52.335751969367266" lon="7.927286764606834">
        <ele>68.625</ele>
        <time>2026-04-20T08:49:18Z</time>
      </trkpt>
      <trkpt lat="52.336027231067419" lon="7.927352227270603">
        <ele>69.6640625</ele>
        <time>2026-04-20T08:49:24Z</time>
      </trkpt>
      <trkpt lat="52.336233677342534" lon="7.927434621378779">
        <ele>70.359375</ele>
        <time>2026-04-20T08:49:28Z</time>
      </trkpt>
      <trkpt lat="52.336455965414643" lon="7.927605025470257">
        <ele>70.9140625</ele>
        <time>2026-04-20T08:49:32Z</time>
      </trkpt>
      <trkpt lat="52.336676409468055" lon="7.927774926647544">
        <ele>70.7421875</ele>
        <time>2026-04-20T08:49:36Z</time>
      </trkpt>
      <trkpt lat="52.336916131898761" lon="7.927969302982092">
        <ele>70.18359375</ele>
        <time>2026-04-20T08:49:40Z</time>
      </trkpt>
      <trkpt lat="52.337174378335476" lon="7.928209863603115">
        <ele>69.0703125</ele>
        <time>2026-04-20T08:49:44Z</time>
      </trkpt>
      <trkpt lat="52.337427847087383" lon="7.928500128909946">
        <ele>67.828125</ele>
        <time>2026-04-20T08:49:48Z</time>
      </trkpt>
      <trkpt lat="52.337697241455317" lon="7.928718058392406">
        <ele>66.3359375</ele>
        <time>2026-04-20T08:49:52Z</time>
      </trkpt>
      <trkpt lat="52.33792070299387" lon="7.928936658427119">
        <ele>65.30859375</ele>
        <time>2026-04-20T08:49:56Z</time>
      </trkpt>
      <trkpt lat="52.338115582242608" lon="7.929108738899231">
        <ele>64.8203125</ele>
        <time>2026-04-20T08:50:00Z</time>
      </trkpt>
      <trkpt lat="52.338292188942432" lon="7.929251734167337">
        <ele>64.49609375</ele>
        <time>2026-04-20T08:50:04Z</time>
      </trkpt>
      <trkpt lat="52.338460413739085" lon="7.929411577060819">
        <ele>64.14453125</ele>
        <time>2026-04-20T08:50:08Z</time>
      </trkpt>
      <trkpt lat="52.33866585418582" lon="7.92956555262208">
        <ele>63.8359375</ele>
        <time>2026-04-20T08:50:12Z</time>
      </trkpt>
      <trkpt lat="52.338856123387814" lon="7.929711230099201">
        <ele>63.54296875</ele>
        <time>2026-04-20T08:50:16Z</time>
      </trkpt>
      <trkpt lat="52.339061228558421" lon="7.929881131276488">
        <ele>62.94140625</ele>
        <time>2026-04-20T08:50:20Z</time>
      </trkpt>
      <trkpt lat="52.339270105585456" lon="7.930053966119885">
        <ele>62.07421875</ele>
        <time>2026-04-20T08:50:24Z</time>
      </trkpt>
      <trkpt lat="52.339479820802808" lon="7.930223699659109">
        <ele>61.1796875</ele>
        <time>2026-04-20T08:50:28Z</time>
      </trkpt>
      <trkpt lat="52.339663719758391" lon="7.930378764867783">
        <ele>60.41015625</ele>
        <time>2026-04-20T08:50:32Z</time>
      </trkpt>
      <trkpt lat="52.339849295094609" lon="7.930540451779962">
        <ele>59.6484375</ele>
        <time>2026-04-20T08:50:36Z</time>
      </trkpt>
      <trkpt lat="52.340056160464883" lon="7.930700881406665">
        <ele>59.17578125</ele>
        <time>2026-04-20T08:50:40Z</time>
      </trkpt>
      <trkpt lat="52.340257577598095" lon="7.930856114253402">
        <ele>58.8984375</ele>
        <time>2026-04-20T08:50:44Z</time>
      </trkpt>
      <trkpt lat="52.340457737445831" lon="7.931020818650723">
        <ele>58.7734375</ele>
        <time>2026-04-20T08:50:48Z</time>
      </trkpt>
      <trkpt lat="52.340670470148325" lon="7.931201783940196">
        <ele>58.390625</ele>
        <time>2026-04-20T08:50:52Z</time>
      </trkpt>
      <trkpt lat="52.340875742956996" lon="7.931351652368903">
        <ele>57.65234375</ele>
        <time>2026-04-20T08:50:56Z</time>
      </trkpt>
      <trkpt lat="52.341092247515917" lon="7.931542759761214">
        <ele>56.91796875</ele>
        <time>2026-04-20T08:51:02Z</time>
      </trkpt>
      <trkpt lat="52.341270865872502" lon="7.931565558537841">
        <ele>56.59375</ele>
        <time>2026-04-20T08:51:10Z</time>
      </trkpt>
      <trkpt lat="52.34143104404211" lon="7.931207483634353">
        <ele>56.7734375</ele>
        <time>2026-04-20T08:51:16Z</time>
      </trkpt>
      <trkpt lat="52.341541768983006" lon="7.930936580523849">
        <ele>56.90625</ele>
        <time>2026-04-20T08:51:20Z</time>
      </trkpt>
      <trkpt lat="52.341665653511882" lon="7.930655535310507">
        <ele>57.1796875</ele>
        <time>2026-04-20T08:51:24Z</time>
      </trkpt>
      <trkpt lat="52.3417804017663" lon="7.930383877828717">
        <ele>57.3671875</ele>
        <time>2026-04-20T08:51:28Z</time>
      </trkpt>
      <trkpt lat="52.341903699561954" lon="7.930089002475143">
        <ele>57.5390625</ele>
        <time>2026-04-20T08:51:32Z</time>
      </trkpt>
      <trkpt lat="52.342030936852098" lon="7.929806616157293">
        <ele>57.92578125</ele>
        <time>2026-04-20T08:51:36Z</time>
      </trkpt>
      <trkpt lat="52.342159934341908" lon="7.929526912048459">
        <ele>58.51171875</ele>
        <time>2026-04-20T08:51:40Z</time>
      </trkpt>
      <trkpt lat="52.342285327613354" lon="7.929225666448474">
        <ele>59.40625</ele>
        <time>2026-04-20T08:51:44Z</time>
      </trkpt>
      <trkpt lat="52.342406865209341" lon="7.928939675912261">
        <ele>60.58203125</ele>
        <time>2026-04-20T08:51:48Z</time>
      </trkpt>
      <trkpt lat="52.342524128034711" lon="7.928664246574044">
        <ele>61.71875</ele>
        <time>2026-04-20T08:51:52Z</time>
      </trkpt>
      <trkpt lat="52.342649772763252" lon="7.928359899669886">
        <ele>62.46875</ele>
        <time>2026-04-20T08:51:56Z</time>
      </trkpt>
      <trkpt lat="52.342772735282779" lon="7.928063347935677">
        <ele>62.49609375</ele>
        <time>2026-04-20T08:52:00Z</time>
      </trkpt>
      <trkpt lat="52.342887902632356" lon="7.927778447046876">
        <ele>62.32421875</ele>
        <time>2026-04-20T08:52:04Z</time>
      </trkpt>
      <trkpt lat="52.343012792989612" lon="7.927493127062917">
        <ele>61.94921875</ele>
        <time>2026-04-20T08:52:08Z</time>
      </trkpt>
      <trkpt lat="52.343143802136183" lon="7.92722255922854">
        <ele>61.46484375</ele>
        <time>2026-04-20T08:52:12Z</time>
      </trkpt>
      <trkpt lat="52.343254862353206" lon="7.926943441852927">
        <ele>61.12890625</ele>
        <time>2026-04-20T08:52:16Z</time>
      </trkpt>
      <trkpt lat="52.34337966889143" lon="7.926663067191839">
        <ele>61.765625</ele>
        <time>2026-04-20T08:52:20Z</time>
      </trkpt>
      <trkpt lat="52.343506570905447" lon="7.926373723894358">
        <ele>62.95703125</ele>
        <time>2026-04-20T08:52:24Z</time>
      </trkpt>
      <trkpt lat="52.343629114329815" lon="7.926088571548462">
        <ele>64.03125</ele>
        <time>2026-04-20T08:52:28Z</time>
      </trkpt>
      <trkpt lat="52.343753250315785" lon="7.925818674266338">
        <ele>64.49609375</ele>
        <time>2026-04-20T08:52:32Z</time>
      </trkpt>
      <trkpt lat="52.3438751231879" lon="7.925527403131127">
        <ele>64.6953125</ele>
        <time>2026-04-20T08:52:36Z</time>
      </trkpt>
      <trkpt lat="52.344010323286057" lon="7.925250632688403">
        <ele>64.97265625</ele>
        <time>2026-04-20T08:52:40Z</time>
      </trkpt>
      <trkpt lat="52.344126580283046" lon="7.924950057640672">
        <ele>65.28125</ele>
        <time>2026-04-20T08:52:44Z</time>
      </trkpt>
      <trkpt lat="52.344248285517097" lon="7.924657613039017">
        <ele>65.59765625</ele>
        <time>2026-04-20T08:52:48Z</time>
      </trkpt>
      <trkpt lat="52.344363369047642" lon="7.924383273348212">
        <ele>65.98828125</ele>
        <time>2026-04-20T08:52:52Z</time>
      </trkpt>
      <trkpt lat="52.344489516690373" lon="7.924106335267425">
        <ele>65.9453125</ele>
        <time>2026-04-20T08:52:56Z</time>
      </trkpt>
      <trkpt lat="52.344616670161486" lon="7.923835767433047">
        <ele>65.90625</ele>
        <time>2026-04-20T08:53:00Z</time>
      </trkpt>
      <trkpt lat="52.344731250777841" lon="7.923543825745583">
        <ele>65.89453125</ele>
        <time>2026-04-20T08:53:04Z</time>
      </trkpt>
      <trkpt lat="52.344838622957468" lon="7.923285076394677">
        <ele>65.6484375</ele>
        <time>2026-04-20T08:53:08Z</time>
      </trkpt>
      <trkpt lat="52.344959154725075" lon="7.923002857714891">
        <ele>65.375</ele>
        <time>2026-04-20T08:53:12Z</time>
      </trkpt>
      <trkpt lat="52.345074322074652" lon="7.922730362042785">
        <ele>65.1953125</ele>
        <time>2026-04-20T08:53:16Z</time>
      </trkpt>
      <trkpt lat="52.345169875770807" lon="7.922475971281529">
        <ele>64.70703125</ele>
        <time>2026-04-20T08:53:20Z</time>
      </trkpt>
      <trkpt lat="52.34527850523591" lon="7.922218143939972">
        <ele>64.296875</ele>
        <time>2026-04-20T08:53:24Z</time>
      </trkpt>
      <trkpt lat="52.345399791374803" lon="7.921955874189735">
        <ele>64.109375</ele>
        <time>2026-04-20T08:53:28Z</time>
      </trkpt>
      <trkpt lat="52.345505822449923" lon="7.921690000221133">
        <ele>64.015625</ele>
        <time>2026-04-20T08:53:32Z</time>
      </trkpt>
      <trkpt lat="52.345602381974459" lon="7.921419767662883">
        <ele>63.96484375</ele>
        <time>2026-04-20T08:53:36Z</time>
      </trkpt>
      <trkpt lat="52.345720399171114" lon="7.92112598195672">
        <ele>63.63671875</ele>
        <time>2026-04-20T08:53:40Z</time>
      </trkpt>
      <trkpt lat="52.345809834077954" lon="7.920842505991459">
        <ele>63.5859375</ele>
        <time>2026-04-20T08:53:44Z</time>
      </trkpt>
      <trkpt lat="52.345912931486964" lon="7.920543104410172">
        <ele>63.75390625</ele>
        <time>2026-04-20T08:53:48Z</time>
      </trkpt>
      <trkpt lat="52.346006641164422" lon="7.920251497998834">
        <ele>63.97265625</ele>
        <time>2026-04-20T08:53:52Z</time>
      </trkpt>
      <trkpt lat="52.346127508208156" lon="7.919925861060619">
        <ele>64.7265625</ele>
        <time>2026-04-20T08:53:56Z</time>
      </trkpt>
      <trkpt lat="52.346237478777766" lon="7.91959754191339">
        <ele>65.3671875</ele>
        <time>2026-04-20T08:54:00Z</time>
      </trkpt>
      <trkpt lat="52.346337055787444" lon="7.919292692095041">
        <ele>65.77734375</ele>
        <time>2026-04-20T08:54:04Z</time>
      </trkpt>
      <trkpt lat="52.346447361633182" lon="7.918954566121101">
        <ele>66.01171875</ele>
        <time>2026-04-20T08:54:08Z</time>
      </trkpt>
      <trkpt lat="52.346554230898619" lon="7.918629348278046">
        <ele>66.13671875</ele>
        <time>2026-04-20T08:54:12Z</time>
      </trkpt>
      <trkpt lat="52.346659172326326" lon="7.918306225910783">
        <ele>66.37890625</ele>
        <time>2026-04-20T08:54:16Z</time>
      </trkpt>
      <trkpt lat="52.346749529242516" lon="7.918002130463719">
        <ele>66.52734375</ele>
        <time>2026-04-20T08:54:20Z</time>
      </trkpt>
      <trkpt lat="52.346826978027821" lon="7.917710021138191">
        <ele>66.53125</ele>
        <time>2026-04-20T08:54:24Z</time>
      </trkpt>
      <trkpt lat="52.346892189234495" lon="7.917410116642714">
        <ele>66.62890625</ele>
        <time>2026-04-20T08:54:28Z</time>
      </trkpt>
      <trkpt lat="52.346977265551686" lon="7.917127646505833">
        <ele>66.77734375</ele>
        <time>2026-04-20T08:54:32Z</time>
      </trkpt>
      <trkpt lat="52.347039878368378" lon="7.916832687333226">
        <ele>66.98828125</ele>
        <time>2026-04-20T08:54:36Z</time>
      </trkpt>
      <trkpt lat="52.347157644107938" lon="7.916416609659791">
        <ele>66.48828125</ele>
        <time>2026-04-20T08:54:42Z</time>
      </trkpt>
      <trkpt lat="52.347225621342659" lon="7.916112430393696">
        <ele>66.12109375</ele>
        <time>2026-04-20T08:54:46Z</time>
      </trkpt>
      <trkpt lat="52.347298711538315" lon="7.915829038247466">
        <ele>65.7890625</ele>
        <time>2026-04-20T08:54:50Z</time>
      </trkpt>
      <trkpt lat="52.347392840310931" lon="7.91550331749022">
        <ele>65.48046875</ele>
        <time>2026-04-20T08:54:54Z</time>
      </trkpt>
      <trkpt lat="52.347489651292562" lon="7.915193354710937">
        <ele>65.27734375</ele>
        <time>2026-04-20T08:54:58Z</time>
      </trkpt>
      <trkpt lat="52.347613200545311" lon="7.914870567619801">
        <ele>65.19140625</ele>
        <time>2026-04-20T08:55:02Z</time>
      </trkpt>
      <trkpt lat="52.347695510834455" lon="7.914588265120983">
        <ele>65.16015625</ele>
        <time>2026-04-20T08:55:06Z</time>
      </trkpt>
      <trkpt lat="52.34779005870223" lon="7.914277128875256">
        <ele>65.1953125</ele>
        <time>2026-04-20T08:55:10Z</time>
      </trkpt>
      <trkpt lat="52.347886450588703" lon="7.913985941559076">
        <ele>65.15625</ele>
        <time>2026-04-20T08:55:14Z</time>
      </trkpt>
      <trkpt lat="52.347995499148965" lon="7.91370757855475">
        <ele>65.07421875</ele>
        <time>2026-04-20T08:55:18Z</time>
      </trkpt>
      <trkpt lat="52.348118210211396" lon="7.913413289934397">
        <ele>64.796875</ele>
        <time>2026-04-20T08:55:22Z</time>
      </trkpt>
      <trkpt lat="52.348217787221074" lon="7.913122354075313">
        <ele>64.3984375</ele>
        <time>2026-04-20T08:55:26Z</time>
      </trkpt>
      <trkpt lat="52.348328428342938" lon="7.912847762927413">
        <ele>64.15625</ele>
        <time>2026-04-20T08:55:30Z</time>
      </trkpt>
      <trkpt lat="52.348438398912549" lon="7.91257543489337">
        <ele>64.12890625</ele>
        <time>2026-04-20T08:55:34Z</time>
      </trkpt>
      <trkpt lat="52.348560690879822" lon="7.912260862067342">
        <ele>64.4140625</ele>
        <time>2026-04-20T08:55:38Z</time>
      </trkpt>
      <trkpt lat="52.348702345043421" lon="7.911982163786888">
        <ele>64.91796875</ele>
        <time>2026-04-20T08:55:42Z</time>
      </trkpt>
      <trkpt lat="52.348840730264783" lon="7.911736574023962">
        <ele>65.40234375</ele>
        <time>2026-04-20T08:55:46Z</time>
      </trkpt>
      <trkpt lat="52.348989257588983" lon="7.91146625764668">
        <ele>65.578125</ele>
        <time>2026-04-20T08:55:50Z</time>
      </trkpt>
      <trkpt lat="52.349115908145905" lon="7.911210190504789">
        <ele>65.2890625</ele>
        <time>2026-04-20T08:55:54Z</time>
      </trkpt>
      <trkpt lat="52.349242810159922" lon="7.91098253801465">
        <ele>64.8515625</ele>
        <time>2026-04-20T08:55:58Z</time>
      </trkpt>
      <trkpt lat="52.34937809407711" lon="7.910736948251724">
        <ele>63.671875</ele>
        <time>2026-04-20T08:56:02Z</time>
      </trkpt>
      <trkpt lat="52.349535757675767" lon="7.910458082333207">
        <ele>62.33203125</ele>
        <time>2026-04-20T08:56:06Z</time>
      </trkpt>
      <trkpt lat="52.349681938067079" lon="7.910191370174289">
        <ele>61.0546875</ele>
        <time>2026-04-20T08:56:10Z</time>
      </trkpt>
      <trkpt lat="52.349843038246036" lon="7.909946450963616">
        <ele>59.7265625</ele>
        <time>2026-04-20T08:56:14Z</time>
      </trkpt>
      <trkpt lat="52.349995672702789" lon="7.909718714654446">
        <ele>58.390625</ele>
        <time>2026-04-20T08:56:18Z</time>
      </trkpt>
      <trkpt lat="52.350131459534168" lon="7.909487290307879">
        <ele>57.1640625</ele>
        <time>2026-04-20T08:56:22Z</time>
      </trkpt>
      <trkpt lat="52.350275795906782" lon="7.90926793590188">
        <ele>56.1640625</ele>
        <time>2026-04-20T08:56:26Z</time>
      </trkpt>
      <trkpt lat="52.350412840023637" lon="7.909041456878185">
        <ele>55.41015625</ele>
        <time>2026-04-20T08:56:30Z</time>
      </trkpt>
      <trkpt lat="52.350549297407269" lon="7.908830149099231">
        <ele>54.78125</ele>
        <time>2026-04-20T08:56:34Z</time>
      </trkpt>
      <trkpt lat="52.350690783932805" lon="7.908603502437472">
        <ele>54.296875</ele>
        <time>2026-04-20T08:56:38Z</time>
      </trkpt>
      <trkpt lat="52.350827660411596" lon="7.90838205255568">
        <ele>54.38671875</ele>
        <time>2026-04-20T08:56:42Z</time>
      </trkpt>
      <trkpt lat="52.35096856020391" lon="7.908139815554023">
        <ele>54.69140625</ele>
        <time>2026-04-20T08:56:46Z</time>
      </trkpt>
      <trkpt lat="52.351106191053987" lon="7.907912749797106">
        <ele>54.890625</ele>
        <time>2026-04-20T08:56:50Z</time>
      </trkpt>
      <trkpt lat="52.351251281797886" lon="7.907678643241525">
        <ele>55</ele>
        <time>2026-04-20T08:56:54Z</time>
      </trkpt>
      <trkpt lat="52.351390505209565" lon="7.907455852255225">
        <ele>55</ele>
        <time>2026-04-20T08:56:58Z</time>
      </trkpt>
      <trkpt lat="52.351518413051963" lon="7.907244795933366">
        <ele>55</ele>
        <time>2026-04-20T08:57:02Z</time>
      </trkpt>
      <trkpt lat="52.351656630635262" lon="7.907030889764428">
        <ele>55</ele>
        <time>2026-04-20T08:57:06Z</time>
      </trkpt>
      <trkpt lat="52.351791663095355" lon="7.906804075464606">
        <ele>54.9765625</ele>
        <time>2026-04-20T08:57:10Z</time>
      </trkpt>
      <trkpt lat="52.351920995861292" lon="7.906592516228557">
        <ele>54.8203125</ele>
        <time>2026-04-20T08:57:14Z</time>
      </trkpt>
      <trkpt lat="52.352053178474307" lon="7.906378861516714">
        <ele>54.58203125</ele>
        <time>2026-04-20T08:57:18Z</time>
      </trkpt>
      <trkpt lat="52.35217940993607" lon="7.906167386099696">
        <ele>54.26953125</ele>
        <time>2026-04-20T08:57:22Z</time>
      </trkpt>
      <trkpt lat="52.352368338033557" lon="7.905851304531097">
        <ele>54.0234375</ele>
        <time>2026-04-20T08:57:28Z</time>
      </trkpt>
      <trkpt lat="52.35250479541719" lon="7.905646115541458">
        <ele>54.125</ele>
        <time>2026-04-20T08:57:32Z</time>
      </trkpt>
      <trkpt lat="52.352639073505998" lon="7.905421145260334">
        <ele>54.31640625</ele>
        <time>2026-04-20T08:57:36Z</time>
      </trkpt>
      <trkpt lat="52.352771088480949" lon="7.905207155272365">
        <ele>54.5859375</ele>
        <time>2026-04-20T08:57:40Z</time>
      </trkpt>
      <trkpt lat="52.352909138426185" lon="7.90498168207705">
        <ele>55.19921875</ele>
        <time>2026-04-20T08:57:44Z</time>
      </trkpt>
      <trkpt lat="52.353044338524342" lon="7.904771715402603">
        <ele>55.88671875</ele>
        <time>2026-04-20T08:57:48Z</time>
      </trkpt>
      <trkpt lat="52.353180376812816" lon="7.904551103711128">
        <ele>56.42578125</ele>
        <time>2026-04-20T08:57:52Z</time>
      </trkpt>
      <trkpt lat="52.353319767862558" lon="7.904305346310139">
        <ele>56.75390625</ele>
        <time>2026-04-20T08:57:56Z</time>
      </trkpt>
      <trkpt lat="52.353468211367726" lon="7.904075430706143">
        <ele>56.70703125</ele>
        <time>2026-04-20T08:58:00Z</time>
      </trkpt>
      <trkpt lat="52.353600980713964" lon="7.90384853258729">
        <ele>56.76171875</ele>
        <time>2026-04-20T08:58:04Z</time>
      </trkpt>
      <trkpt lat="52.353745652362704" lon="7.903610235080123">
        <ele>56.9140625</ele>
        <time>2026-04-20T08:58:08Z</time>
      </trkpt>
      <trkpt lat="52.353880852460861" lon="7.90339850820601">
        <ele>56.8671875</ele>
        <time>2026-04-20T08:58:12Z</time>
      </trkpt>
      <trkpt lat="52.354015717282891" lon="7.90317177772522">
        <ele>56.46875</ele>
        <time>2026-04-20T08:58:16Z</time>
      </trkpt>
      <trkpt lat="52.354153683409095" lon="7.90294068865478">
        <ele>56.14453125</ele>
        <time>2026-04-20T08:58:20Z</time>
      </trkpt>
      <trkpt lat="52.354298438876867" lon="7.902711443603039">
        <ele>56.00390625</ele>
        <time>2026-04-20T08:58:24Z</time>
      </trkpt>
      <trkpt lat="52.354431375861168" lon="7.902494017034769">
        <ele>56.13671875</ele>
        <time>2026-04-20T08:58:28Z</time>
      </trkpt>
      <trkpt lat="52.354562385007739" lon="7.902261503040791">
        <ele>56.3828125</ele>
        <time>2026-04-20T08:58:32Z</time>
      </trkpt>
      <trkpt lat="52.354700686410069" lon="7.902039047330618">
        <ele>56.71484375</ele>
        <time>2026-04-20T08:58:36Z</time>
      </trkpt>
      <trkpt lat="52.354822978377342" lon="7.901786835864186">
        <ele>57.03125</ele>
        <time>2026-04-20T08:58:40Z</time>
      </trkpt>
      <trkpt lat="52.354948790743947" lon="7.901507718488574">
        <ele>57.49609375</ele>
        <time>2026-04-20T08:58:44Z</time>
      </trkpt>
      <trkpt lat="52.355083571746945" lon="7.901158612221479">
        <ele>58.04296875</ele>
        <time>2026-04-20T08:58:49Z</time>
      </trkpt>
      <trkpt lat="52.355186585336924" lon="7.900895001366735">
        <ele>58.4375</ele>
        <time>2026-04-20T08:58:53Z</time>
      </trkpt>
      <trkpt lat="52.355300998315215" lon="7.90063189342618">
        <ele>59.09375</ele>
        <time>2026-04-20T08:58:57Z</time>
      </trkpt>
      <trkpt lat="52.355419853702188" lon="7.900355793535709">
        <ele>60.16015625</ele>
        <time>2026-04-20T08:59:01Z</time>
      </trkpt>
      <trkpt lat="52.355530578643084" lon="7.900096205994487">
        <ele>60.8828125</ele>
        <time>2026-04-20T08:59:05Z</time>
      </trkpt>
      <trkpt lat="52.355644488707185" lon="7.899826895445585">
        <ele>60.4375</ele>
        <time>2026-04-20T08:59:09Z</time>
      </trkpt>
      <trkpt lat="52.355763679370284" lon="7.899577617645264">
        <ele>59.734375</ele>
        <time>2026-04-20T08:59:13Z</time>
      </trkpt>
      <trkpt lat="52.355877421796322" lon="7.899309145286679">
        <ele>58.8046875</ele>
        <time>2026-04-20T08:59:17Z</time>
      </trkpt>
      <trkpt lat="52.355989571660757" lon="7.899041343480349">
        <ele>57.421875</ele>
        <time>2026-04-20T08:59:21Z</time>
      </trkpt>
      <trkpt lat="52.35611286945641" lon="7.89878343231976">
        <ele>56.4140625</ele>
        <time>2026-04-20T08:59:25Z</time>
      </trkpt>
      <trkpt lat="52.356233233585954" lon="7.898542620241642">
        <ele>55.8125</ele>
        <time>2026-04-20T08:59:29Z</time>
      </trkpt>
      <trkpt lat="52.356355860829353" lon="7.898293593898416">
        <ele>56.1796875</ele>
        <time>2026-04-20T08:59:33Z</time>
      </trkpt>
      <trkpt lat="52.356487708166242" lon="7.8980509378016">
        <ele>56.66015625</ele>
        <time>2026-04-20T08:59:37Z</time>
      </trkpt>
      <trkpt lat="52.35661176033318" lon="7.897795708850026">
        <ele>57.11328125</ele>
        <time>2026-04-20T08:59:41Z</time>
      </trkpt>
      <trkpt lat="52.356732795014977" lon="7.897523464635015">
        <ele>57.4140625</ele>
        <time>2026-04-20T08:59:45Z</time>
      </trkpt>
      <trkpt lat="52.356836060062051" lon="7.897248370572925">
        <ele>57.5</ele>
        <time>2026-04-20T08:59:49Z</time>
      </trkpt>
      <trkpt lat="52.356950137764215" lon="7.896977132186294">
        <ele>57.4140625</ele>
        <time>2026-04-20T08:59:53Z</time>
      </trkpt>
      <trkpt lat="52.357040159404278" lon="7.896691309288144">
        <ele>57.71875</ele>
        <time>2026-04-20T08:59:57Z</time>
      </trkpt>
      <trkpt lat="52.357108891010284" lon="7.89640037342906">
        <ele>58.3828125</ele>
        <time>2026-04-20T09:00:01Z</time>
      </trkpt>
      <trkpt lat="52.357156751677394" lon="7.89595378562808">
        <ele>59.80078125</ele>
        <time>2026-04-20T09:00:07Z</time>
      </trkpt>
      <trkpt lat="52.357189441099763" lon="7.895634770393372">
        <ele>62.14453125</ele>
        <time>2026-04-20T09:00:11Z</time>
      </trkpt>
      <trkpt lat="52.357274936512113" lon="7.895346013829112">
        <ele>63.796875</ele>
        <time>2026-04-20T09:00:15Z</time>
      </trkpt>
      <trkpt lat="52.357389181852341" lon="7.895117774605751">
        <ele>63.97265625</ele>
        <time>2026-04-20T09:00:19Z</time>
      </trkpt>
      <trkpt lat="52.35753427259624" lon="7.894896576181054">
        <ele>63.01171875</ele>
        <time>2026-04-20T09:00:23Z</time>
      </trkpt>
      <trkpt lat="52.357695791870356" lon="7.89470043964684">
        <ele>61.7421875</ele>
        <time>2026-04-20T09:00:27Z</time>
      </trkpt>
      <trkpt lat="52.357850102707744" lon="7.894511176273227">
        <ele>60.4453125</ele>
        <time>2026-04-20T09:00:31Z</time>
      </trkpt>
      <trkpt lat="52.35799946822226" lon="7.894324343651533">
        <ele>59.0703125</ele>
        <time>2026-04-20T09:00:35Z</time>
      </trkpt>
      <trkpt lat="52.358142295852304" lon="7.894129045307636">
        <ele>57.9765625</ele>
        <time>2026-04-20T09:00:39Z</time>
      </trkpt>
      <trkpt lat="52.35828286036849" lon="7.893910696730018">
        <ele>58.015625</ele>
        <time>2026-04-20T09:00:43Z</time>
      </trkpt>
      <trkpt lat="52.358428118750453" lon="7.893686145544052">
        <ele>58.2421875</ele>
        <time>2026-04-20T09:00:47Z</time>
      </trkpt>
      <trkpt lat="52.358562229201198" lon="7.8934436570853">
        <ele>58.70703125</ele>
        <time>2026-04-20T09:00:51Z</time>
      </trkpt>
      <trkpt lat="52.358693825080991" lon="7.893182057887316">
        <ele>59.41796875</ele>
        <time>2026-04-20T09:00:55Z</time>
      </trkpt>
      <trkpt lat="52.358827767893672" lon="7.892931019887328">
        <ele>60.2109375</ele>
        <time>2026-04-20T09:00:59Z</time>
      </trkpt>
      <trkpt lat="52.35895911231637" lon="7.892695153132081">
        <ele>60.98828125</ele>
        <time>2026-04-20T09:01:03Z</time>
      </trkpt>
      <trkpt lat="52.359089283272624" lon="7.892448557540774">
        <ele>60.65234375</ele>
        <time>2026-04-20T09:01:07Z</time>
      </trkpt>
      <trkpt lat="52.359254322946072" lon="7.892133314162493">
        <ele>60.0703125</ele>
        <time>2026-04-20T09:01:13Z</time>
      </trkpt>
      <trkpt lat="52.35940570011735" lon="7.891862830147147">
        <ele>59.4375</ele>
        <time>2026-04-20T09:01:19Z</time>
      </trkpt>
      <trkpt lat="52.359529919922352" lon="7.891627298668027">
        <ele>58.60546875</ele>
        <time>2026-04-20T09:01:25Z</time>
      </trkpt>
      <trkpt lat="52.359411483630538" lon="7.891285987570882">
        <ele>57.9453125</ele>
        <time>2026-04-20T09:01:31Z</time>
      </trkpt>
      <trkpt lat="52.359308553859591" lon="7.891044421121478">
        <ele>57.68359375</ele>
        <time>2026-04-20T09:01:35Z</time>
      </trkpt>
      <trkpt lat="52.359164552763104" lon="7.890744348987937">
        <ele>57.91796875</ele>
        <time>2026-04-20T09:01:41Z</time>
      </trkpt>
      <trkpt lat="52.359006721526384" lon="7.890368839725852">
        <ele>58.01171875</ele>
        <time>2026-04-20T09:01:47Z</time>
      </trkpt>
      <trkpt lat="52.35890488140285" lon="7.89007212035358">
        <ele>57.96875</ele>
        <time>2026-04-20T09:01:51Z</time>
      </trkpt>
      <trkpt lat="52.358805388212204" lon="7.889763750135899">
        <ele>57.84765625</ele>
        <time>2026-04-20T09:01:55Z</time>
      </trkpt>
      <trkpt lat="52.358702542260289" lon="7.889485470950604">
        <ele>57.7265625</ele>
        <time>2026-04-20T09:01:59Z</time>
      </trkpt>
      <trkpt lat="52.358596175909042" lon="7.889162013307214">
        <ele>57.45703125</ele>
        <time>2026-04-20T09:02:03Z</time>
      </trkpt>
      <trkpt lat="52.358530797064304" lon="7.888846099376679">
        <ele>57.19921875</ele>
        <time>2026-04-20T09:02:07Z</time>
      </trkpt>
      <trkpt lat="52.358475057408214" lon="7.888552565127611">
        <ele>57.015625</ele>
        <time>2026-04-20T09:02:11Z</time>
      </trkpt>
      <trkpt lat="52.358319237828255" lon="7.888353830203414">
        <ele>56.8359375</ele>
        <time>2026-04-20T09:02:15Z</time>
      </trkpt>
      <trkpt lat="52.358140116557479" lon="7.888161800801754">
        <ele>56.93359375</ele>
        <time>2026-04-20T09:02:19Z</time>
      </trkpt>
      <trkpt lat="52.357946829870343" lon="7.887949906289578">
        <ele>57.18359375</ele>
        <time>2026-04-20T09:02:23Z</time>
      </trkpt>
      <trkpt lat="52.357765277847648" lon="7.887782771140337">
        <ele>57.3984375</ele>
        <time>2026-04-20T09:02:27Z</time>
      </trkpt>
      <trkpt lat="52.357588335871696" lon="7.887595603242517">
        <ele>57.49609375</ele>
        <time>2026-04-20T09:02:31Z</time>
      </trkpt>
      <trkpt lat="52.357417931780219" lon="7.887404747307301">
        <ele>57.46875</ele>
        <time>2026-04-20T09:02:35Z</time>
      </trkpt>
      <trkpt lat="52.357243336737156" lon="7.887213053181768">
        <ele>57.4375</ele>
        <time>2026-04-20T09:02:39Z</time>
      </trkpt>
      <trkpt lat="52.357086092233658" lon="7.887053964659572">
        <ele>57.3984375</ele>
        <time>2026-04-20T09:02:43Z</time>
      </trkpt>
      <trkpt lat="52.356922728940845" lon="7.886875933036208">
        <ele>57.421875</ele>
        <time>2026-04-20T09:02:47Z</time>
      </trkpt>
      <trkpt lat="52.356762550771236" lon="7.886725813150406">
        <ele>57.5390625</ele>
        <time>2026-04-20T09:02:51Z</time>
      </trkpt>
      <trkpt lat="52.356580160558224" lon="7.88660628721118">
        <ele>57.76953125</ele>
        <time>2026-04-20T09:02:55Z</time>
      </trkpt>
      <trkpt lat="52.356415959075093" lon="7.886481564491987">
        <ele>58.0078125</ele>
        <time>2026-04-20T09:02:59Z</time>
      </trkpt>
      <trkpt lat="52.356262067332864" lon="7.886296575888991">
        <ele>58.140625</ele>
        <time>2026-04-20T09:03:03Z</time>
      </trkpt>
      <trkpt lat="52.356078587472439" lon="7.886196915060282">
        <ele>58.33984375</ele>
        <time>2026-04-20T09:03:07Z</time>
      </trkpt>
      <trkpt lat="52.35588613897562" lon="7.886105636134744">
        <ele>58.59765625</ele>
        <time>2026-04-20T09:03:11Z</time>
      </trkpt>
      <trkpt lat="52.355657313019037" lon="7.886050483211875">
        <ele>58.90625</ele>
        <time>2026-04-20T09:03:15Z</time>
      </trkpt>
      <trkpt lat="52.355422452092171" lon="7.885924419388175">
        <ele>58.32421875</ele>
        <time>2026-04-20T09:03:19Z</time>
      </trkpt>
      <trkpt lat="52.35520837828517" lon="7.885829787701368">
        <ele>57.58203125</ele>
        <time>2026-04-20T09:03:23Z</time>
      </trkpt>
      <trkpt lat="52.355002518743277" lon="7.885744459927082">
        <ele>56.8828125</ele>
        <time>2026-04-20T09:03:27Z</time>
      </trkpt>
      <trkpt lat="52.354796156287193" lon="7.885673046112061">
        <ele>56.21484375</ele>
        <time>2026-04-20T09:03:31Z</time>
      </trkpt>
      <trkpt lat="52.354587865993381" lon="7.885608337819576">
        <ele>56.31640625</ele>
        <time>2026-04-20T09:03:35Z</time>
      </trkpt>
      <trkpt lat="52.354390472173691" lon="7.885528542101383">
        <ele>56.5234375</ele>
        <time>2026-04-20T09:03:39Z</time>
      </trkpt>
      <trkpt lat="52.354205567389727" lon="7.885421421378851">
        <ele>56.70703125</ele>
        <time>2026-04-20T09:03:43Z</time>
      </trkpt>
      <trkpt lat="52.354025607928634" lon="7.885254537686706">
        <ele>56.859375</ele>
        <time>2026-04-20T09:03:47Z</time>
      </trkpt>
      <trkpt lat="52.353866267949343" lon="7.885015485808253">
        <ele>57</ele>
        <time>2026-04-20T09:03:51Z</time>
      </trkpt>
      <trkpt lat="52.353725619614124" lon="7.884772745892406">
        <ele>57.375</ele>
        <time>2026-04-20T09:03:55Z</time>
      </trkpt>
      <trkpt lat="52.35358078032732" lon="7.884528581053019">
        <ele>58.0703125</ele>
        <time>2026-04-20T09:03:59Z</time>
      </trkpt>
      <trkpt lat="52.353429151698947" lon="7.884308639913797">
        <ele>58.9296875</ele>
        <time>2026-04-20T09:04:03Z</time>
      </trkpt>
      <trkpt lat="52.353285821154714" lon="7.884088698774576">
        <ele>59.30859375</ele>
        <time>2026-04-20T09:04:07Z</time>
      </trkpt>
      <trkpt lat="52.353142658248544" lon="7.883868338540196">
        <ele>59.59375</ele>
        <time>2026-04-20T09:04:11Z</time>
      </trkpt>
      <trkpt lat="52.352984491735697" lon="7.883657533675432">
        <ele>59.70703125</ele>
        <time>2026-04-20T09:04:15Z</time>
      </trkpt>
      <trkpt lat="52.352838981896639" lon="7.883461648598313">
        <ele>59.80859375</ele>
        <time>2026-04-20T09:04:19Z</time>
      </trkpt>
      <trkpt lat="52.352685341611505" lon="7.883270205929875">
        <ele>60.03125</ele>
        <time>2026-04-20T09:04:23Z</time>
      </trkpt>
      <trkpt lat="52.352524409070611" lon="7.883080942556262">
        <ele>60.375</ele>
        <time>2026-04-20T09:04:27Z</time>
      </trkpt>
      <trkpt lat="52.352355848997831" lon="7.882876759395003">
        <ele>60.8203125</ele>
        <time>2026-04-20T09:04:31Z</time>
      </trkpt>
      <trkpt lat="52.352182511240244" lon="7.882706355303526">
        <ele>61.01171875</ele>
        <time>2026-04-20T09:04:35Z</time>
      </trkpt>
      <trkpt lat="52.352024931460619" lon="7.88254626095295">
        <ele>60.6171875</ele>
        <time>2026-04-20T09:04:39Z</time>
      </trkpt>
      <trkpt lat="52.351859891787171" lon="7.882397146895528">
        <ele>60.44921875</ele>
        <time>2026-04-20T09:04:43Z</time>
      </trkpt>
      <trkpt lat="52.351709352806211" lon="7.882192796096206">
        <ele>60.40234375</ele>
        <time>2026-04-20T09:04:47Z</time>
      </trkpt>
      <trkpt lat="52.351566608995199" lon="7.88198777474463">
        <ele>60.59765625</ele>
        <time>2026-04-20T09:04:51Z</time>
      </trkpt>
      <trkpt lat="52.35143275000155" lon="7.881772695109248">
        <ele>61.01171875</ele>
        <time>2026-04-20T09:04:55Z</time>
      </trkpt>
      <trkpt lat="52.351305009797215" lon="7.881559543311596">
        <ele>61.47265625</ele>
        <time>2026-04-20T09:04:59Z</time>
      </trkpt>
      <trkpt lat="52.351169055327773" lon="7.881337087601423">
        <ele>61.9609375</ele>
        <time>2026-04-20T09:05:03Z</time>
      </trkpt>
      <trkpt lat="52.351022958755493" lon="7.881126282736659">
        <ele>62.48828125</ele>
        <time>2026-04-20T09:05:07Z</time>
      </trkpt>
      <trkpt lat="52.350851381197572" lon="7.880819337442517">
        <ele>63.20703125</ele>
        <time>2026-04-20T09:05:13Z</time>
      </trkpt>
      <trkpt lat="52.350676031783223" lon="7.880522953346372">
        <ele>64.2421875</ele>
        <time>2026-04-20T09:05:19Z</time>
      </trkpt>
      <trkpt lat="52.350534209981561" lon="7.880264623090625">
        <ele>64.76171875</ele>
        <time>2026-04-20T09:05:25Z</time>
      </trkpt>
      <trkpt lat="52.350402949377894" lon="7.880032109096646">
        <ele>64.0703125</ele>
        <time>2026-04-20T09:05:29Z</time>
      </trkpt>
      <trkpt lat="52.35020874068141" lon="7.879741424694657">
        <ele>62.6953125</ele>
        <time>2026-04-20T09:05:35Z</time>
      </trkpt>
      <trkpt lat="52.350028278306127" lon="7.879416458308697">
        <ele>61.09375</ele>
        <time>2026-04-20T09:05:41Z</time>
      </trkpt>
      <trkpt lat="52.349894586950541" lon="7.879214286804199">
        <ele>60.23828125</ele>
        <time>2026-04-20T09:05:45Z</time>
      </trkpt>
      <trkpt lat="52.349764332175255" lon="7.878970708698034">
        <ele>59.54296875</ele>
        <time>2026-04-20T09:05:49Z</time>
      </trkpt>
      <trkpt lat="52.349636591970921" lon="7.878735512495041">
        <ele>59.6875</ele>
        <time>2026-04-20T09:05:53Z</time>
      </trkpt>
      <trkpt lat="52.3494977876544" lon="7.878516996279359">
        <ele>59.98046875</ele>
        <time>2026-04-20T09:05:57Z</time>
      </trkpt>
      <trkpt lat="52.349321683868766" lon="7.87836067378521">
        <ele>60.6171875</ele>
        <time>2026-04-20T09:06:01Z</time>
      </trkpt>
      <trkpt lat="52.349142311140895" lon="7.878198986873031">
        <ele>61.26171875</ele>
        <time>2026-04-20T09:06:05Z</time>
      </trkpt>
      <trkpt lat="52.348966123536229" lon="7.878034198656678">
        <ele>61.8984375</ele>
        <time>2026-04-20T09:06:09Z</time>
      </trkpt>
      <trkpt lat="52.348779626190662" lon="7.877903524786234">
        <ele>62.66015625</ele>
        <time>2026-04-20T09:06:13Z</time>
      </trkpt>
      <trkpt lat="52.348604360595345" lon="7.877784920856357">
        <ele>63.28125</ele>
        <time>2026-04-20T09:06:17Z</time>
      </trkpt>
      <trkpt lat="52.348413672298193" lon="7.877656258642674">
        <ele>63.76953125</ele>
        <time>2026-04-20T09:06:21Z</time>
      </trkpt>
      <trkpt lat="52.348248464986682" lon="7.877521645277739">
        <ele>63.9140625</ele>
        <time>2026-04-20T09:06:25Z</time>
      </trkpt>
      <trkpt lat="52.348074708133936" lon="7.877427013590932">
        <ele>64.13671875</ele>
        <time>2026-04-20T09:06:29Z</time>
      </trkpt>
      <trkpt lat="52.347889970988035" lon="7.877319306135178">
        <ele>64.51953125</ele>
        <time>2026-04-20T09:06:33Z</time>
      </trkpt>
      <trkpt lat="52.347712107002735" lon="7.877224255353212">
        <ele>64.96875</ele>
        <time>2026-04-20T09:06:37Z</time>
      </trkpt>
      <trkpt lat="52.347536589950323" lon="7.877153260633349">
        <ele>65.5234375</ele>
        <time>2026-04-20T09:06:41Z</time>
      </trkpt>
      <trkpt lat="52.347354618832469" lon="7.877065921202302">
        <ele>66.1015625</ele>
        <time>2026-04-20T09:06:45Z</time>
      </trkpt>
      <trkpt lat="52.347160158678889" lon="7.876968691125512">
        <ele>66.2265625</ele>
        <time>2026-04-20T09:06:49Z</time>
      </trkpt>
      <trkpt lat="52.346962597221136" lon="7.876890571787953">
        <ele>66.046875</ele>
        <time>2026-04-20T09:06:53Z</time>
      </trkpt>
      <trkpt lat="52.346781045198441" lon="7.876852937042713">
        <ele>66.01171875</ele>
        <time>2026-04-20T09:06:57Z</time>
      </trkpt>
      <trkpt lat="52.346515422686934" lon="7.876819828525186">
        <ele>66.05078125</ele>
        <time>2026-04-20T09:07:03Z</time>
      </trkpt>
      <trkpt lat="52.346274862065911" lon="7.876840028911829">
        <ele>66.421875</ele>
        <time>2026-04-20T09:07:09Z</time>
      </trkpt>
      <trkpt lat="52.346017453819513" lon="7.876940779387951">
        <ele>67.0546875</ele>
        <time>2026-04-20T09:07:15Z</time>
      </trkpt>
      <trkpt lat="52.345754094421864" lon="7.877060975879431">
        <ele>67.6875</ele>
        <time>2026-04-20T09:07:21Z</time>
      </trkpt>
      <trkpt lat="52.345498530194163" lon="7.877174885943532">
        <ele>67.82421875</ele>
        <time>2026-04-20T09:07:27Z</time>
      </trkpt>
      <trkpt lat="52.345308009535074" lon="7.877253172919154">
        <ele>67.4765625</ele>
        <time>2026-04-20T09:07:31Z</time>
      </trkpt>
      <trkpt lat="52.345118578523397" lon="7.877334309741855">
        <ele>67.0859375</ele>
        <time>2026-04-20T09:07:35Z</time>
      </trkpt>
      <trkpt lat="52.344915820285678" lon="7.877412009984255">
        <ele>66.62890625</ele>
        <time>2026-04-20T09:07:39Z</time>
      </trkpt>
      <trkpt lat="52.34470727853477" lon="7.877480909228325">
        <ele>66.26171875</ele>
        <time>2026-04-20T09:07:43Z</time>
      </trkpt>
      <trkpt lat="52.344496808946133" lon="7.877532793208957">
        <ele>66.19921875</ele>
        <time>2026-04-20T09:07:47Z</time>
      </trkpt>
      <trkpt lat="52.344300588592887" lon="7.877572607249022">
        <ele>66.15234375</ele>
        <time>2026-04-20T09:07:51Z</time>
      </trkpt>
      <trkpt lat="52.344092549756169" lon="7.877593645825982">
        <ele>66.12890625</ele>
        <time>2026-04-20T09:07:55Z</time>
      </trkpt>
      <trkpt lat="52.34387269243598" lon="7.877602363005281">
        <ele>66.1171875</ele>
        <time>2026-04-20T09:07:59Z</time>
      </trkpt>
      <trkpt lat="52.343653421849012" lon="7.877576630562544">
        <ele>66.1484375</ele>
        <time>2026-04-20T09:08:03Z</time>
      </trkpt>
      <trkpt lat="52.3434520047158" lon="7.877521393820643">
        <ele>66.21484375</ele>
        <time>2026-04-20T09:08:07Z</time>
      </trkpt>
      <trkpt lat="52.343246312811971" lon="7.877459200099111">
        <ele>66.2890625</ele>
        <time>2026-04-20T09:08:11Z</time>
      </trkpt>
      <trkpt lat="52.343044811859727" lon="7.877402789890766">
        <ele>66.35546875</ele>
        <time>2026-04-20T09:08:15Z</time>
      </trkpt>
      <trkpt lat="52.342848423868418" lon="7.877327185124159">
        <ele>66.44921875</ele>
        <time>2026-04-20T09:08:19Z</time>
      </trkpt>
      <trkpt lat="52.342643821612" lon="7.877239258959889">
        <ele>66.5546875</ele>
        <time>2026-04-20T09:08:23Z</time>
      </trkpt>
      <trkpt lat="52.342436285689473" lon="7.877170946449041">
        <ele>66.63671875</ele>
        <time>2026-04-20T09:08:27Z</time>
      </trkpt>
      <trkpt lat="52.34222112223506" lon="7.877084277570248">
        <ele>66.62890625</ele>
        <time>2026-04-20T09:08:31Z</time>
      </trkpt>
      <trkpt lat="52.342011239379644" lon="7.877008337527514">
        <ele>66.25</ele>
        <time>2026-04-20T09:08:35Z</time>
      </trkpt>
      <trkpt lat="52.341785430908203" lon="7.876919321715832">
        <ele>65.796875</ele>
        <time>2026-04-20T09:08:39Z</time>
      </trkpt>
      <trkpt lat="52.341546630486846" lon="7.87683567032218">
        <ele>65.32421875</ele>
        <time>2026-04-20T09:08:43Z</time>
      </trkpt>
      <trkpt lat="52.341306237503886" lon="7.876750426366925">
        <ele>64.91015625</ele>
        <time>2026-04-20T09:08:47Z</time>
      </trkpt>
      <trkpt lat="52.341034580022097" lon="7.876666523516178">
        <ele>64.26953125</ele>
        <time>2026-04-20T09:08:51Z</time>
      </trkpt>
      <trkpt lat="52.340761329978704" lon="7.876564599573612">
        <ele>63.49609375</ele>
        <time>2026-04-20T09:08:55Z</time>
      </trkpt>
      <trkpt lat="52.340477854013443" lon="7.87647114135325">
        <ele>62.84375</ele>
        <time>2026-04-20T09:08:59Z</time>
      </trkpt>
      <trkpt lat="52.34019773080945" lon="7.876398973166943">
        <ele>62.50390625</ele>
        <time>2026-04-20T09:09:03Z</time>
      </trkpt>
      <trkpt lat="52.339908219873905" lon="7.876378605142236">
        <ele>62.16015625</ele>
        <time>2026-04-20T09:09:07Z</time>
      </trkpt>
      <trkpt lat="52.33962164260447" lon="7.876389333978295">
        <ele>61.62890625</ele>
        <time>2026-04-20T09:09:11Z</time>
      </trkpt>
      <trkpt lat="52.339341100305319" lon="7.876455718651414">
        <ele>60.953125</ele>
        <time>2026-04-20T09:09:15Z</time>
      </trkpt>
      <trkpt lat="52.339041782543063" lon="7.876517996191979">
        <ele>60.234375</ele>
        <time>2026-04-20T09:09:19Z</time>
      </trkpt>
      <trkpt lat="52.338774399831891" lon="7.876525456085801">
        <ele>59.71484375</ele>
        <time>2026-04-20T09:09:23Z</time>
      </trkpt>
      <trkpt lat="52.33852026052773" lon="7.876583123579621">
        <ele>59.31640625</ele>
        <time>2026-04-20T09:09:27Z</time>
      </trkpt>
      <trkpt lat="52.33825103379786" lon="7.876583375036717">
        <ele>58.88671875</ele>
        <time>2026-04-20T09:09:31Z</time>
      </trkpt>
      <trkpt lat="52.337997732684016" lon="7.876563258469105">
        <ele>58.4140625</ele>
        <time>2026-04-20T09:09:35Z</time>
      </trkpt>
      <trkpt lat="52.337818779051304" lon="7.876590834930539">
        <ele>58.08203125</ele>
        <time>2026-04-20T09:09:39Z</time>
      </trkpt>
      <trkpt lat="52.337589031085372" lon="7.876569712534547">
        <ele>57.61328125</ele>
        <time>2026-04-20T09:09:43Z</time>
      </trkpt>
      <trkpt lat="52.337338579818606" lon="7.876537693664432">
        <ele>57.1171875</ele>
        <time>2026-04-20T09:09:47Z</time>
      </trkpt>
      <trkpt lat="52.337079830467701" lon="7.876497292891145">
        <ele>56.65625</ele>
        <time>2026-04-20T09:09:51Z</time>
      </trkpt>
      <trkpt lat="52.3368208296597" lon="7.876478768885136">
        <ele>56.1953125</ele>
        <time>2026-04-20T09:09:55Z</time>
      </trkpt>
      <trkpt lat="52.336568031460047" lon="7.876441720873117">
        <ele>55.7109375</ele>
        <time>2026-04-20T09:09:59Z</time>
      </trkpt>
      <trkpt lat="52.336345324292779" lon="7.876387825235724">
        <ele>55.375</ele>
        <time>2026-04-20T09:10:03Z</time>
      </trkpt>
      <trkpt lat="52.336096884682775" lon="7.876286152750254">
        <ele>55.17578125</ele>
        <time>2026-04-20T09:10:07Z</time>
      </trkpt>
      <trkpt lat="52.335866130888462" lon="7.876173919066787">
        <ele>55.05078125</ele>
        <time>2026-04-20T09:10:11Z</time>
      </trkpt>
      <trkpt lat="52.335625989362597" lon="7.876061014831066">
        <ele>55</ele>
        <time>2026-04-20T09:10:15Z</time>
      </trkpt>
      <trkpt lat="52.335376041010022" lon="7.876013154163957">
        <ele>54.48046875</ele>
        <time>2026-04-20T09:10:19Z</time>
      </trkpt>
      <trkpt lat="52.335137827321887" lon="7.876099990680814">
        <ele>53.90625</ele>
        <time>2026-04-20T09:10:23Z</time>
      </trkpt>
      <trkpt lat="52.334902128204703" lon="7.876234101131558">
        <ele>53.5</ele>
        <time>2026-04-20T09:10:27Z</time>
      </trkpt>
      <trkpt lat="52.334675900638103" lon="7.876391932368279">
        <ele>53.3046875</ele>
        <time>2026-04-20T09:10:31Z</time>
      </trkpt>
      <trkpt lat="52.334452858194709" lon="7.876543309539557">
        <ele>53.21875</ele>
        <time>2026-04-20T09:10:35Z</time>
      </trkpt>
      <trkpt lat="52.334252195432782" lon="7.876682030037046">
        <ele>53.14453125</ele>
        <time>2026-04-20T09:10:39Z</time>
      </trkpt>
      <trkpt lat="52.334024542942643" lon="7.876781020313501">
        <ele>52.98828125</ele>
        <time>2026-04-20T09:10:43Z</time>
      </trkpt>
      <trkpt lat="52.333811810240149" lon="7.876933570951223">
        <ele>52.90625</ele>
        <time>2026-04-20T09:10:47Z</time>
      </trkpt>
      <trkpt lat="52.333614500239491" lon="7.877021748572588">
        <ele>52.7109375</ele>
        <time>2026-04-20T09:10:51Z</time>
      </trkpt>
      <trkpt lat="52.333343513309956" lon="7.877054354175925">
        <ele>52.3359375</ele>
        <time>2026-04-20T09:10:57Z</time>
      </trkpt>
      <trkpt lat="52.333130277693272" lon="7.877046391367912">
        <ele>52.0234375</ele>
        <time>2026-04-20T09:11:01Z</time>
      </trkpt>
      <trkpt lat="52.332895919680595" lon="7.877034237608314">
        <ele>52</ele>
        <time>2026-04-20T09:11:05Z</time>
      </trkpt>
      <trkpt lat="52.332675224170089" lon="7.876998279243708">
        <ele>52</ele>
        <time>2026-04-20T09:11:09Z</time>
      </trkpt>
      <trkpt lat="52.332468442618847" lon="7.876995764672756">
        <ele>52</ele>
        <time>2026-04-20T09:11:13Z</time>
      </trkpt>
      <trkpt lat="52.332259397953749" lon="7.876992663368583">
        <ele>52.078125</ele>
        <time>2026-04-20T09:11:17Z</time>
      </trkpt>
      <trkpt lat="52.332053203135729" lon="7.87698520347476">
        <ele>52.8203125</ele>
        <time>2026-04-20T09:11:21Z</time>
      </trkpt>
      <trkpt lat="52.331844409927726" lon="7.876979252323508">
        <ele>53.57421875</ele>
        <time>2026-04-20T09:11:25Z</time>
      </trkpt>
      <trkpt lat="52.331623462960124" lon="7.876976653933525">
        <ele>54.3671875</ele>
        <time>2026-04-20T09:11:29Z</time>
      </trkpt>
      <trkpt lat="52.33141265809536" lon="7.876972043886781">
        <ele>55.265625</ele>
        <time>2026-04-20T09:11:33Z</time>
      </trkpt>
      <trkpt lat="52.331200512126088" lon="7.876959638670087">
        <ele>56.8515625</ele>
        <time>2026-04-20T09:11:37Z</time>
      </trkpt>
      <trkpt lat="52.330990713089705" lon="7.876935163512826">
        <ele>58.38671875</ele>
        <time>2026-04-20T09:11:41Z</time>
      </trkpt>
      <trkpt lat="52.330791307613254" lon="7.876877663657069">
        <ele>59.75390625</ele>
        <time>2026-04-20T09:11:45Z</time>
      </trkpt>
      <trkpt lat="52.330617886036634" lon="7.876745564863086">
        <ele>60.25390625</ele>
        <time>2026-04-20T09:11:49Z</time>
      </trkpt>
      <trkpt lat="52.330447481945157" lon="7.876616651192308">
        <ele>60.6640625</ele>
        <time>2026-04-20T09:11:53Z</time>
      </trkpt>
      <trkpt lat="52.330270288512111" lon="7.876503746956587">
        <ele>60.9921875</ele>
        <time>2026-04-20T09:11:57Z</time>
      </trkpt>
      <trkpt lat="52.330078091472387" lon="7.87645747885108">
        <ele>61.78515625</ele>
        <time>2026-04-20T09:12:01Z</time>
      </trkpt>
      <trkpt lat="52.329908441752195" lon="7.876542722806335">
        <ele>63.66796875</ele>
        <time>2026-04-20T09:12:05Z</time>
      </trkpt>
      <trkpt lat="52.32967559248209" lon="7.87657474167645">
        <ele>63.953125</ele>
        <time>2026-04-20T09:12:11Z</time>
      </trkpt>
      <trkpt lat="52.329435367137194" lon="7.876574909314513">
        <ele>61.96484375</ele>
        <time>2026-04-20T09:12:17Z</time>
      </trkpt>
      <trkpt lat="52.329182652756572" lon="7.876636600121856">
        <ele>60.22265625</ele>
        <time>2026-04-20T09:12:21Z</time>
      </trkpt>
      <trkpt lat="52.328952150419354" lon="7.8767931740731">
        <ele>58.7578125</ele>
        <time>2026-04-20T09:12:25Z</time>
      </trkpt>
      <trkpt lat="52.328765820711851" lon="7.876952094957233">
        <ele>58.8203125</ele>
        <time>2026-04-20T09:12:29Z</time>
      </trkpt>
      <trkpt lat="52.328567840158939" lon="7.877041194587946">
        <ele>58.51953125</ele>
        <time>2026-04-20T09:12:33Z</time>
      </trkpt>
      <trkpt lat="52.328370278701186" lon="7.877183435484767">
        <ele>58.21875</ele>
        <time>2026-04-20T09:12:37Z</time>
      </trkpt>
      <trkpt lat="52.328165844082832" lon="7.877276474609971">
        <ele>57.66796875</ele>
        <time>2026-04-20T09:12:41Z</time>
      </trkpt>
      <trkpt lat="52.327983118593693" lon="7.877384768798947">
        <ele>58.04296875</ele>
        <time>2026-04-20T09:12:45Z</time>
      </trkpt>
      <trkpt lat="52.327793687582016" lon="7.877495661377907">
        <ele>58.82421875</ele>
        <time>2026-04-20T09:12:49Z</time>
      </trkpt>
      <trkpt lat="52.327609118074179" lon="7.877604039385915">
        <ele>59.64453125</ele>
        <time>2026-04-20T09:12:53Z</time>
      </trkpt>
      <trkpt lat="52.327424800023437" lon="7.877713926136494">
        <ele>60.4921875</ele>
        <time>2026-04-20T09:12:57Z</time>
      </trkpt>
      <trkpt lat="52.327225226908922" lon="7.877852395176888">
        <ele>60.87109375</ele>
        <time>2026-04-20T09:13:01Z</time>
      </trkpt>
      <trkpt lat="52.327037388458848" lon="7.877953900024295">
        <ele>60.49609375</ele>
        <time>2026-04-20T09:13:05Z</time>
      </trkpt>
      <trkpt lat="52.326846700161695" lon="7.87806261330843">
        <ele>60.1796875</ele>
        <time>2026-04-20T09:13:09Z</time>
      </trkpt>
      <trkpt lat="52.326618460938334" lon="7.878185827285051">
        <ele>59.8671875</ele>
        <time>2026-04-20T09:13:15Z</time>
      </trkpt>
      <trkpt lat="52.326438082382083" lon="7.878273082897067">
        <ele>59.68359375</ele>
        <time>2026-04-20T09:13:19Z</time>
      </trkpt>
      <trkpt lat="52.326230211183429" lon="7.878344245254993">
        <ele>59.62890625</ele>
        <time>2026-04-20T09:13:23Z</time>
      </trkpt>
      <trkpt lat="52.325991578400135" lon="7.87840467877686">
        <ele>59.46484375</ele>
        <time>2026-04-20T09:13:27Z</time>
      </trkpt>
      <trkpt lat="52.325777588412166" lon="7.878465615212917">
        <ele>59.2421875</ele>
        <time>2026-04-20T09:13:31Z</time>
      </trkpt>
      <trkpt lat="52.325576841831207" lon="7.878507943823934">
        <ele>59.1328125</ele>
        <time>2026-04-20T09:13:35Z</time>
      </trkpt>
      <trkpt lat="52.325380621477962" lon="7.878550942987204">
        <ele>59.578125</ele>
        <time>2026-04-20T09:13:39Z</time>
      </trkpt>
      <trkpt lat="52.325192280113697" lon="7.878602324053645">
        <ele>60.06640625</ele>
        <time>2026-04-20T09:13:43Z</time>
      </trkpt>
      <trkpt lat="52.325014499947429" lon="7.878669630736113">
        <ele>60.5703125</ele>
        <time>2026-04-20T09:13:47Z</time>
      </trkpt>
      <trkpt lat="52.324834289029241" lon="7.878737272694707">
        <ele>61.11328125</ele>
        <time>2026-04-20T09:13:51Z</time>
      </trkpt>
      <trkpt lat="52.3246446903795" lon="7.878844058141112">
        <ele>61.54296875</ele>
        <time>2026-04-20T09:13:55Z</time>
      </trkpt>
      <trkpt lat="52.324468502774835" lon="7.878970457240939">
        <ele>61.90625</ele>
        <time>2026-04-20T09:13:59Z</time>
      </trkpt>
      <trkpt lat="52.324290974065661" lon="7.879125690087676">
        <ele>62.3046875</ele>
        <time>2026-04-20T09:14:03Z</time>
      </trkpt>
      <trkpt lat="52.324100621044636" lon="7.879295172169805">
        <ele>62.73828125</ele>
        <time>2026-04-20T09:14:07Z</time>
      </trkpt>
      <trkpt lat="52.323921248316765" lon="7.879475969821215">
        <ele>62.5390625</ele>
        <time>2026-04-20T09:14:11Z</time>
      </trkpt>
      <trkpt lat="52.32372896745801" lon="7.879644110798836">
        <ele>61.640625</ele>
        <time>2026-04-20T09:14:15Z</time>
      </trkpt>
      <trkpt lat="52.323517575860023" lon="7.879789704456925">
        <ele>60.9609375</ele>
        <time>2026-04-20T09:14:19Z</time>
      </trkpt>
      <trkpt lat="52.323312722146511" lon="7.879898669198155">
        <ele>60.52734375</ele>
        <time>2026-04-20T09:14:23Z</time>
      </trkpt>
      <trkpt lat="52.323114993050694" lon="7.879976201802492">
        <ele>60.2734375</ele>
        <time>2026-04-20T09:14:27Z</time>
      </trkpt>
      <trkpt lat="52.322927908971906" lon="7.880004113540053">
        <ele>60.53125</ele>
        <time>2026-04-20T09:14:31Z</time>
      </trkpt>
      <trkpt lat="52.322689360007644" lon="7.880082484334707">
        <ele>60.95703125</ele>
        <time>2026-04-20T09:14:37Z</time>
      </trkpt>
      <trkpt lat="52.322486517950892" lon="7.880358332768083">
        <ele>61.0390625</ele>
        <time>2026-04-20T09:14:43Z</time>
      </trkpt>
      <trkpt lat="52.322276216000319" lon="7.880286499857903">
        <ele>61.66015625</ele>
        <time>2026-04-20T09:14:47Z</time>
      </trkpt>
      <trkpt lat="52.32204370200634" lon="7.880268646404147">
        <ele>61.2109375</ele>
        <time>2026-04-20T09:14:51Z</time>
      </trkpt>
      <trkpt lat="52.32181940227747" lon="7.880205195397139">
        <ele>60.86328125</ele>
        <time>2026-04-20T09:14:55Z</time>
      </trkpt>
      <trkpt lat="52.321613291278481" lon="7.880149120464921">
        <ele>60.359375</ele>
        <time>2026-04-20T09:14:59Z</time>
      </trkpt>
      <trkpt lat="52.321420256048441" lon="7.880113162100315">
        <ele>60.08203125</ele>
        <time>2026-04-20T09:15:03Z</time>
      </trkpt>
      <trkpt lat="52.321227975189686" lon="7.880069660022855">
        <ele>60.54296875</ele>
        <time>2026-04-20T09:15:09Z</time>
      </trkpt>
      <trkpt lat="52.321110293269157" lon="7.879843348637223">
        <ele>60.82421875</ele>
        <time>2026-04-20T09:15:27Z</time>
      </trkpt>
      <trkpt lat="52.32088565826416" lon="7.87969222292304">
        <ele>61.3671875</ele>
        <time>2026-04-20T09:15:33Z</time>
      </trkpt>
      <trkpt lat="52.320642918348312" lon="7.879524668678641">
        <ele>61.94921875</ele>
        <time>2026-04-20T09:15:39Z</time>
      </trkpt>
      <trkpt lat="52.320424653589725" lon="7.879318138584495">
        <ele>62.79296875</ele>
        <time>2026-04-20T09:15:45Z</time>
      </trkpt>
      <trkpt lat="52.320230193436146" lon="7.879105992615223">
        <ele>64.015625</ele>
        <time>2026-04-20T09:15:51Z</time>
      </trkpt>
      <trkpt lat="52.320045540109277" lon="7.878904743120074">
        <ele>65.39453125</ele>
        <time>2026-04-20T09:15:57Z</time>
      </trkpt>
      <trkpt lat="52.319871112704277" lon="7.878682538866997">
        <ele>67</ele>
        <time>2026-04-20T09:16:03Z</time>
      </trkpt>
      <trkpt lat="52.319729961454868" lon="7.878459077328444">
        <ele>68.6484375</ele>
        <time>2026-04-20T09:16:09Z</time>
      </trkpt>
      <trkpt lat="52.319505913183093" lon="7.878319351002574">
        <ele>70.90234375</ele>
        <time>2026-04-20T09:16:17Z</time>
      </trkpt>
      <trkpt lat="52.319281361997128" lon="7.878206865862012">
        <ele>73.4140625</ele>
        <time>2026-04-20T09:16:23Z</time>
      </trkpt>
      <trkpt lat="52.319084219634533" lon="7.878092704340816">
        <ele>76.05078125</ele>
        <time>2026-04-20T09:16:29Z</time>
      </trkpt>
      <trkpt lat="52.318844329565763" lon="7.877996899187565">
        <ele>77.40234375</ele>
        <time>2026-04-20T09:16:35Z</time>
      </trkpt>
      <trkpt lat="52.318588765338063" lon="7.87788768298924">
        <ele>76.51171875</ele>
        <time>2026-04-20T09:16:41Z</time>
      </trkpt>
      <trkpt lat="52.318418277427554" lon="7.877775616943836">
        <ele>75.9921875</ele>
        <time>2026-04-20T09:16:45Z</time>
      </trkpt>
      <trkpt lat="52.318171178922057" lon="7.877688948065043">
        <ele>74.44140625</ele>
        <time>2026-04-20T09:16:51Z</time>
      </trkpt>
      <trkpt lat="52.317934473976493" lon="7.877525249496102">
        <ele>73.30859375</ele>
        <time>2026-04-20T09:16:57Z</time>
      </trkpt>
      <trkpt lat="52.317754933610559" lon="7.877444615587592">
        <ele>72.16796875</ele>
        <time>2026-04-20T09:17:01Z</time>
      </trkpt>
      <trkpt lat="52.317561479285359" lon="7.877374794334173">
        <ele>70.74609375</ele>
        <time>2026-04-20T09:17:05Z</time>
      </trkpt>
      <trkpt lat="52.317374311387539" lon="7.877302877604961">
        <ele>69.22265625</ele>
        <time>2026-04-20T09:17:09Z</time>
      </trkpt>
      <trkpt lat="52.317188652232289" lon="7.877215119078755">
        <ele>68.4375</ele>
        <time>2026-04-20T09:17:13Z</time>
      </trkpt>
      <trkpt lat="52.317007267847657" lon="7.877146890386939">
        <ele>68.44921875</ele>
        <time>2026-04-20T09:17:17Z</time>
      </trkpt>
      <trkpt lat="52.316822782158852" lon="7.877176478505135">
        <ele>68.515625</ele>
        <time>2026-04-20T09:17:21Z</time>
      </trkpt>
      <trkpt lat="52.316560931503773" lon="7.877334812656045">
        <ele>68.453125</ele>
        <time>2026-04-20T09:17:27Z</time>
      </trkpt>
      <trkpt lat="52.316392790526152" lon="7.877477472648025">
        <ele>68.421875</ele>
        <time>2026-04-20T09:17:31Z</time>
      </trkpt>
      <trkpt lat="52.316182991489768" lon="7.877612756565213">
        <ele>68.765625</ele>
        <time>2026-04-20T09:17:35Z</time>
      </trkpt>
      <trkpt lat="52.315967408940196" lon="7.877698922529817">
        <ele>69.1796875</ele>
        <time>2026-04-20T09:17:39Z</time>
      </trkpt>
      <trkpt lat="52.315776720643044" lon="7.877662545070052">
        <ele>69.6796875</ele>
        <time>2026-04-20T09:17:43Z</time>
      </trkpt>
      <trkpt lat="52.315659876912832" lon="7.87729156203568">
        <ele>70.40625</ele>
        <time>2026-04-20T09:17:49Z</time>
      </trkpt>
      <trkpt lat="52.315594665706158" lon="7.876960141584277">
        <ele>71</ele>
        <time>2026-04-20T09:17:53Z</time>
      </trkpt>
      <trkpt lat="52.315562898293138" lon="7.8766118735075">
        <ele>70.9140625</ele>
        <time>2026-04-20T09:17:57Z</time>
      </trkpt>
      <trkpt lat="52.315558791160583" lon="7.876255139708519">
        <ele>70.5</ele>
        <time>2026-04-20T09:18:01Z</time>
      </trkpt>
      <trkpt lat="52.315550828352571" lon="7.875913828611374">
        <ele>70.109375</ele>
        <time>2026-04-20T09:18:05Z</time>
      </trkpt>
      <trkpt lat="52.315513947978616" lon="7.875563213601708">
        <ele>69.7578125</ele>
        <time>2026-04-20T09:18:09Z</time>
      </trkpt>
      <trkpt lat="52.315502716228366" lon="7.875240845605731">
        <ele>69.34765625</ele>
        <time>2026-04-20T09:18:13Z</time>
      </trkpt>
      <trkpt lat="52.31546918861568" lon="7.874915795400739">
        <ele>69.24609375</ele>
        <time>2026-04-20T09:18:17Z</time>
      </trkpt>
      <trkpt lat="52.315442701801658" lon="7.874596109613776">
        <ele>69.1171875</ele>
        <time>2026-04-20T09:18:21Z</time>
      </trkpt>
      <trkpt lat="52.315418478101492" lon="7.874274915084243">
        <ele>68.859375</ele>
        <time>2026-04-20T09:18:25Z</time>
      </trkpt>
      <trkpt lat="52.315380927175283" lon="7.873876774683595">
        <ele>68.234375</ele>
        <time>2026-04-20T09:18:31Z</time>
      </trkpt>
      <trkpt lat="52.315358882769942" lon="7.873459020629525">
        <ele>67.7421875</ele>
        <time>2026-04-20T09:18:37Z</time>
      </trkpt>
      <trkpt lat="52.315358631312847" lon="7.873135898262262">
        <ele>68.0078125</ele>
        <time>2026-04-20T09:18:45Z</time>
      </trkpt>
      <trkpt lat="52.315236339345574" lon="7.872902797535062">
        <ele>67.94140625</ele>
        <time>2026-04-20T09:18:57Z</time>
      </trkpt>
      <trkpt lat="52.315049422904849" lon="7.872922830283642">
        <ele>67.5390625</ele>
        <time>2026-04-20T09:19:03Z</time>
      </trkpt>
      <trkpt lat="52.314893687143922" lon="7.872747229412198">
        <ele>67.23828125</ele>
        <time>2026-04-20T09:19:11Z</time>
      </trkpt>
      <trkpt lat="52.314826380461454" lon="7.872423436492682">
        <ele>67.0703125</ele>
        <time>2026-04-20T09:19:17Z</time>
      </trkpt>
      <trkpt lat="52.314743651077151" lon="7.872047508135438">
        <ele>67.05859375</ele>
        <time>2026-04-20T09:19:23Z</time>
      </trkpt>
      <trkpt lat="52.314595123752952" lon="7.871875343844295">
        <ele>67.234375</ele>
        <time>2026-04-20T09:19:31Z</time>
      </trkpt>
      <trkpt lat="52.314662849530578" lon="7.871754141524434">
        <ele>67.015625</ele>
        <time>2026-04-20T09:58:53Z</time>
      </trkpt>
      <trkpt lat="52.314705597236753" lon="7.872067540884018">
        <ele>67.1015625</ele>
        <time>2026-04-20T09:59:01Z</time>
      </trkpt>
      <trkpt lat="52.314875582233071" lon="7.87232025526464">
        <ele>67.15625</ele>
        <time>2026-04-20T09:59:09Z</time>
      </trkpt>
      <trkpt lat="52.314921179786325" lon="7.872638935223222">
        <ele>67.30078125</ele>
        <time>2026-04-20T09:59:17Z</time>
      </trkpt>
      <trkpt lat="52.315045148134232" lon="7.872837670147419">
        <ele>67.55859375</ele>
        <time>2026-04-20T09:59:31Z</time>
      </trkpt>
      <trkpt lat="52.315226951614022" lon="7.872888380661607">
        <ele>67.9296875</ele>
        <time>2026-04-20T09:59:39Z</time>
      </trkpt>
      <trkpt lat="52.315273638814688" lon="7.873194823041558">
        <ele>67.81640625</ele>
        <time>2026-04-20T09:59:45Z</time>
      </trkpt>
      <trkpt lat="52.315333904698491" lon="7.873537223786116">
        <ele>67.65234375</ele>
        <time>2026-04-20T09:59:51Z</time>
      </trkpt>
      <trkpt lat="52.31538319028914" lon="7.873945171013475">
        <ele>68.34375</ele>
        <time>2026-04-20T09:59:57Z</time>
      </trkpt>
      <trkpt lat="52.315415795892477" lon="7.874247590079904">
        <ele>68.81640625</ele>
        <time>2026-04-20T10:00:01Z</time>
      </trkpt>
      <trkpt lat="52.315441109240055" lon="7.874589571729302">
        <ele>69.1171875</ele>
        <time>2026-04-20T10:00:07Z</time>
      </trkpt>
      <trkpt lat="52.315478660166264" lon="7.87500724196434">
        <ele>69.26953125</ele>
        <time>2026-04-20T10:00:13Z</time>
      </trkpt>
      <trkpt lat="52.315502464771271" lon="7.875315444543958">
        <ele>69.44921875</ele>
        <time>2026-04-20T10:00:17Z</time>
      </trkpt>
      <trkpt lat="52.315521826967597" lon="7.875636387616396">
        <ele>69.83203125</ele>
        <time>2026-04-20T10:00:21Z</time>
      </trkpt>
      <trkpt lat="52.315539680421352" lon="7.87597275339067">
        <ele>70.22265625</ele>
        <time>2026-04-20T10:00:25Z</time>
      </trkpt>
      <trkpt lat="52.315547307953238" lon="7.876316159963608">
        <ele>70.6171875</ele>
        <time>2026-04-20T10:00:29Z</time>
      </trkpt>
      <trkpt lat="52.315557450056076" lon="7.876671301200986">
        <ele>71.0078125</ele>
        <time>2026-04-20T10:00:33Z</time>
      </trkpt>
      <trkpt lat="52.315605478361249" lon="7.877003308385611">
        <ele>70.91015625</ele>
        <time>2026-04-20T10:00:37Z</time>
      </trkpt>
      <trkpt lat="52.315646801143885" lon="7.877306314185262">
        <ele>70.41796875</ele>
        <time>2026-04-20T10:00:41Z</time>
      </trkpt>
      <trkpt lat="52.315705558285117" lon="7.877588197588921">
        <ele>69.94140625</ele>
        <time>2026-04-20T10:00:45Z</time>
      </trkpt>
      <trkpt lat="52.315947879105806" lon="7.877658437937498">
        <ele>69.2734375</ele>
        <time>2026-04-20T10:00:51Z</time>
      </trkpt>
      <trkpt lat="52.31614837422967" lon="7.877671848982573">
        <ele>68.77734375</ele>
        <time>2026-04-20T10:00:55Z</time>
      </trkpt>
      <trkpt lat="52.316341996192932" lon="7.877857759594917">
        <ele>68.25</ele>
        <time>2026-04-20T10:01:01Z</time>
      </trkpt>
      <trkpt lat="52.316342582926154" lon="7.878200663253665">
        <ele>68.19140625</ele>
        <time>2026-04-20T10:01:05Z</time>
      </trkpt>
      <trkpt lat="52.316302182152867" lon="7.878546584397554">
        <ele>68.1875</ele>
        <time>2026-04-20T10:01:09Z</time>
      </trkpt>
      <trkpt lat="52.31628617271781" lon="7.878880351781845">
        <ele>68.20703125</ele>
        <time>2026-04-20T10:01:13Z</time>
      </trkpt>
      <trkpt lat="52.316244095563889" lon="7.879216047003865">
        <ele>68.2578125</ele>
        <time>2026-04-20T10:01:17Z</time>
      </trkpt>
      <trkpt lat="52.31631307862699" lon="7.87951922044158">
        <ele>68.0546875</ele>
        <time>2026-04-20T10:01:21Z</time>
      </trkpt>
      <trkpt lat="52.316375775262713" lon="7.879842258989811">
        <ele>67.63671875</ele>
        <time>2026-04-20T10:01:25Z</time>
      </trkpt>
      <trkpt lat="52.316368818283081" lon="7.880175020545721">
        <ele>67.33984375</ele>
        <time>2026-04-20T10:01:29Z</time>
      </trkpt>
      <trkpt lat="52.316366219893098" lon="7.880525887012482">
        <ele>67.2421875</ele>
        <time>2026-04-20T10:01:33Z</time>
      </trkpt>
      <trkpt lat="52.316355910152197" lon="7.880868958309293">
        <ele>67.16796875</ele>
        <time>2026-04-20T10:01:37Z</time>
      </trkpt>
      <trkpt lat="52.316338308155537" lon="7.881233152002096">
        <ele>66.90234375</ele>
        <time>2026-04-20T10:01:41Z</time>
      </trkpt>
      <trkpt lat="52.316319029778242" lon="7.881624754518271">
        <ele>66.453125</ele>
        <time>2026-04-20T10:01:45Z</time>
      </trkpt>
      <trkpt lat="52.316345768049359" lon="7.882043682038784">
        <ele>65.9765625</ele>
        <time>2026-04-20T10:01:49Z</time>
      </trkpt>
      <trkpt lat="52.316380301490426" lon="7.882445426657796">
        <ele>65.5234375</ele>
        <time>2026-04-20T10:01:53Z</time>
      </trkpt>
      <trkpt lat="52.316426318138838" lon="7.882792605087161">
        <ele>64.99609375</ele>
        <time>2026-04-20T10:01:57Z</time>
      </trkpt>
      <trkpt lat="52.316466048359871" lon="7.883169203996658">
        <ele>64.42578125</ele>
        <time>2026-04-20T10:02:01Z</time>
      </trkpt>
      <trkpt lat="52.316515082493424" lon="7.883538845926523">
        <ele>63.91796875</ele>
        <time>2026-04-20T10:02:05Z</time>
      </trkpt>
      <trkpt lat="52.316548191010952" lon="7.883863225579262">
        <ele>63.4453125</ele>
        <time>2026-04-20T10:02:09Z</time>
      </trkpt>
      <trkpt lat="52.316600661724806" lon="7.884159609675407">
        <ele>62.94140625</ele>
        <time>2026-04-20T10:02:13Z</time>
      </trkpt>
      <trkpt lat="52.316636200994253" lon="7.884527156129479">
        <ele>62.61328125</ele>
        <time>2026-04-20T10:02:17Z</time>
      </trkpt>
      <trkpt lat="52.316683558747172" lon="7.884897887706757">
        <ele>62.6328125</ele>
        <time>2026-04-20T10:02:21Z</time>
      </trkpt>
      <trkpt lat="52.316724797710776" lon="7.885246658697724">
        <ele>62.6796875</ele>
        <time>2026-04-20T10:02:25Z</time>
      </trkpt>
      <trkpt lat="52.316745165735483" lon="7.885606158524752">
        <ele>62.65625</ele>
        <time>2026-04-20T10:02:29Z</time>
      </trkpt>
      <trkpt lat="52.316747680306435" lon="7.885968927294016">
        <ele>62.65234375</ele>
        <time>2026-04-20T10:02:33Z</time>
      </trkpt>
      <trkpt lat="52.31674793176353" lon="7.886309651657939">
        <ele>62.53515625</ele>
        <time>2026-04-20T10:02:37Z</time>
      </trkpt>
      <trkpt lat="52.316764276474714" lon="7.886685747653246">
        <ele>62.33984375</ele>
        <time>2026-04-20T10:02:41Z</time>
      </trkpt>
      <trkpt lat="52.316779363900423" lon="7.887038458138704">
        <ele>62.2265625</ele>
        <time>2026-04-20T10:02:45Z</time>
      </trkpt>
      <trkpt lat="52.316815489903092" lon="7.887486219406128">
        <ele>62.140625</ele>
        <time>2026-04-20T10:02:50Z</time>
      </trkpt>
      <trkpt lat="52.31683736667037" lon="7.887833062559366">
        <ele>62.0859375</ele>
        <time>2026-04-20T10:02:54Z</time>
      </trkpt>
      <trkpt lat="52.316851280629635" lon="7.888138834387064">
        <ele>62.0546875</ele>
        <time>2026-04-20T10:02:58Z</time>
      </trkpt>
      <trkpt lat="52.316817501559854" lon="7.888473523780704">
        <ele>62.13671875</ele>
        <time>2026-04-20T10:03:04Z</time>
      </trkpt>
      <trkpt lat="52.316970387473702" lon="7.888844925910235">
        <ele>61.76953125</ele>
        <time>2026-04-20T10:03:10Z</time>
      </trkpt>
      <trkpt lat="52.317098127678037" lon="7.889112643897533">
        <ele>61.4609375</ele>
        <time>2026-04-20T10:03:14Z</time>
      </trkpt>
      <trkpt lat="52.317222682759166" lon="7.889411794021726">
        <ele>61.10546875</ele>
        <time>2026-04-20T10:03:18Z</time>
      </trkpt>
      <trkpt lat="52.317352937534451" lon="7.889709183946252">
        <ele>60.35546875</ele>
        <time>2026-04-20T10:03:22Z</time>
      </trkpt>
      <trkpt lat="52.317485120147467" lon="7.89001495577395">
        <ele>59.51171875</ele>
        <time>2026-04-20T10:03:26Z</time>
      </trkpt>
      <trkpt lat="52.317611435428262" lon="7.890309579670429">
        <ele>58.8984375</ele>
        <time>2026-04-20T10:03:30Z</time>
      </trkpt>
      <trkpt lat="52.31774277985096" lon="7.890616105869412">
        <ele>58.64453125</ele>
        <time>2026-04-20T10:03:34Z</time>
      </trkpt>
      <trkpt lat="52.317881667986512" lon="7.890961105003953">
        <ele>58.5234375</ele>
        <time>2026-04-20T10:03:38Z</time>
      </trkpt>
      <trkpt lat="52.318033631891012" lon="7.891302835196257">
        <ele>58.1796875</ele>
        <time>2026-04-20T10:03:42Z</time>
      </trkpt>
      <trkpt lat="52.318176878616214" lon="7.891625789925456">
        <ele>58.06640625</ele>
        <time>2026-04-20T10:03:46Z</time>
      </trkpt>
      <trkpt lat="52.318307720124722" lon="7.891934495419264">
        <ele>58.33203125</ele>
        <time>2026-04-20T10:03:50Z</time>
      </trkpt>
      <trkpt lat="52.318432107567787" lon="7.892235405743122">
        <ele>58.9921875</ele>
        <time>2026-04-20T10:03:54Z</time>
      </trkpt>
      <trkpt lat="52.318561943247914" lon="7.892528772354126">
        <ele>59.7578125</ele>
        <time>2026-04-20T10:03:58Z</time>
      </trkpt>
      <trkpt lat="52.318685743957758" lon="7.892833957448602">
        <ele>60.0625</ele>
        <time>2026-04-20T10:04:02Z</time>
      </trkpt>
      <trkpt lat="52.318815495818853" lon="7.893135622143745">
        <ele>59.68359375</ele>
        <time>2026-04-20T10:04:06Z</time>
      </trkpt>
      <trkpt lat="52.318930746987462" lon="7.893417170271277">
        <ele>59.22265625</ele>
        <time>2026-04-20T10:04:10Z</time>
      </trkpt>
      <trkpt lat="52.319043567404151" lon="7.893685474991798">
        <ele>58.72265625</ele>
        <time>2026-04-20T10:04:14Z</time>
      </trkpt>
      <trkpt lat="52.319151442497969" lon="7.893925784155726">
        <ele>58.39453125</ele>
        <time>2026-04-20T10:04:18Z</time>
      </trkpt>
      <trkpt lat="52.319297539070249" lon="7.894278494641185">
        <ele>58.0546875</ele>
        <time>2026-04-20T10:04:24Z</time>
      </trkpt>
      <trkpt lat="52.319339783862233" lon="7.894649310037494">
        <ele>58.51171875</ele>
        <time>2026-04-20T10:04:30Z</time>
      </trkpt>
      <trkpt lat="52.319401390850544" lon="7.894928259775043">
        <ele>59.0546875</ele>
        <time>2026-04-20T10:04:34Z</time>
      </trkpt>
      <trkpt lat="52.319471882656217" lon="7.895222213119268">
        <ele>59.66796875</ele>
        <time>2026-04-20T10:04:38Z</time>
      </trkpt>
      <trkpt lat="52.319539021700621" lon="7.895513232797384">
        <ele>60.24609375</ele>
        <time>2026-04-20T10:04:42Z</time>
      </trkpt>
      <trkpt lat="52.319606831297278" lon="7.895788997411728">
        <ele>60.90625</ele>
        <time>2026-04-20T10:04:46Z</time>
      </trkpt>
      <trkpt lat="52.31966651044786" lon="7.89608764462173">
        <ele>61.40234375</ele>
        <time>2026-04-20T10:04:50Z</time>
      </trkpt>
      <trkpt lat="52.31972711160779" lon="7.896401714533567">
        <ele>60.8671875</ele>
        <time>2026-04-20T10:04:54Z</time>
      </trkpt>
      <trkpt lat="52.319795172661543" lon="7.896731207147241">
        <ele>60.34765625</ele>
        <time>2026-04-20T10:04:58Z</time>
      </trkpt>
      <trkpt lat="52.319863066077232" lon="7.897045444697142">
        <ele>60.43359375</ele>
        <time>2026-04-20T10:05:02Z</time>
      </trkpt>
      <trkpt lat="52.319923751056194" lon="7.897348534315825">
        <ele>60.4921875</ele>
        <time>2026-04-20T10:05:06Z</time>
      </trkpt>
      <trkpt lat="52.319991057738662" lon="7.897663274779916">
        <ele>60.27734375</ele>
        <time>2026-04-20T10:05:10Z</time>
      </trkpt>
      <trkpt lat="52.320010922849178" lon="7.897963849827647">
        <ele>60.265625</ele>
        <time>2026-04-20T10:05:14Z</time>
      </trkpt>
      <trkpt lat="52.319894079118967" lon="7.898366767913103">
        <ele>60.125</ele>
        <time>2026-04-20T10:05:20Z</time>
      </trkpt>
      <trkpt lat="52.319849403575063" lon="7.898649740964174">
        <ele>60.3828125</ele>
        <time>2026-04-20T10:05:24Z</time>
      </trkpt>
      <trkpt lat="52.319860300049186" lon="7.898975880816579">
        <ele>61.1796875</ele>
        <time>2026-04-20T10:05:28Z</time>
      </trkpt>
      <trkpt lat="52.319902880117297" lon="7.899415343999863">
        <ele>62.33984375</ele>
        <time>2026-04-20T10:05:34Z</time>
      </trkpt>
      <trkpt lat="52.319898521527648" lon="7.899737041443586">
        <ele>63.390625</ele>
        <time>2026-04-20T10:05:38Z</time>
      </trkpt>
      <trkpt lat="52.319881590083241" lon="7.900080028921366">
        <ele>64.53515625</ele>
        <time>2026-04-20T10:05:42Z</time>
      </trkpt>
      <trkpt lat="52.319775810465217" lon="7.90039686486125">
        <ele>65.05078125</ele>
        <time>2026-04-20T10:05:46Z</time>
      </trkpt>
      <trkpt lat="52.319620996713638" lon="7.900629630312324">
        <ele>65.7109375</ele>
        <time>2026-04-20T10:05:50Z</time>
      </trkpt>
      <trkpt lat="52.319470960646868" lon="7.900858959183097">
        <ele>66.453125</ele>
        <time>2026-04-20T10:05:54Z</time>
      </trkpt>
      <trkpt lat="52.319338610395789" lon="7.901093317195773">
        <ele>66.75</ele>
        <time>2026-04-20T10:05:58Z</time>
      </trkpt>
      <trkpt lat="52.319186059758067" lon="7.901333207264543">
        <ele>65.9453125</ele>
        <time>2026-04-20T10:06:02Z</time>
      </trkpt>
      <trkpt lat="52.319036358967423" lon="7.901556752622128">
        <ele>64.9296875</ele>
        <time>2026-04-20T10:06:06Z</time>
      </trkpt>
      <trkpt lat="52.318895878270268" lon="7.901787757873535">
        <ele>63.93359375</ele>
        <time>2026-04-20T10:06:10Z</time>
      </trkpt>
      <trkpt lat="52.3187664616853" lon="7.902017757296562">
        <ele>64.1484375</ele>
        <time>2026-04-20T10:06:14Z</time>
      </trkpt>
      <trkpt lat="52.318624891340733" lon="7.902224035933614">
        <ele>64.7109375</ele>
        <time>2026-04-20T10:06:18Z</time>
      </trkpt>
      <trkpt lat="52.318467479199171" lon="7.902540368959308">
        <ele>64.96875</ele>
        <time>2026-04-20T10:06:24Z</time>
      </trkpt>
      <trkpt lat="52.318330518901348" lon="7.902743127197027">
        <ele>65.5390625</ele>
        <time>2026-04-20T10:06:30Z</time>
      </trkpt>
      <trkpt lat="52.318282825872302" lon="7.90303205139935">
        <ele>66.0078125</ele>
        <time>2026-04-20T10:06:38Z</time>
      </trkpt>
      <trkpt lat="52.318206299096346" lon="7.903381995856762">
        <ele>66.56640625</ele>
        <time>2026-04-20T10:06:46Z</time>
      </trkpt>
      <trkpt lat="52.318139830604196" lon="7.90380067192018">
        <ele>66.9453125</ele>
        <time>2026-04-20T10:06:52Z</time>
      </trkpt>
      <trkpt lat="52.318102698773146" lon="7.904169475659728">
        <ele>66.890625</ele>
        <time>2026-04-20T10:06:56Z</time>
      </trkpt>
      <trkpt lat="52.318081995472312" lon="7.90455169044435">
        <ele>65.91015625</ele>
        <time>2026-04-20T10:07:00Z</time>
      </trkpt>
      <trkpt lat="52.318033799529076" lon="7.904856875538826">
        <ele>64.53125</ele>
        <time>2026-04-20T10:07:04Z</time>
      </trkpt>
      <trkpt lat="52.317977305501699" lon="7.905243365094066">
        <ele>63.328125</ele>
        <time>2026-04-20T10:07:10Z</time>
      </trkpt>
      <trkpt lat="52.317941933870316" lon="7.905599679797888">
        <ele>63.37109375</ele>
        <time>2026-04-20T10:07:16Z</time>
      </trkpt>
      <trkpt lat="52.317935647442937" lon="7.905966807156801">
        <ele>63.35546875</ele>
        <time>2026-04-20T10:07:26Z</time>
      </trkpt>
      <trkpt lat="52.317855600267649" lon="7.906344244256616">
        <ele>65.48828125</ele>
        <time>2026-04-20T10:07:34Z</time>
      </trkpt>
      <trkpt lat="52.317823749035597" lon="7.906750682741404">
        <ele>67.75</ele>
        <time>2026-04-20T10:07:40Z</time>
      </trkpt>
      <trkpt lat="52.317802459001541" lon="7.907069614157081">
        <ele>69.0546875</ele>
        <time>2026-04-20T10:07:44Z</time>
      </trkpt>
      <trkpt lat="52.317778319120407" lon="7.907397095113993">
        <ele>70.15234375</ele>
        <time>2026-04-20T10:07:50Z</time>
      </trkpt>
      <trkpt lat="52.317746048793197" lon="7.907698089256883">
        <ele>71.171875</ele>
        <time>2026-04-20T10:07:56Z</time>
      </trkpt>
      <trkpt lat="52.317703552544117" lon="7.908020038157702">
        <ele>71.5234375</ele>
        <time>2026-04-20T10:08:00Z</time>
      </trkpt>
      <trkpt lat="52.317660050466657" lon="7.908365707844496">
        <ele>71.80078125</ele>
        <time>2026-04-20T10:08:04Z</time>
      </trkpt>
      <trkpt lat="52.317620739340782" lon="7.908744569867849">
        <ele>72.0703125</ele>
        <time>2026-04-20T10:08:08Z</time>
      </trkpt>
      <trkpt lat="52.317578578367829" lon="7.909113122150302">
        <ele>72.48828125</ele>
        <time>2026-04-20T10:08:12Z</time>
      </trkpt>
      <trkpt lat="52.317556031048298" lon="7.909488128498197">
        <ele>72.48046875</ele>
        <time>2026-04-20T10:08:16Z</time>
      </trkpt>
      <trkpt lat="52.317540356889367" lon="7.909821476787329">
        <ele>71.9296875</ele>
        <time>2026-04-20T10:08:20Z</time>
      </trkpt>
      <trkpt lat="52.317499537020922" lon="7.910149209201336">
        <ele>71.55859375</ele>
        <time>2026-04-20T10:08:24Z</time>
      </trkpt>
      <trkpt lat="52.317463830113411" lon="7.910494208335877">
        <ele>71.23046875</ele>
        <time>2026-04-20T10:08:28Z</time>
      </trkpt>
      <trkpt lat="52.3174212500453" lon="7.910823533311486">
        <ele>70.875</ele>
        <time>2026-04-20T10:08:32Z</time>
      </trkpt>
      <trkpt lat="52.317388141527772" lon="7.911163000389934">
        <ele>70.4453125</ele>
        <time>2026-04-20T10:08:36Z</time>
      </trkpt>
      <trkpt lat="52.317343801259995" lon="7.911477237939835">
        <ele>70.21484375</ele>
        <time>2026-04-20T10:08:40Z</time>
      </trkpt>
      <trkpt lat="52.317290408536792" lon="7.911804299801588">
        <ele>70.05078125</ele>
        <time>2026-04-20T10:08:44Z</time>
      </trkpt>
      <trkpt lat="52.31724925339222" lon="7.91211074218154">
        <ele>69.84375</ele>
        <time>2026-04-20T10:08:48Z</time>
      </trkpt>
      <trkpt lat="52.317206338047981" lon="7.912419112399221">
        <ele>69.68359375</ele>
        <time>2026-04-20T10:08:52Z</time>
      </trkpt>
      <trkpt lat="52.317161411046982" lon="7.912732008844614">
        <ele>69.6640625</ele>
        <time>2026-04-20T10:08:56Z</time>
      </trkpt>
      <trkpt lat="52.317126793786883" lon="7.91305772960186">
        <ele>70.0625</ele>
        <time>2026-04-20T10:09:00Z</time>
      </trkpt>
      <trkpt lat="52.317099468782544" lon="7.913368530571461">
        <ele>70.36328125</ele>
        <time>2026-04-20T10:09:04Z</time>
      </trkpt>
      <trkpt lat="52.317084548994899" lon="7.913663322106004">
        <ele>70.17578125</ele>
        <time>2026-04-20T10:09:08Z</time>
      </trkpt>
      <trkpt lat="52.317031407728791" lon="7.913955934345722">
        <ele>69.58984375</ele>
        <time>2026-04-20T10:09:12Z</time>
      </trkpt>
      <trkpt lat="52.316973572596908" lon="7.914278889074922">
        <ele>68.7890625</ele>
        <time>2026-04-20T10:09:16Z</time>
      </trkpt>
      <trkpt lat="52.316929316148162" lon="7.914607627317309">
        <ele>67.83984375</ele>
        <time>2026-04-20T10:09:20Z</time>
      </trkpt>
      <trkpt lat="52.316887909546494" lon="7.914917254820466">
        <ele>66.83203125</ele>
        <time>2026-04-20T10:09:24Z</time>
      </trkpt>
      <trkpt lat="52.316846838220954" lon="7.915208106860519">
        <ele>65.90625</ele>
        <time>2026-04-20T10:09:28Z</time>
      </trkpt>
      <trkpt lat="52.316798139363527" lon="7.915641954168677">
        <ele>66.1953125</ele>
        <time>2026-04-20T10:09:34Z</time>
      </trkpt>
      <trkpt lat="52.316758576780558" lon="7.915928699076176">
        <ele>66.34765625</ele>
        <time>2026-04-20T10:09:38Z</time>
      </trkpt>
      <trkpt lat="52.316704848781228" lon="7.916358690708876">
        <ele>67.90625</ele>
        <time>2026-04-20T10:09:44Z</time>
      </trkpt>
      <trkpt lat="52.316655647009611" lon="7.916783737018704">
        <ele>69.93359375</ele>
        <time>2026-04-20T10:09:50Z</time>
      </trkpt>
      <trkpt lat="52.316603930667043" lon="7.917196545749903">
        <ele>72.44921875</ele>
        <time>2026-04-20T10:09:56Z</time>
      </trkpt>
      <trkpt lat="52.316569061949849" lon="7.917580017820001">
        <ele>74.796875</ele>
        <time>2026-04-20T10:10:02Z</time>
      </trkpt>
      <trkpt lat="52.316525978967547" lon="7.917953012511134">
        <ele>75.69140625</ele>
        <time>2026-04-20T10:10:08Z</time>
      </trkpt>
      <trkpt lat="52.316494965925813" lon="7.918383339419961">
        <ele>76.140625</ele>
        <time>2026-04-20T10:10:14Z</time>
      </trkpt>
      <trkpt lat="52.316425899043679" lon="7.918662121519446">
        <ele>75.0390625</ele>
        <time>2026-04-20T10:10:18Z</time>
      </trkpt>
      <trkpt lat="52.316386252641678" lon="7.918964792042971">
        <ele>73.4921875</ele>
        <time>2026-04-20T10:10:22Z</time>
      </trkpt>
      <trkpt lat="52.31634627096355" lon="7.919280789792538">
        <ele>72.1015625</ele>
        <time>2026-04-20T10:10:26Z</time>
      </trkpt>
      <trkpt lat="52.316293297335505" lon="7.919571474194527">
        <ele>71.25</ele>
        <time>2026-04-20T10:10:30Z</time>
      </trkpt>
      <trkpt lat="52.316211489960551" lon="7.91987213306129">
        <ele>70.4296875</ele>
        <time>2026-04-20T10:10:34Z</time>
      </trkpt>
      <trkpt lat="52.316122809424996" lon="7.920175390318036">
        <ele>69.59765625</ele>
        <time>2026-04-20T10:10:38Z</time>
      </trkpt>
      <trkpt lat="52.316041337326169" lon="7.920477222651243">
        <ele>69.68359375</ele>
        <time>2026-04-20T10:10:42Z</time>
      </trkpt>
      <trkpt lat="52.315961793065071" lon="7.920781821012497">
        <ele>69.5625</ele>
        <time>2026-04-20T10:10:46Z</time>
      </trkpt>
      <trkpt lat="52.315874537453055" lon="7.921092873439193">
        <ele>69.3046875</ele>
        <time>2026-04-20T10:10:50Z</time>
      </trkpt>
      <trkpt lat="52.31578535400331" lon="7.921412140130997">
        <ele>69.2578125</ele>
        <time>2026-04-20T10:10:54Z</time>
      </trkpt>
      <trkpt lat="52.315700529143214" lon="7.921724701300263">
        <ele>69.2265625</ele>
        <time>2026-04-20T10:10:58Z</time>
      </trkpt>
      <trkpt lat="52.315631797537208" lon="7.922048913314939">
        <ele>69.03125</ele>
        <time>2026-04-20T10:11:02Z</time>
      </trkpt>
      <trkpt lat="52.315544290468097" lon="7.922379244118929">
        <ele>68.83984375</ele>
        <time>2026-04-20T10:11:06Z</time>
      </trkpt>
      <trkpt lat="52.315464578568935" lon="7.922705970704556">
        <ele>68.640625</ele>
        <time>2026-04-20T10:11:10Z</time>
      </trkpt>
      <trkpt lat="52.315374137833714" lon="7.923005037009716">
        <ele>68.7578125</ele>
        <time>2026-04-20T10:11:14Z</time>
      </trkpt>
      <trkpt lat="52.31530113145709" lon="7.923337463289499">
        <ele>69.15234375</ele>
        <time>2026-04-20T10:11:18Z</time>
      </trkpt>
      <trkpt lat="52.315235501155257" lon="7.923706769943237">
        <ele>68.83984375</ele>
        <time>2026-04-20T10:11:22Z</time>
      </trkpt>
      <trkpt lat="52.31515645980835" lon="7.924071298912168">
        <ele>67.98828125</ele>
        <time>2026-04-20T10:11:26Z</time>
      </trkpt>
      <trkpt lat="52.315035844221711" lon="7.924414537847042">
        <ele>67.578125</ele>
        <time>2026-04-20T10:11:30Z</time>
      </trkpt>
      <trkpt lat="52.314921012148261" lon="7.924679405987263">
        <ele>67.21484375</ele>
        <time>2026-04-20T10:11:38Z</time>
      </trkpt>
      <trkpt lat="52.314839707687497" lon="7.924954416230321">
        <ele>66.59375</ele>
        <time>2026-04-20T10:12:46Z</time>
      </trkpt>
      <trkpt lat="52.314711799845099" lon="7.925312574952841">
        <ele>65.88671875</ele>
        <time>2026-04-20T10:12:52Z</time>
      </trkpt>
      <trkpt lat="52.314572744071484" lon="7.92565262876451">
        <ele>65.671875</ele>
        <time>2026-04-20T10:12:58Z</time>
      </trkpt>
      <trkpt lat="52.314417595043778" lon="7.926011625677347">
        <ele>65.77734375</ele>
        <time>2026-04-20T10:13:04Z</time>
      </trkpt>
      <trkpt lat="52.314250040799379" lon="7.926341872662306">
        <ele>65.7890625</ele>
        <time>2026-04-20T10:13:10Z</time>
      </trkpt>
      <trkpt lat="52.314079217612743" lon="7.926665665581822">
        <ele>65.83203125</ele>
        <time>2026-04-20T10:13:16Z</time>
      </trkpt>
      <trkpt lat="52.313974779099226" lon="7.926913350820541">
        <ele>65.83203125</ele>
        <time>2026-04-20T10:13:20Z</time>
      </trkpt>
      <trkpt lat="52.313848631456494" lon="7.927164305001497">
        <ele>65.953125</ele>
        <time>2026-04-20T10:13:24Z</time>
      </trkpt>
      <trkpt lat="52.313694320619106" lon="7.927425149828196">
        <ele>66.0234375</ele>
        <time>2026-04-20T10:13:28Z</time>
      </trkpt>
      <trkpt lat="52.313512349501252" lon="7.927707703784108">
        <ele>66.00390625</ele>
        <time>2026-04-20T10:13:32Z</time>
      </trkpt>
      <trkpt lat="52.313307831063867" lon="7.927934098988771">
        <ele>65.99609375</ele>
        <time>2026-04-20T10:13:36Z</time>
      </trkpt>
      <trkpt lat="52.313118651509285" lon="7.928112968802452">
        <ele>65.95703125</ele>
        <time>2026-04-20T10:13:46Z</time>
      </trkpt>
      <trkpt lat="52.313052099198103" lon="7.928412705659866">
        <ele>65.40234375</ele>
        <time>2026-04-20T10:13:50Z</time>
      </trkpt>
      <trkpt lat="52.312980098649859" lon="7.928775977343321">
        <ele>64.30859375</ele>
        <time>2026-04-20T10:13:54Z</time>
      </trkpt>
      <trkpt lat="52.312888149172068" lon="7.929185600951314">
        <ele>62.875</ele>
        <time>2026-04-20T10:13:58Z</time>
      </trkpt>
      <trkpt lat="52.312806509435177" lon="7.929574185982347">
        <ele>62.09765625</ele>
        <time>2026-04-20T10:14:02Z</time>
      </trkpt>
      <trkpt lat="52.312727719545364" lon="7.929951455444098">
        <ele>61.73828125</ele>
        <time>2026-04-20T10:14:06Z</time>
      </trkpt>
      <trkpt lat="52.312676087021828" lon="7.930337358266115">
        <ele>61.4296875</ele>
        <time>2026-04-20T10:14:10Z</time>
      </trkpt>
      <trkpt lat="52.312609199434519" lon="7.930708006024361">
        <ele>61.21875</ele>
        <time>2026-04-20T10:14:14Z</time>
      </trkpt>
      <trkpt lat="52.312561757862568" lon="7.931087706238031">
        <ele>60.9296875</ele>
        <time>2026-04-20T10:14:18Z</time>
      </trkpt>
      <trkpt lat="52.31250274926424" lon="7.931468412280083">
        <ele>60.578125</ele>
        <time>2026-04-20T10:14:22Z</time>
      </trkpt>
      <trkpt lat="52.312457822263241" lon="7.931854231283069">
        <ele>60.16796875</ele>
        <time>2026-04-20T10:14:26Z</time>
      </trkpt>
      <trkpt lat="52.312408871948719" lon="7.93223979882896">
        <ele>59.58203125</ele>
        <time>2026-04-20T10:14:30Z</time>
      </trkpt>
      <trkpt lat="52.312360927462578" lon="7.932614888995886">
        <ele>59.06640625</ele>
        <time>2026-04-20T10:14:34Z</time>
      </trkpt>
      <trkpt lat="52.312311725690961" lon="7.932993499562144">
        <ele>58.9921875</ele>
        <time>2026-04-20T10:14:38Z</time>
      </trkpt>
      <trkpt lat="52.312260931357741" lon="7.93338761664927">
        <ele>59.109375</ele>
        <time>2026-04-20T10:14:42Z</time>
      </trkpt>
      <trkpt lat="52.312221955507994" lon="7.933763796463609">
        <ele>58.9140625</ele>
        <time>2026-04-20T10:14:46Z</time>
      </trkpt>
      <trkpt lat="52.31222664937377" lon="7.934134528040886">
        <ele>58.41796875</ele>
        <time>2026-04-20T10:14:50Z</time>
      </trkpt>
      <trkpt lat="52.312245592474937" lon="7.934509282931685">
        <ele>58.1015625</ele>
        <time>2026-04-20T10:14:54Z</time>
      </trkpt>
      <trkpt lat="52.312272749841213" lon="7.934875739738345">
        <ele>58.03125</ele>
        <time>2026-04-20T10:14:58Z</time>
      </trkpt>
      <trkpt lat="52.312295380979776" lon="7.935234652832151">
        <ele>58.08203125</ele>
        <time>2026-04-20T10:15:02Z</time>
      </trkpt>
      <trkpt lat="52.312327399849892" lon="7.935603959485889">
        <ele>58.484375</ele>
        <time>2026-04-20T10:15:06Z</time>
      </trkpt>
      <trkpt lat="52.31234785169363" lon="7.935963962227106">
        <ele>58.83203125</ele>
        <time>2026-04-20T10:15:10Z</time>
      </trkpt>
      <trkpt lat="52.312385821714997" lon="7.936297981068492">
        <ele>58.77734375</ele>
        <time>2026-04-20T10:15:14Z</time>
      </trkpt>
      <trkpt lat="52.312397221103311" lon="7.936676843091846">
        <ele>58.75</ele>
        <time>2026-04-20T10:15:18Z</time>
      </trkpt>
      <trkpt lat="52.312388168647885" lon="7.937033576890826">
        <ele>58.3125</ele>
        <time>2026-04-20T10:15:22Z</time>
      </trkpt>
      <trkpt lat="52.312377188354731" lon="7.937393914908171">
        <ele>57.515625</ele>
        <time>2026-04-20T10:15:26Z</time>
      </trkpt>
      <trkpt lat="52.312389677390456" lon="7.937738997861743">
        <ele>56.8828125</ele>
        <time>2026-04-20T10:15:30Z</time>
      </trkpt>
      <trkpt lat="52.312471652403474" lon="7.938045943155885">
        <ele>56.78515625</ele>
        <time>2026-04-20T10:15:34Z</time>
      </trkpt>
      <trkpt lat="52.31259704567492" lon="7.938363868743181">
        <ele>56.63671875</ele>
        <time>2026-04-20T10:15:38Z</time>
      </trkpt>
      <trkpt lat="52.312718331813812" lon="7.938654972240329">
        <ele>56.875</ele>
        <time>2026-04-20T10:15:42Z</time>
      </trkpt>
      <trkpt lat="52.312835929915309" lon="7.938934592530131">
        <ele>57.55859375</ele>
        <time>2026-04-20T10:15:46Z</time>
      </trkpt>
      <trkpt lat="52.312934752553701" lon="7.939201137050986">
        <ele>58.37890625</ele>
        <time>2026-04-20T10:15:50Z</time>
      </trkpt>
      <trkpt lat="52.313026869669557" lon="7.93946323916316">
        <ele>59.1640625</ele>
        <time>2026-04-20T10:15:54Z</time>
      </trkpt>
      <trkpt lat="52.313163662329316" lon="7.9398238286376">
        <ele>60.09765625</ele>
        <time>2026-04-20T10:16:00Z</time>
      </trkpt>
      <trkpt lat="52.313289307057858" lon="7.940186765044928">
        <ele>60.625</ele>
        <time>2026-04-20T10:16:06Z</time>
      </trkpt>
      <trkpt lat="52.31340179219842" lon="7.940516006201506">
        <ele>60.76171875</ele>
        <time>2026-04-20T10:16:12Z</time>
      </trkpt>
      <trkpt lat="52.313567167147994" lon="7.940833261236548">
        <ele>61.22265625</ele>
        <time>2026-04-20T10:16:18Z</time>
      </trkpt>
      <trkpt lat="52.313712509348989" lon="7.941091591492295">
        <ele>61.66796875</ele>
        <time>2026-04-20T10:16:22Z</time>
      </trkpt>
      <trkpt lat="52.313828514888883" lon="7.941450672224164">
        <ele>61.7578125</ele>
        <time>2026-04-20T10:16:26Z</time>
      </trkpt>
      <trkpt lat="52.313848882913589" lon="7.94187999330461">
        <ele>61.51171875</ele>
        <time>2026-04-20T10:16:30Z</time>
      </trkpt>
      <trkpt lat="52.31377026066184" lon="7.94228601269424">
        <ele>59.71875</ele>
        <time>2026-04-20T10:16:34Z</time>
      </trkpt>
      <trkpt lat="52.313620308414102" lon="7.942624306306243">
        <ele>58.52734375</ele>
        <time>2026-04-20T10:16:38Z</time>
      </trkpt>
      <trkpt lat="52.313480582088232" lon="7.942910464480519">
        <ele>57.67578125</ele>
        <time>2026-04-20T10:16:42Z</time>
      </trkpt>
      <trkpt lat="52.313334988430142" lon="7.943195533007383">
        <ele>56.8203125</ele>
        <time>2026-04-20T10:16:46Z</time>
      </trkpt>
      <trkpt lat="52.313202638179064" lon="7.943492084741592">
        <ele>55.9140625</ele>
        <time>2026-04-20T10:16:50Z</time>
      </trkpt>
      <trkpt lat="52.313088560476899" lon="7.943779835477471">
        <ele>55.69921875</ele>
        <time>2026-04-20T10:16:54Z</time>
      </trkpt>
      <trkpt lat="52.312970459461212" lon="7.944051576778293">
        <ele>55.515625</ele>
        <time>2026-04-20T10:16:58Z</time>
      </trkpt>
      <trkpt lat="52.312858309596777" lon="7.944352319464088">
        <ele>55.4140625</ele>
        <time>2026-04-20T10:17:02Z</time>
      </trkpt>
      <trkpt lat="52.312745992094278" lon="7.944711651653051">
        <ele>56.84375</ele>
        <time>2026-04-20T10:17:06Z</time>
      </trkpt>
      <trkpt lat="52.312677931040525" lon="7.945092190057039">
        <ele>58.296875</ele>
        <time>2026-04-20T10:17:10Z</time>
      </trkpt>
      <trkpt lat="52.31260241009295" lon="7.945458311587572">
        <ele>59.44140625</ele>
        <time>2026-04-20T10:17:14Z</time>
      </trkpt>
      <trkpt lat="52.312565948814154" lon="7.945815213024616">
        <ele>60.51953125</ele>
        <time>2026-04-20T10:17:18Z</time>
      </trkpt>
      <trkpt lat="52.312545580789447" lon="7.946146633476019">
        <ele>61.4609375</ele>
        <time>2026-04-20T10:17:22Z</time>
      </trkpt>
      <trkpt lat="52.312525967136025" lon="7.946462212130427">
        <ele>62.2890625</ele>
        <time>2026-04-20T10:17:26Z</time>
      </trkpt>
      <trkpt lat="52.312456564977765" lon="7.946752225980163">
        <ele>63.23828125</ele>
        <time>2026-04-20T10:17:30Z</time>
      </trkpt>
      <trkpt lat="52.31236444786191" lon="7.947018435224891">
        <ele>63.8046875</ele>
        <time>2026-04-20T10:17:36Z</time>
      </trkpt>
      <trkpt lat="52.312344582751393" lon="7.94733602553606">
        <ele>63.9296875</ele>
        <time>2026-04-20T10:17:48Z</time>
      </trkpt>
      <trkpt lat="52.312344079837203" lon="7.947624363005161">
        <ele>63.9921875</ele>
        <time>2026-04-20T10:17:54Z</time>
      </trkpt>
      <trkpt lat="52.312318598851562" lon="7.947953771799803">
        <ele>63.67578125</ele>
        <time>2026-04-20T10:18:00Z</time>
      </trkpt>
      <trkpt lat="52.312319101765752" lon="7.948288628831506">
        <ele>63.3125</ele>
        <time>2026-04-20T10:18:06Z</time>
      </trkpt>
      <trkpt lat="52.312279539182782" lon="7.94863723218441">
        <ele>63.20703125</ele>
        <time>2026-04-20T10:18:12Z</time>
      </trkpt>
      <trkpt lat="52.312285909429193" lon="7.948980135843158">
        <ele>63.6015625</ele>
        <time>2026-04-20T10:18:18Z</time>
      </trkpt>
      <trkpt lat="52.312310049310327" lon="7.949316836893559">
        <ele>64.09375</ele>
        <time>2026-04-20T10:18:24Z</time>
      </trkpt>
      <trkpt lat="52.31236252002418" lon="7.949636522680521">
        <ele>65.640625</ele>
        <time>2026-04-20T10:18:30Z</time>
      </trkpt>
      <trkpt lat="52.312430748715997" lon="7.94997070915997">
        <ele>67.54296875</ele>
        <time>2026-04-20T10:18:36Z</time>
      </trkpt>
      <trkpt lat="52.312482548877597" lon="7.950321743264794">
        <ele>69.0625</ele>
        <time>2026-04-20T10:18:42Z</time>
      </trkpt>
      <trkpt lat="52.312551951035857" lon="7.950681997463107">
        <ele>70.3125</ele>
        <time>2026-04-20T10:18:48Z</time>
      </trkpt>
      <trkpt lat="52.312588831409812" lon="7.95098215341568">
        <ele>71.18359375</ele>
        <time>2026-04-20T10:18:54Z</time>
      </trkpt>
      <trkpt lat="52.312648007646203" lon="7.951462855562568">
        <ele>71.59375</ele>
        <time>2026-04-20T10:19:00Z</time>
      </trkpt>
      <trkpt lat="52.312599727883935" lon="7.951748175546527">
        <ele>70.9765625</ele>
        <time>2026-04-20T10:19:02Z</time>
      </trkpt>
      <trkpt lat="52.312756637111306" lon="7.951925871893764">
        <ele>72.453125</ele>
        <time>2026-04-20T10:19:08Z</time>
      </trkpt>
      <trkpt lat="52.312817070633173" lon="7.952278833836317">
        <ele>73.03125</ele>
        <time>2026-04-20T10:19:14Z</time>
      </trkpt>
      <trkpt lat="52.312861746177077" lon="7.952597010880709">
        <ele>73.4609375</ele>
        <time>2026-04-20T10:19:20Z</time>
      </trkpt>
      <trkpt lat="52.312907008454204" lon="7.952908733859658">
        <ele>73.9765625</ele>
        <time>2026-04-20T10:19:26Z</time>
      </trkpt>
      <trkpt lat="52.31297180056572" lon="7.953271251171827">
        <ele>74.65625</ele>
        <time>2026-04-20T10:19:34Z</time>
      </trkpt>
      <trkpt lat="52.313024019822478" lon="7.953627398237586">
        <ele>75.2265625</ele>
        <time>2026-04-20T10:19:42Z</time>
      </trkpt>
      <trkpt lat="52.313086800277233" lon="7.953962422907352">
        <ele>75.77734375</ele>
        <time>2026-04-20T10:19:50Z</time>
      </trkpt>
      <trkpt lat="52.313151089474559" lon="7.954328628256917">
        <ele>76.0703125</ele>
        <time>2026-04-20T10:19:58Z</time>
      </trkpt>
      <trkpt lat="52.313209427520633" lon="7.954669268801808">
        <ele>76.578125</ele>
        <time>2026-04-20T10:20:06Z</time>
      </trkpt>
      <trkpt lat="52.313253013417125" lon="7.954954840242863">
        <ele>76.94921875</ele>
        <time>2026-04-20T10:20:12Z</time>
      </trkpt>
      <trkpt lat="52.313306070864201" lon="7.955321883782744">
        <ele>78.02734375</ele>
        <time>2026-04-20T10:20:20Z</time>
      </trkpt>
      <trkpt lat="52.31332560069859" lon="7.955620782449842">
        <ele>79.48828125</ele>
        <time>2026-04-20T10:20:26Z</time>
      </trkpt>
      <trkpt lat="52.313332390040159" lon="7.955943485721946">
        <ele>81.04296875</ele>
        <time>2026-04-20T10:20:32Z</time>
      </trkpt>
      <trkpt lat="52.31329089961946" lon="7.956294938921928">
        <ele>82.53125</ele>
        <time>2026-04-20T10:20:38Z</time>
      </trkpt>
      <trkpt lat="52.313248571008444" lon="7.95663264580071">
        <ele>83.8203125</ele>
        <time>2026-04-20T10:20:44Z</time>
      </trkpt>
      <trkpt lat="52.313181012868881" lon="7.9569888766855">
        <ele>84.75390625</ele>
        <time>2026-04-20T10:20:50Z</time>
      </trkpt>
      <trkpt lat="52.313120411708951" lon="7.957385340705514">
        <ele>85.2890625</ele>
        <time>2026-04-20T10:20:56Z</time>
      </trkpt>
      <trkpt lat="52.313063750043511" lon="7.957822792232037">
        <ele>85.55859375</ele>
        <time>2026-04-20T10:21:02Z</time>
      </trkpt>
      <trkpt lat="52.313027959316969" lon="7.958114985376597">
        <ele>85.6875</ele>
        <time>2026-04-20T10:21:06Z</time>
      </trkpt>
      <trkpt lat="52.313008848577738" lon="7.958436766639352">
        <ele>86.07421875</ele>
        <time>2026-04-20T10:21:10Z</time>
      </trkpt>
      <trkpt lat="52.313011949881911" lon="7.958778161555529">
        <ele>85.2578125</ele>
        <time>2026-04-20T10:21:14Z</time>
      </trkpt>
      <trkpt lat="52.313044304028153" lon="7.959102960303426">
        <ele>84.640625</ele>
        <time>2026-04-20T10:21:18Z</time>
      </trkpt>
      <trkpt lat="52.313080849125981" lon="7.959428932517767">
        <ele>83.75390625</ele>
        <time>2026-04-20T10:21:22Z</time>
      </trkpt>
      <trkpt lat="52.313130889087915" lon="7.959765717387199">
        <ele>82.3515625</ele>
        <time>2026-04-20T10:21:26Z</time>
      </trkpt>
      <trkpt lat="52.313207751139998" lon="7.960113063454628">
        <ele>80.9140625</ele>
        <time>2026-04-20T10:21:30Z</time>
      </trkpt>
      <trkpt lat="52.313308417797089" lon="7.960461750626564">
        <ele>79.66015625</ele>
        <time>2026-04-20T10:21:34Z</time>
      </trkpt>
      <trkpt lat="52.313436409458518" lon="7.960826698690653">
        <ele>78.546875</ele>
        <time>2026-04-20T10:21:38Z</time>
      </trkpt>
      <trkpt lat="52.313564652577043" lon="7.961201202124357">
        <ele>77.51171875</ele>
        <time>2026-04-20T10:21:42Z</time>
      </trkpt>
      <trkpt lat="52.313682921230793" lon="7.961571430787444">
        <ele>76.62109375</ele>
        <time>2026-04-20T10:21:46Z</time>
      </trkpt>
      <trkpt lat="52.313816109672189" lon="7.961972085759044">
        <ele>75.78515625</ele>
        <time>2026-04-20T10:21:50Z</time>
      </trkpt>
      <trkpt lat="52.313967989757657" lon="7.962405681610107">
        <ele>74.5546875</ele>
        <time>2026-04-20T10:21:54Z</time>
      </trkpt>
      <trkpt lat="52.314109811559319" lon="7.962843049317598">
        <ele>74.38671875</ele>
        <time>2026-04-20T10:21:58Z</time>
      </trkpt>
      <trkpt lat="52.314263368025422" lon="7.963275220245123">
        <ele>75.42578125</ele>
        <time>2026-04-20T10:22:02Z</time>
      </trkpt>
      <trkpt lat="52.314416840672493" lon="7.963722227141261">
        <ele>76.28125</ele>
        <time>2026-04-20T10:22:06Z</time>
      </trkpt>
      <trkpt lat="52.314554220065475" lon="7.964157415553927">
        <ele>76.3125</ele>
        <time>2026-04-20T10:22:10Z</time>
      </trkpt>
      <trkpt lat="52.314708949998021" lon="7.964601824060082">
        <ele>75.54296875</ele>
        <time>2026-04-20T10:22:14Z</time>
      </trkpt>
      <trkpt lat="52.314849263057113" lon="7.965048914775252">
        <ele>72.08203125</ele>
        <time>2026-04-20T10:22:18Z</time>
      </trkpt>
      <trkpt lat="52.314950432628393" lon="7.965523917227984">
        <ele>68.1953125</ele>
        <time>2026-04-20T10:22:22Z</time>
      </trkpt>
      <trkpt lat="52.314991671591997" lon="7.965988945215941">
        <ele>65.28125</ele>
        <time>2026-04-20T10:22:26Z</time>
      </trkpt>
      <trkpt lat="52.315024696290493" lon="7.966433940455318">
        <ele>63.31640625</ele>
        <time>2026-04-20T10:22:30Z</time>
      </trkpt>
      <trkpt lat="52.315059313550591" lon="7.966861836612225">
        <ele>61.671875</ele>
        <time>2026-04-20T10:22:34Z</time>
      </trkpt>
      <trkpt lat="52.315094852820039" lon="7.967270957306027">
        <ele>61.24609375</ele>
        <time>2026-04-20T10:22:38Z</time>
      </trkpt>
      <trkpt lat="52.315129218623042" lon="7.96767613850534">
        <ele>60.9921875</ele>
        <time>2026-04-20T10:22:42Z</time>
      </trkpt>
      <trkpt lat="52.315163249149919" lon="7.968060532584786">
        <ele>60.9453125</ele>
        <time>2026-04-20T10:22:46Z</time>
      </trkpt>
      <trkpt lat="52.315196692943573" lon="7.96840712428093">
        <ele>60.9765625</ele>
        <time>2026-04-20T10:22:50Z</time>
      </trkpt>
      <trkpt lat="52.315224269405007" lon="7.968735191971064">
        <ele>61.34765625</ele>
        <time>2026-04-20T10:22:54Z</time>
      </trkpt>
      <trkpt lat="52.315253354609013" lon="7.969077844172716">
        <ele>61.828125</ele>
        <time>2026-04-20T10:22:58Z</time>
      </trkpt>
      <trkpt lat="52.31525762937963" lon="7.969397278502584">
        <ele>62.00390625</ele>
        <time>2026-04-20T10:23:02Z</time>
      </trkpt>
      <trkpt lat="52.315192418172956" lon="7.969708582386375">
        <ele>61.50390625</ele>
        <time>2026-04-20T10:23:06Z</time>
      </trkpt>
      <trkpt lat="52.315073981881142" lon="7.969962637871504">
        <ele>61.1484375</ele>
        <time>2026-04-20T10:23:10Z</time>
      </trkpt>
      <trkpt lat="52.314905757084489" lon="7.970132287591696">
        <ele>61.00390625</ele>
        <time>2026-04-20T10:23:14Z</time>
      </trkpt>
      <trkpt lat="52.31472646817565" lon="7.970289951190352">
        <ele>60.93359375</ele>
        <time>2026-04-20T10:23:18Z</time>
      </trkpt>
      <trkpt lat="52.314545167610049" lon="7.970433617010713">
        <ele>60.80859375</ele>
        <time>2026-04-20T10:23:22Z</time>
      </trkpt>
      <trkpt lat="52.31437954120338" lon="7.97055758535862">
        <ele>60.75</ele>
        <time>2026-04-20T10:23:26Z</time>
      </trkpt>
      <trkpt lat="52.314203269779682" lon="7.970665628090501">
        <ele>60.734375</ele>
        <time>2026-04-20T10:23:30Z</time>
      </trkpt>
      <trkpt lat="52.314008725807071" lon="7.970812898129225">
        <ele>60.81640625</ele>
        <time>2026-04-20T10:23:34Z</time>
      </trkpt>
      <trkpt lat="52.313827760517597" lon="7.970982631668448">
        <ele>60.98828125</ele>
        <time>2026-04-20T10:23:38Z</time>
      </trkpt>
      <trkpt lat="52.313663978129625" lon="7.971151443198323">
        <ele>60.73046875</ele>
        <time>2026-04-20T10:23:42Z</time>
      </trkpt>
      <trkpt lat="52.313519222661853" lon="7.97135847620666">
        <ele>60.56640625</ele>
        <time>2026-04-20T10:23:46Z</time>
      </trkpt>
      <trkpt lat="52.313379663974047" lon="7.971565844491124">
        <ele>60.5703125</ele>
        <time>2026-04-20T10:23:50Z</time>
      </trkpt>
      <trkpt lat="52.313227951526642" lon="7.971793496981263">
        <ele>60.76171875</ele>
        <time>2026-04-20T10:23:54Z</time>
      </trkpt>
      <trkpt lat="52.313082190230489" lon="7.971998266875744">
        <ele>60.9765625</ele>
        <time>2026-04-20T10:23:58Z</time>
      </trkpt>
      <trkpt lat="52.312937015667558" lon="7.972222985699773">
        <ele>60.7734375</ele>
        <time>2026-04-20T10:24:02Z</time>
      </trkpt>
      <trkpt lat="52.312793685123324" lon="7.972453823313117">
        <ele>60.3828125</ele>
        <time>2026-04-20T10:24:06Z</time>
      </trkpt>
      <trkpt lat="52.312656389549375" lon="7.972672004252672">
        <ele>59.87109375</ele>
        <time>2026-04-20T10:24:10Z</time>
      </trkpt>
      <trkpt lat="52.312495121732354" lon="7.97289228066802">
        <ele>59.484375</ele>
        <time>2026-04-20T10:24:14Z</time>
      </trkpt>
      <trkpt lat="52.312345840036869" lon="7.973109371960163">
        <ele>59.125</ele>
        <time>2026-04-20T10:24:18Z</time>
      </trkpt>
      <trkpt lat="52.31220711953938" lon="7.97332420013845">
        <ele>59.328125</ele>
        <time>2026-04-20T10:24:22Z</time>
      </trkpt>
      <trkpt lat="52.312063537538052" lon="7.973544811829925">
        <ele>59.8515625</ele>
        <time>2026-04-20T10:24:26Z</time>
      </trkpt>
      <trkpt lat="52.311929007992148" lon="7.973747821524739">
        <ele>60.453125</ele>
        <time>2026-04-20T10:24:30Z</time>
      </trkpt>
      <trkpt lat="52.311792131513357" lon="7.973948400467634">
        <ele>61.1484375</ele>
        <time>2026-04-20T10:24:34Z</time>
      </trkpt>
      <trkpt lat="52.311599683016539" lon="7.97423011623323">
        <ele>62.25390625</ele>
        <time>2026-04-20T10:24:40Z</time>
      </trkpt>
      <trkpt lat="52.311465321108699" lon="7.974432874470949">
        <ele>63.125</ele>
        <time>2026-04-20T10:24:44Z</time>
      </trkpt>
      <trkpt lat="52.311289552599192" lon="7.974696150049567">
        <ele>63.890625</ele>
        <time>2026-04-20T10:24:50Z</time>
      </trkpt>
      <trkpt lat="52.311128871515393" lon="7.97503829933703">
        <ele>64.37109375</ele>
        <time>2026-04-20T10:24:56Z</time>
      </trkpt>
      <trkpt lat="52.311032144352794" lon="7.975311717018485">
        <ele>64.2109375</ele>
        <time>2026-04-20T10:25:00Z</time>
      </trkpt>
      <trkpt lat="52.310940530151129" lon="7.97558018937707">
        <ele>63.8984375</ele>
        <time>2026-04-20T10:25:04Z</time>
      </trkpt>
      <trkpt lat="52.310807257890701" lon="7.975930720567703">
        <ele>63.6328125</ele>
        <time>2026-04-20T10:25:10Z</time>
      </trkpt>
      <trkpt lat="52.310668118298054" lon="7.976291058585048">
        <ele>64.265625</ele>
        <time>2026-04-20T10:25:16Z</time>
      </trkpt>
      <trkpt lat="52.310542138293386" lon="7.976634884253144">
        <ele>65.04296875</ele>
        <time>2026-04-20T10:25:22Z</time>
      </trkpt>
      <trkpt lat="52.310407189652324" lon="7.976986672729254">
        <ele>65.42578125</ele>
        <time>2026-04-20T10:25:28Z</time>
      </trkpt>
      <trkpt lat="52.310309037566185" lon="7.977237878367305">
        <ele>65.64453125</ele>
        <time>2026-04-20T10:25:32Z</time>
      </trkpt>
      <trkpt lat="52.310180459171534" lon="7.977585811167955">
        <ele>66.14453125</ele>
        <time>2026-04-20T10:25:38Z</time>
      </trkpt>
      <trkpt lat="52.310053640976548" lon="7.977946903556585">
        <ele>66.38671875</ele>
        <time>2026-04-20T10:25:44Z</time>
      </trkpt>
      <trkpt lat="52.309922464191914" lon="7.97830724157393">
        <ele>66.5859375</ele>
        <time>2026-04-20T10:25:50Z</time>
      </trkpt>
      <trkpt lat="52.309839902445674" lon="7.978569092229009">
        <ele>66.44140625</ele>
        <time>2026-04-20T10:25:54Z</time>
      </trkpt>
      <trkpt lat="52.309710569679737" lon="7.978928508237004">
        <ele>65.703125</ele>
        <time>2026-04-20T10:26:00Z</time>
      </trkpt>
      <trkpt lat="52.30961736291647" lon="7.979205194860697">
        <ele>65.0234375</ele>
        <time>2026-04-20T10:26:04Z</time>
      </trkpt>
      <trkpt lat="52.309513175860047" lon="7.979468805715442">
        <ele>64.81640625</ele>
        <time>2026-04-20T10:26:08Z</time>
      </trkpt>
      <trkpt lat="52.309361463412642" lon="7.979847583919764">
        <ele>64.54296875</ele>
        <time>2026-04-20T10:26:14Z</time>
      </trkpt>
      <trkpt lat="52.309217629954219" lon="7.980199959129095">
        <ele>64.05078125</ele>
        <time>2026-04-20T10:26:20Z</time>
      </trkpt>
      <trkpt lat="52.309065079316497" lon="7.980398274958134">
        <ele>64.2734375</ele>
        <time>2026-04-20T10:26:24Z</time>
      </trkpt>
      <trkpt lat="52.308949828147888" lon="7.980709411203861">
        <ele>64.67578125</ele>
        <time>2026-04-20T10:26:28Z</time>
      </trkpt>
      <trkpt lat="52.30884094722569" lon="7.981046112254262">
        <ele>64.765625</ele>
        <time>2026-04-20T10:26:32Z</time>
      </trkpt>
      <trkpt lat="52.308755870908499" lon="7.981405863538384">
        <ele>64.23046875</ele>
        <time>2026-04-20T10:26:36Z</time>
      </trkpt>
      <trkpt lat="52.308687390759587" lon="7.981800902634859">
        <ele>63.671875</ele>
        <time>2026-04-20T10:26:40Z</time>
      </trkpt>
      <trkpt lat="52.308612708002329" lon="7.982227290049195">
        <ele>63.79296875</ele>
        <time>2026-04-20T10:26:44Z</time>
      </trkpt>
      <trkpt lat="52.308549340814352" lon="7.982623251155019">
        <ele>63.9921875</ele>
        <time>2026-04-20T10:26:48Z</time>
      </trkpt>
      <trkpt lat="52.308490918949246" lon="7.983000101521611">
        <ele>64</ele>
        <time>2026-04-20T10:26:52Z</time>
      </trkpt>
      <trkpt lat="52.308431910350919" lon="7.983387596905232">
        <ele>64</ele>
        <time>2026-04-20T10:26:56Z</time>
      </trkpt>
      <trkpt lat="52.308364687487483" lon="7.983773835003376">
        <ele>63.4765625</ele>
        <time>2026-04-20T10:27:00Z</time>
      </trkpt>
      <trkpt lat="52.308298721909523" lon="7.98417029902339">
        <ele>62.66015625</ele>
        <time>2026-04-20T10:27:04Z</time>
      </trkpt>
      <trkpt lat="52.308223703876138" lon="7.984546311199665">
        <ele>61.93359375</ele>
        <time>2026-04-20T10:27:08Z</time>
      </trkpt>
      <trkpt lat="52.30816813185811" lon="7.984902122989297">
        <ele>61.375</ele>
        <time>2026-04-20T10:27:12Z</time>
      </trkpt>
      <trkpt lat="52.308097891509533" lon="7.985261287540197">
        <ele>60.9296875</ele>
        <time>2026-04-20T10:27:16Z</time>
      </trkpt>
      <trkpt lat="52.308026477694511" lon="7.98561760224402">
        <ele>60.73828125</ele>
        <time>2026-04-20T10:27:20Z</time>
      </trkpt>
      <trkpt lat="52.3079838976264" lon="7.98595673404634">
        <ele>60.53515625</ele>
        <time>2026-04-20T10:27:24Z</time>
      </trkpt>
      <trkpt lat="52.307872250676155" lon="7.986262505874038">
        <ele>61.0625</ele>
        <time>2026-04-20T10:27:29Z</time>
      </trkpt>
      <trkpt lat="52.307817600667477" lon="7.986640445888042">
        <ele>61.32421875</ele>
        <time>2026-04-20T10:27:35Z</time>
      </trkpt>
      <trkpt lat="52.307750210165977" lon="7.987070018425584">
        <ele>61.77734375</ele>
        <time>2026-04-20T10:27:41Z</time>
      </trkpt>
      <trkpt lat="52.307706288993359" lon="7.987376125529409">
        <ele>62.19921875</ele>
        <time>2026-04-20T10:27:45Z</time>
      </trkpt>
      <trkpt lat="52.307655327022076" lon="7.987695559859276">
        <ele>62.5703125</ele>
        <time>2026-04-20T10:27:49Z</time>
      </trkpt>
      <trkpt lat="52.307587768882513" lon="7.988021112978458">
        <ele>62.6484375</ele>
        <time>2026-04-20T10:27:53Z</time>
      </trkpt>
      <trkpt lat="52.30750160291791" lon="7.988305259495974">
        <ele>62.75390625</ele>
        <time>2026-04-20T10:27:57Z</time>
      </trkpt>
      <trkpt lat="52.307422980666161" lon="7.988571804016829">
        <ele>62.73828125</ele>
        <time>2026-04-20T10:28:01Z</time>
      </trkpt>
      <trkpt lat="52.307335892692208" lon="7.988874977454543">
        <ele>62.484375</ele>
        <time>2026-04-20T10:28:07Z</time>
      </trkpt>
      <trkpt lat="52.307256767526269" lon="7.989189801737666">
        <ele>62.2265625</ele>
        <time>2026-04-20T10:29:01Z</time>
      </trkpt>
      <trkpt lat="52.307136319577694" lon="7.989474702626467">
        <ele>62.3046875</ele>
        <time>2026-04-20T10:29:07Z</time>
      </trkpt>
      <trkpt lat="52.307023331522942" lon="7.989828335121274">
        <ele>62.23828125</ele>
        <time>2026-04-20T10:29:13Z</time>
      </trkpt>
      <trkpt lat="52.306939847767353" lon="7.990103429183364">
        <ele>62.02734375</ele>
        <time>2026-04-20T10:29:17Z</time>
      </trkpt>
      <trkpt lat="52.306834990158677" lon="7.990510035306215">
        <ele>62</ele>
        <time>2026-04-20T10:29:23Z</time>
      </trkpt>
      <trkpt lat="52.306759469211102" lon="7.990790577605367">
        <ele>62</ele>
        <time>2026-04-20T10:29:27Z</time>
      </trkpt>
      <trkpt lat="52.306679170578718" lon="7.991087464615703">
        <ele>62.109375</ele>
        <time>2026-04-20T10:29:31Z</time>
      </trkpt>
      <trkpt lat="52.306600129231811" lon="7.991383597254753">
        <ele>62.421875</ele>
        <time>2026-04-20T10:29:35Z</time>
      </trkpt>
      <trkpt lat="52.306515974923968" lon="7.991677885875106">
        <ele>62.80078125</ele>
        <time>2026-04-20T10:29:39Z</time>
      </trkpt>
      <trkpt lat="52.30641296133399" lon="7.992072170600295">
        <ele>62.62890625</ele>
        <time>2026-04-20T10:29:45Z</time>
      </trkpt>
      <trkpt lat="52.306285724043846" lon="7.992336619645357">
        <ele>62.27734375</ele>
        <time>2026-04-20T10:29:49Z</time>
      </trkpt>
      <trkpt lat="52.306162174791098" lon="7.992582460865378">
        <ele>62.03515625</ele>
        <time>2026-04-20T10:29:53Z</time>
      </trkpt>
      <trkpt lat="52.306052958592772" lon="7.992845820263028">
        <ele>62</ele>
        <time>2026-04-20T10:29:57Z</time>
      </trkpt>
      <trkpt lat="52.305913399904966" lon="7.993072466924787">
        <ele>62</ele>
        <time>2026-04-20T10:30:01Z</time>
      </trkpt>
      <trkpt lat="52.305770572274923" lon="7.993305651471019">
        <ele>62</ele>
        <time>2026-04-20T10:30:05Z</time>
      </trkpt>
      <trkpt lat="52.305605700239539" lon="7.993565406650305">
        <ele>61.7265625</ele>
        <time>2026-04-20T10:30:09Z</time>
      </trkpt>
      <trkpt lat="52.305471589788795" lon="7.993818204849958">
        <ele>61.0390625</ele>
        <time>2026-04-20T10:30:13Z</time>
      </trkpt>
      <trkpt lat="52.305341251194477" lon="7.994068404659629">
        <ele>60.453125</ele>
        <time>2026-04-20T10:30:17Z</time>
      </trkpt>
      <trkpt lat="52.305182162672281" lon="7.994310725480318">
        <ele>60.0078125</ele>
        <time>2026-04-20T10:30:21Z</time>
      </trkpt>
      <trkpt lat="52.30506481602788" lon="7.994574503973126">
        <ele>60.2265625</ele>
        <time>2026-04-20T10:30:25Z</time>
      </trkpt>
      <trkpt lat="52.304943362250924" lon="7.99483073875308">
        <ele>60.53125</ele>
        <time>2026-04-20T10:30:29Z</time>
      </trkpt>
      <trkpt lat="52.304805144667625" lon="7.995081273838878">
        <ele>60.93359375</ele>
        <time>2026-04-20T10:30:33Z</time>
      </trkpt>
      <trkpt lat="52.304667429998517" lon="7.995331641286612">
        <ele>60.7578125</ele>
        <time>2026-04-20T10:30:37Z</time>
      </trkpt>
      <trkpt lat="52.30454983189702" lon="7.995571782812476">
        <ele>60.46875</ele>
        <time>2026-04-20T10:30:41Z</time>
      </trkpt>
      <trkpt lat="52.304403148591518" lon="7.995826425030828">
        <ele>60.1640625</ele>
        <time>2026-04-20T10:30:45Z</time>
      </trkpt>
      <trkpt lat="52.304281862452626" lon="7.996056005358696">
        <ele>60.0703125</ele>
        <time>2026-04-20T10:30:49Z</time>
      </trkpt>
      <trkpt lat="52.304102657362819" lon="7.996385581791401">
        <ele>60.42578125</ele>
        <time>2026-04-20T10:30:55Z</time>
      </trkpt>
      <trkpt lat="52.30398396961391" lon="7.996632596477866">
        <ele>60.7890625</ele>
        <time>2026-04-20T10:30:59Z</time>
      </trkpt>
      <trkpt lat="52.3038100451231" lon="7.996985139325261">
        <ele>60.484375</ele>
        <time>2026-04-20T10:31:05Z</time>
      </trkpt>
      <trkpt lat="52.303681969642639" lon="7.997206589207053">
        <ele>60.1484375</ele>
        <time>2026-04-20T10:31:09Z</time>
      </trkpt>
      <trkpt lat="52.303549032658339" lon="7.997448574751616">
        <ele>59.89453125</ele>
        <time>2026-04-20T10:31:13Z</time>
      </trkpt>
      <trkpt lat="52.303412239998579" lon="7.997688381001353">
        <ele>59.72265625</ele>
        <time>2026-04-20T10:31:17Z</time>
      </trkpt>
      <trkpt lat="52.303283661603928" lon="7.997958697378635">
        <ele>59.69140625</ele>
        <time>2026-04-20T10:31:21Z</time>
      </trkpt>
      <trkpt lat="52.303139409050345" lon="7.998213591054082">
        <ele>59.71484375</ele>
        <time>2026-04-20T10:31:25Z</time>
      </trkpt>
      <trkpt lat="52.303000269457698" lon="7.998473849147558">
        <ele>59.859375</ele>
        <time>2026-04-20T10:31:29Z</time>
      </trkpt>
      <trkpt lat="52.302853334695101" lon="7.998748859390616">
        <ele>60.12890625</ele>
        <time>2026-04-20T10:31:33Z</time>
      </trkpt>
      <trkpt lat="52.302705058827996" lon="7.998982379212976">
        <ele>60.4375</ele>
        <time>2026-04-20T10:31:37Z</time>
      </trkpt>
      <trkpt lat="52.302543120458722" lon="7.999269710853696">
        <ele>60.953125</ele>
        <time>2026-04-20T10:31:43Z</time>
      </trkpt>
      <trkpt lat="52.302386043593287" lon="7.999645555391908">
        <ele>61</ele>
        <time>2026-04-20T10:31:49Z</time>
      </trkpt>
      <trkpt lat="52.302241204306483" lon="7.999907406046987">
        <ele>60.94921875</ele>
        <time>2026-04-20T10:31:53Z</time>
      </trkpt>
      <trkpt lat="52.302081529051065" lon="8.000218961387873">
        <ele>60.76953125</ele>
        <time>2026-04-20T10:31:57Z</time>
      </trkpt>
      <trkpt lat="52.301944149658084" lon="8.000480560585856">
        <ele>60.75390625</ele>
        <time>2026-04-20T10:32:01Z</time>
      </trkpt>
      <trkpt lat="52.301802579313517" lon="8.000721791759133">
        <ele>60.83203125</ele>
        <time>2026-04-20T10:32:05Z</time>
      </trkpt>
      <trkpt lat="52.301683891564608" lon="8.000962939113379">
        <ele>61.01171875</ele>
        <time>2026-04-20T10:32:09Z</time>
      </trkpt>
      <trkpt lat="52.301556905731559" lon="8.001228393986821">
        <ele>61.6484375</ele>
        <time>2026-04-20T10:32:13Z</time>
      </trkpt>
      <trkpt lat="52.301425980404019" lon="8.001471972092986">
        <ele>62.30078125</ele>
        <time>2026-04-20T10:32:17Z</time>
      </trkpt>
      <trkpt lat="52.301288098096848" lon="8.001712113618851">
        <ele>63.04296875</ele>
        <time>2026-04-20T10:32:21Z</time>
      </trkpt>
      <trkpt lat="52.301165806129575" lon="8.001968935132027">
        <ele>63.28515625</ele>
        <time>2026-04-20T10:32:25Z</time>
      </trkpt>
      <trkpt lat="52.301041334867477" lon="8.002217458561063">
        <ele>63.25</ele>
        <time>2026-04-20T10:32:29Z</time>
      </trkpt>
      <trkpt lat="52.300913678482175" lon="8.002447541803122">
        <ele>63.140625</ele>
        <time>2026-04-20T10:32:33Z</time>
      </trkpt>
      <trkpt lat="52.300780406221747" lon="8.002705620601773">
        <ele>62.91796875</ele>
        <time>2026-04-20T10:32:37Z</time>
      </trkpt>
      <trkpt lat="52.300632130354643" lon="8.002971243113279">
        <ele>62.58203125</ele>
        <time>2026-04-20T10:32:41Z</time>
      </trkpt>
      <trkpt lat="52.300482261925936" lon="8.003228064626455">
        <ele>62.09375</ele>
        <time>2026-04-20T10:32:45Z</time>
      </trkpt>
      <trkpt lat="52.300350498408079" lon="8.003477090969682">
        <ele>61.63671875</ele>
        <time>2026-04-20T10:32:49Z</time>
      </trkpt>
      <trkpt lat="52.300210688263178" lon="8.003736259415746">
        <ele>61.15625</ele>
        <time>2026-04-20T10:32:53Z</time>
      </trkpt>
      <trkpt lat="52.300089318305254" lon="8.003956954926252">
        <ele>60.74609375</ele>
        <time>2026-04-20T10:32:57Z</time>
      </trkpt>
      <trkpt lat="52.299968032166362" lon="8.004188630729914">
        <ele>60.3203125</ele>
        <time>2026-04-20T10:33:01Z</time>
      </trkpt>
      <trkpt lat="52.299835598096251" lon="8.00441661849618">
        <ele>60.328125</ele>
        <time>2026-04-20T10:33:05Z</time>
      </trkpt>
      <trkpt lat="52.299682796001434" lon="8.004653910174966">
        <ele>61.03515625</ele>
        <time>2026-04-20T10:33:09Z</time>
      </trkpt>
      <trkpt lat="52.299558827653527" lon="8.004947025328875">
        <ele>61.69921875</ele>
        <time>2026-04-20T10:33:13Z</time>
      </trkpt>
      <trkpt lat="52.299427399411798" lon="8.0052150785923">
        <ele>62.22265625</ele>
        <time>2026-04-20T10:33:17Z</time>
      </trkpt>
      <trkpt lat="52.299305610358715" lon="8.005470894277096">
        <ele>62.8359375</ele>
        <time>2026-04-20T10:33:21Z</time>
      </trkpt>
      <trkpt lat="52.299173008650541" lon="8.005720004439354">
        <ele>63.43359375</ele>
        <time>2026-04-20T10:33:25Z</time>
      </trkpt>
      <trkpt lat="52.299020038917661" lon="8.005968863144517">
        <ele>64.015625</ele>
        <time>2026-04-20T10:33:29Z</time>
      </trkpt>
      <trkpt lat="52.298880647867918" lon="8.006217386573553">
        <ele>64.13671875</ele>
        <time>2026-04-20T10:33:33Z</time>
      </trkpt>
      <trkpt lat="52.298751482740045" lon="8.00645811483264">
        <ele>64.2421875</ele>
        <time>2026-04-20T10:33:37Z</time>
      </trkpt>
      <trkpt lat="52.298643607646227" lon="8.006693562492728">
        <ele>64.453125</ele>
        <time>2026-04-20T10:33:41Z</time>
      </trkpt>
      <trkpt lat="52.29850891046226" lon="8.006921717897058">
        <ele>64.2890625</ele>
        <time>2026-04-20T10:33:45Z</time>
      </trkpt>
      <trkpt lat="52.298367507755756" lon="8.00717007368803">
        <ele>63.8203125</ele>
        <time>2026-04-20T10:33:49Z</time>
      </trkpt>
      <trkpt lat="52.298225937411189" lon="8.007393702864647">
        <ele>63.3828125</ele>
        <time>2026-04-20T10:33:53Z</time>
      </trkpt>
      <trkpt lat="52.298088809475303" lon="8.007657313719392">
        <ele>63.0546875</ele>
        <time>2026-04-20T10:33:57Z</time>
      </trkpt>
      <trkpt lat="52.297962075099349" lon="8.007961325347424">
        <ele>63.12109375</ele>
        <time>2026-04-20T10:34:01Z</time>
      </trkpt>
      <trkpt lat="52.297818744555116" lon="8.008196437731385">
        <ele>63.1171875</ele>
        <time>2026-04-20T10:34:05Z</time>
      </trkpt>
      <trkpt lat="52.297693602740765" lon="8.008443284779787">
        <ele>63.0078125</ele>
        <time>2026-04-20T10:34:09Z</time>
      </trkpt>
      <trkpt lat="52.297572400420904" lon="8.008730700239539">
        <ele>62.55859375</ele>
        <time>2026-04-20T10:34:13Z</time>
      </trkpt>
      <trkpt lat="52.297440804541111" lon="8.009004620835185">
        <ele>62.23046875</ele>
        <time>2026-04-20T10:34:17Z</time>
      </trkpt>
      <trkpt lat="52.297295210883021" lon="8.009294215589762">
        <ele>62.015625</ele>
        <time>2026-04-20T10:34:21Z</time>
      </trkpt>
      <trkpt lat="52.297161687165499" lon="8.009554222226143">
        <ele>62.1328125</ele>
        <time>2026-04-20T10:34:25Z</time>
      </trkpt>
      <trkpt lat="52.297024140134454" lon="8.009806852787733">
        <ele>62.16796875</ele>
        <time>2026-04-20T10:34:29Z</time>
      </trkpt>
      <trkpt lat="52.296891622245312" lon="8.010025452822447">
        <ele>62.15625</ele>
        <time>2026-04-20T10:34:33Z</time>
      </trkpt>
      <trkpt lat="52.29674250818789" lon="8.010215554386377">
        <ele>62.34375</ele>
        <time>2026-04-20T10:34:37Z</time>
      </trkpt>
      <trkpt lat="52.296628346666694" lon="8.010489894077182">
        <ele>62.6171875</ele>
        <time>2026-04-20T10:34:41Z</time>
      </trkpt>
      <trkpt lat="52.296503288671374" lon="8.010754510760307">
        <ele>62.91796875</ele>
        <time>2026-04-20T10:34:45Z</time>
      </trkpt>
      <trkpt lat="52.296324921771884" lon="8.011087859049439">
        <ele>63.01171875</ele>
        <time>2026-04-20T10:34:51Z</time>
      </trkpt>
      <trkpt lat="52.296160217374563" lon="8.011297406628728">
        <ele>62.95703125</ele>
        <time>2026-04-20T10:34:55Z</time>
      </trkpt>
      <trkpt lat="52.295968690887094" lon="8.011530004441738">
        <ele>62.90625</ele>
        <time>2026-04-20T10:35:01Z</time>
      </trkpt>
      <trkpt lat="52.295824019238353" lon="8.01167031750083">
        <ele>62.9140625</ele>
        <time>2026-04-20T10:35:15Z</time>
      </trkpt>
      <trkpt lat="52.295643137767911" lon="8.011858575046063">
        <ele>62.9921875</ele>
        <time>2026-04-20T10:35:21Z</time>
      </trkpt>
      <trkpt lat="52.295471895486116" lon="8.012018501758575">
        <ele>63.19921875</ele>
        <time>2026-04-20T10:35:25Z</time>
      </trkpt>
      <trkpt lat="52.295298390090466" lon="8.012182367965579">
        <ele>63.40625</ele>
        <time>2026-04-20T10:35:29Z</time>
      </trkpt>
      <trkpt lat="52.295124130323529" lon="8.012390155345202">
        <ele>63.6171875</ele>
        <time>2026-04-20T10:35:33Z</time>
      </trkpt>
      <trkpt lat="52.294977949932218" lon="8.012632224708796">
        <ele>63.8046875</ele>
        <time>2026-04-20T10:35:37Z</time>
      </trkpt>
      <trkpt lat="52.294861357659101" lon="8.012885358184576">
        <ele>64.23046875</ele>
        <time>2026-04-20T10:35:41Z</time>
      </trkpt>
      <trkpt lat="52.294719200581312" lon="8.013161709532142">
        <ele>64.65234375</ele>
        <time>2026-04-20T10:35:45Z</time>
      </trkpt>
      <trkpt lat="52.294570840895176" lon="8.013428673148155">
        <ele>64.97265625</ele>
        <time>2026-04-20T10:35:49Z</time>
      </trkpt>
      <trkpt lat="52.294420972466469" lon="8.013661354780197">
        <ele>64.98046875</ele>
        <time>2026-04-20T10:35:53Z</time>
      </trkpt>
      <trkpt lat="52.294267499819398" lon="8.013897808268666">
        <ele>65.15625</ele>
        <time>2026-04-20T10:35:57Z</time>
      </trkpt>
      <trkpt lat="52.294114110991359" lon="8.01416284404695">
        <ele>65.5625</ele>
        <time>2026-04-20T10:36:01Z</time>
      </trkpt>
      <trkpt lat="52.293959548696876" lon="8.014402147382498">
        <ele>65.859375</ele>
        <time>2026-04-20T10:36:05Z</time>
      </trkpt>
      <trkpt lat="52.293806662783027" lon="8.014654442667961">
        <ele>65.5546875</ele>
        <time>2026-04-20T10:36:09Z</time>
      </trkpt>
      <trkpt lat="52.293653441593051" lon="8.014905229210854">
        <ele>65.25390625</ele>
        <time>2026-04-20T10:36:13Z</time>
      </trkpt>
      <trkpt lat="52.293509608134627" lon="8.015158027410507">
        <ele>64.8984375</ele>
        <time>2026-04-20T10:36:17Z</time>
      </trkpt>
      <trkpt lat="52.293359320610762" lon="8.015409735962749">
        <ele>64.296875</ele>
        <time>2026-04-20T10:36:21Z</time>
      </trkpt>
      <trkpt lat="52.293189251795411" lon="8.015643171966076">
        <ele>63.734375</ele>
        <time>2026-04-20T10:36:25Z</time>
      </trkpt>
      <trkpt lat="52.293018260970712" lon="8.0158974789083">
        <ele>63.39453125</ele>
        <time>2026-04-20T10:36:29Z</time>
      </trkpt>
      <trkpt lat="52.292844168841839" lon="8.016152288764715">
        <ele>63.4609375</ele>
        <time>2026-04-20T10:36:33Z</time>
      </trkpt>
      <trkpt lat="52.292698742821813" lon="8.016388071700931">
        <ele>63.52734375</ele>
        <time>2026-04-20T10:36:37Z</time>
      </trkpt>
      <trkpt lat="52.292560692876577" lon="8.016613963991404">
        <ele>63.58984375</ele>
        <time>2026-04-20T10:36:41Z</time>
      </trkpt>
      <trkpt lat="52.292431779205799" lon="8.01683465950191">
        <ele>63.6953125</ele>
        <time>2026-04-20T10:36:47Z</time>
      </trkpt>
      <trkpt lat="52.292254418134689" lon="8.017109334468842">
        <ele>64.0234375</ele>
        <time>2026-04-20T10:36:53Z</time>
      </trkpt>
      <trkpt lat="52.292087618261576" lon="8.017380405217409">
        <ele>64.1875</ele>
        <time>2026-04-20T10:36:59Z</time>
      </trkpt>
      <trkpt lat="52.29190070182085" lon="8.017664635553956">
        <ele>64.3671875</ele>
        <time>2026-04-20T10:37:05Z</time>
      </trkpt>
      <trkpt lat="52.291700458154082" lon="8.01798390224576">
        <ele>63.640625</ele>
        <time>2026-04-20T10:37:11Z</time>
      </trkpt>
      <trkpt lat="52.291553942486644" lon="8.018262851983309">
        <ele>62.71875</ele>
        <time>2026-04-20T10:37:15Z</time>
      </trkpt>
      <trkpt lat="52.291394853964448" lon="8.018489582464099">
        <ele>62.1875</ele>
        <time>2026-04-20T10:37:19Z</time>
      </trkpt>
      <trkpt lat="52.291258228942752" lon="8.018731903284788">
        <ele>62.515625</ele>
        <time>2026-04-20T10:37:23Z</time>
      </trkpt>
      <trkpt lat="52.291126549243927" lon="8.019013535231352">
        <ele>62.83203125</ele>
        <time>2026-04-20T10:37:27Z</time>
      </trkpt>
      <trkpt lat="52.290965113788843" lon="8.019268177449703">
        <ele>63.21875</ele>
        <time>2026-04-20T10:37:31Z</time>
      </trkpt>
      <trkpt lat="52.290831338614225" lon="8.019506726413965">
        <ele>63.5390625</ele>
        <time>2026-04-20T10:37:35Z</time>
      </trkpt>
      <trkpt lat="52.290674848482013" lon="8.019745778292418">
        <ele>63.9140625</ele>
        <time>2026-04-20T10:37:39Z</time>
      </trkpt>
      <trkpt lat="52.290529254823923" lon="8.020006706938148">
        <ele>64.36328125</ele>
        <time>2026-04-20T10:37:43Z</time>
      </trkpt>
      <trkpt lat="52.290376788005233" lon="8.020250452682376">
        <ele>65</ele>
        <time>2026-04-20T10:37:47Z</time>
      </trkpt>
      <trkpt lat="52.290206970646977" lon="8.020477434620261">
        <ele>65.78515625</ele>
        <time>2026-04-20T10:37:51Z</time>
      </trkpt>
      <trkpt lat="52.29007663205266" lon="8.020725790411234">
        <ele>66.52734375</ele>
        <time>2026-04-20T10:37:55Z</time>
      </trkpt>
      <trkpt lat="52.289939168840647" lon="8.020986216142774">
        <ele>67.234375</ele>
        <time>2026-04-20T10:37:59Z</time>
      </trkpt>
      <trkpt lat="52.289814278483391" lon="8.02126063965261">
        <ele>66.83984375</ele>
        <time>2026-04-20T10:38:03Z</time>
      </trkpt>
      <trkpt lat="52.289659800007939" lon="8.021511510014534">
        <ele>66.55859375</ele>
        <time>2026-04-20T10:38:07Z</time>
      </trkpt>
      <trkpt lat="52.289527533575892" lon="8.021755088120699">
        <ele>66.41015625</ele>
        <time>2026-04-20T10:38:11Z</time>
      </trkpt>
      <trkpt lat="52.289378000423312" lon="8.02198383025825">
        <ele>66.44921875</ele>
        <time>2026-04-20T10:38:15Z</time>
      </trkpt>
      <trkpt lat="52.289228131994605" lon="8.022212572395802">
        <ele>66.578125</ele>
        <time>2026-04-20T10:38:19Z</time>
      </trkpt>
      <trkpt lat="52.289083041250706" lon="8.022475680336356">
        <ele>66.6953125</ele>
        <time>2026-04-20T10:38:23Z</time>
      </trkpt>
      <trkpt lat="52.288930658251047" lon="8.022716073319316">
        <ele>66.984375</ele>
        <time>2026-04-20T10:38:27Z</time>
      </trkpt>
      <trkpt lat="52.288787411525846" lon="8.022940792143345">
        <ele>67.140625</ele>
        <time>2026-04-20T10:38:31Z</time>
      </trkpt>
      <trkpt lat="52.288651959970593" lon="8.023162493482232">
        <ele>67.3671875</ele>
        <time>2026-04-20T10:38:35Z</time>
      </trkpt>
      <trkpt lat="52.288501672446728" lon="8.023406406864524">
        <ele>67.72265625</ele>
        <time>2026-04-20T10:38:39Z</time>
      </trkpt>
      <trkpt lat="52.288349205628037" lon="8.023660629987717">
        <ele>67.5390625</ele>
        <time>2026-04-20T10:38:43Z</time>
      </trkpt>
      <trkpt lat="52.288197409361601" lon="8.02394712343812">
        <ele>67.02734375</ele>
        <time>2026-04-20T10:38:47Z</time>
      </trkpt>
      <trkpt lat="52.288059527054429" lon="8.024238981306553">
        <ele>66.31640625</ele>
        <time>2026-04-20T10:38:51Z</time>
      </trkpt>
      <trkpt lat="52.287910999730229" lon="8.02449538372457">
        <ele>65.76953125</ele>
        <time>2026-04-20T10:38:55Z</time>
      </trkpt>
      <trkpt lat="52.287749815732241" lon="8.024744829162955">
        <ele>65.2578125</ele>
        <time>2026-04-20T10:38:59Z</time>
      </trkpt>
      <trkpt lat="52.287606569007039" lon="8.024943228811026">
        <ele>64.88671875</ele>
        <time>2026-04-20T10:39:27Z</time>
      </trkpt>
      <trkpt lat="52.287452761083841" lon="8.025281522423029">
        <ele>64.44921875</ele>
        <time>2026-04-20T10:39:35Z</time>
      </trkpt>
      <trkpt lat="52.287309011444449" lon="8.025629119947553">
        <ele>64.375</ele>
        <time>2026-04-20T10:39:41Z</time>
      </trkpt>
      <trkpt lat="52.287243129685521" lon="8.025926426053047">
        <ele>64.484375</ele>
        <time>2026-04-20T10:39:45Z</time>
      </trkpt>
      <trkpt lat="52.287136679515243" lon="8.026198754087091">
        <ele>65.109375</ele>
        <time>2026-04-20T10:39:49Z</time>
      </trkpt>
      <trkpt lat="52.287023859098554" lon="8.026584824547172">
        <ele>65.5234375</ele>
        <time>2026-04-20T10:39:55Z</time>
      </trkpt>
      <trkpt lat="52.286938363686204" lon="8.026847094297409">
        <ele>65.703125</ele>
        <time>2026-04-20T10:39:59Z</time>
      </trkpt>
      <trkpt lat="52.286800313740969" lon="8.027175329625607">
        <ele>65.85546875</ele>
        <time>2026-04-20T10:40:05Z</time>
      </trkpt>
      <trkpt lat="52.286650696769357" lon="8.027482610195875">
        <ele>65.8203125</ele>
        <time>2026-04-20T10:40:11Z</time>
      </trkpt>
      <trkpt lat="52.286523627117276" lon="8.0277144536376">
        <ele>65.8828125</ele>
        <time>2026-04-20T10:40:15Z</time>
      </trkpt>
      <trkpt lat="52.286436622962356" lon="8.027985440567136">
        <ele>66.16015625</ele>
        <time>2026-04-20T10:40:19Z</time>
      </trkpt>
      <trkpt lat="52.286375435069203" lon="8.02830177359283">
        <ele>66.4609375</ele>
        <time>2026-04-20T10:40:23Z</time>
      </trkpt>
      <trkpt lat="52.286310391500592" lon="8.028587009757757">
        <ele>67.28125</ele>
        <time>2026-04-20T10:40:27Z</time>
      </trkpt>
      <trkpt lat="52.286237301304936" lon="8.028891775757074">
        <ele>68.609375</ele>
        <time>2026-04-20T10:40:31Z</time>
      </trkpt>
      <trkpt lat="52.286176951602101" lon="8.029204420745373">
        <ele>69.8515625</ele>
        <time>2026-04-20T10:40:35Z</time>
      </trkpt>
      <trkpt lat="52.286083828657866" lon="8.029506588354707">
        <ele>70.41015625</ele>
        <time>2026-04-20T10:40:39Z</time>
      </trkpt>
      <trkpt lat="52.286017779260874" lon="8.029833566397429">
        <ele>70.6484375</ele>
        <time>2026-04-20T10:40:43Z</time>
      </trkpt>
      <trkpt lat="52.285964637994766" lon="8.030152665451169">
        <ele>70.8203125</ele>
        <time>2026-04-20T10:40:47Z</time>
      </trkpt>
      <trkpt lat="52.285923566669226" lon="8.030449049547315">
        <ele>70.8515625</ele>
        <time>2026-04-20T10:40:51Z</time>
      </trkpt>
      <trkpt lat="52.285852488130331" lon="8.030728502199054">
        <ele>71.05859375</ele>
        <time>2026-04-20T10:40:55Z</time>
      </trkpt>
      <trkpt lat="52.285770680755377" lon="8.031000997871161">
        <ele>71.375</ele>
        <time>2026-04-20T10:40:59Z</time>
      </trkpt>
      <trkpt lat="52.285688202828169" lon="8.031401317566633">
        <ele>71.75</ele>
        <time>2026-04-20T10:41:05Z</time>
      </trkpt>
      <trkpt lat="52.285596840083599" lon="8.031807756051421">
        <ele>72.06640625</ele>
        <time>2026-04-20T10:41:11Z</time>
      </trkpt>
      <trkpt lat="52.285489719361067" lon="8.032086538150907">
        <ele>71.921875</ele>
        <time>2026-04-20T10:41:15Z</time>
      </trkpt>
      <trkpt lat="52.28541704826057" lon="8.032376132905483">
        <ele>71.62109375</ele>
        <time>2026-04-20T10:41:19Z</time>
      </trkpt>
      <trkpt lat="52.285322332754731" lon="8.032678300514817">
        <ele>71.13671875</ele>
        <time>2026-04-20T10:41:23Z</time>
      </trkpt>
      <trkpt lat="52.285205740481615" lon="8.032966805621982">
        <ele>70.47265625</ele>
        <time>2026-04-20T10:41:27Z</time>
      </trkpt>
      <trkpt lat="52.285113707184792" lon="8.033248018473387">
        <ele>70.01953125</ele>
        <time>2026-04-20T10:41:31Z</time>
      </trkpt>
      <trkpt lat="52.285075318068266" lon="8.033552868291736">
        <ele>69.17578125</ele>
        <time>2026-04-20T10:41:35Z</time>
      </trkpt>
      <trkpt lat="52.284899549558759" lon="8.033759482204914">
        <ele>69.02734375</ele>
        <time>2026-04-20T10:41:39Z</time>
      </trkpt>
      <trkpt lat="52.28470366448164" lon="8.033924773335457">
        <ele>69.4296875</ele>
        <time>2026-04-20T10:41:43Z</time>
      </trkpt>
      <trkpt lat="52.284487411379814" lon="8.034058464691043">
        <ele>70.34765625</ele>
        <time>2026-04-20T10:41:47Z</time>
      </trkpt>
      <trkpt lat="52.284294879063964" lon="8.034225180745125">
        <ele>70.93359375</ele>
        <time>2026-04-20T10:41:51Z</time>
      </trkpt>
      <trkpt lat="52.284083822742105" lon="8.034359207376838">
        <ele>71.8515625</ele>
        <time>2026-04-20T10:41:55Z</time>
      </trkpt>
      <trkpt lat="52.283897409215569" lon="8.034514272585511">
        <ele>72.0390625</ele>
        <time>2026-04-20T10:41:59Z</time>
      </trkpt>
      <trkpt lat="52.283688867464662" lon="8.03466129116714">
        <ele>71.6796875</ele>
        <time>2026-04-20T10:42:03Z</time>
      </trkpt>
      <trkpt lat="52.283501699566841" lon="8.034787187352777">
        <ele>71.17578125</ele>
        <time>2026-04-20T10:42:07Z</time>
      </trkpt>
      <trkpt lat="52.283294918015599" lon="8.034961614757776">
        <ele>70.10546875</ele>
        <time>2026-04-20T10:42:11Z</time>
      </trkpt>
      <trkpt lat="52.283108588308096" lon="8.035098910331726">
        <ele>69.2578125</ele>
        <time>2026-04-20T10:42:15Z</time>
      </trkpt>
      <trkpt lat="52.282926449552178" lon="8.035231428220868">
        <ele>70.30078125</ele>
        <time>2026-04-20T10:42:19Z</time>
      </trkpt>
      <trkpt lat="52.28273349814117" lon="8.035369729623199">
        <ele>71.15625</ele>
        <time>2026-04-20T10:42:23Z</time>
      </trkpt>
      <trkpt lat="52.282533757388592" lon="8.035508953034878">
        <ele>71.7265625</ele>
        <time>2026-04-20T10:42:27Z</time>
      </trkpt>
      <trkpt lat="52.282347679138184" lon="8.035641554743052">
        <ele>71.9609375</ele>
        <time>2026-04-20T10:42:31Z</time>
      </trkpt>
      <trkpt lat="52.282172329723835" lon="8.035778850317001">
        <ele>71.83203125</ele>
        <time>2026-04-20T10:42:35Z</time>
      </trkpt>
      <trkpt lat="52.28199128061533" lon="8.03590583615005">
        <ele>71.5390625</ele>
        <time>2026-04-20T10:42:39Z</time>
      </trkpt>
      <trkpt lat="52.281792545691133" lon="8.03604606539011">
        <ele>71.1484375</ele>
        <time>2026-04-20T10:42:43Z</time>
      </trkpt>
      <trkpt lat="52.281602695584297" lon="8.036209177225828">
        <ele>70.59375</ele>
        <time>2026-04-20T10:42:47Z</time>
      </trkpt>
      <trkpt lat="52.2814039606601" lon="8.036327697336674">
        <ele>70.44140625</ele>
        <time>2026-04-20T10:42:51Z</time>
      </trkpt>
      <trkpt lat="52.281165579333901" lon="8.036460634320974">
        <ele>70.75390625</ele>
        <time>2026-04-20T10:42:55Z</time>
      </trkpt>
      <trkpt lat="52.280955025926232" lon="8.036555349826813">
        <ele>71.078125</ele>
        <time>2026-04-20T10:42:59Z</time>
      </trkpt>
      <trkpt lat="52.280756710097194" lon="8.03666029125452">
        <ele>71.2421875</ele>
        <time>2026-04-20T10:43:03Z</time>
      </trkpt>
      <trkpt lat="52.280574655160308" lon="8.036776799708605">
        <ele>71.14453125</ele>
        <time>2026-04-20T10:43:07Z</time>
      </trkpt>
      <trkpt lat="52.280380530282855" lon="8.036961704492569">
        <ele>70.9453125</ele>
        <time>2026-04-20T10:43:11Z</time>
      </trkpt>
      <trkpt lat="52.280194535851479" lon="8.037114841863513">
        <ele>70.83984375</ele>
        <time>2026-04-20T10:43:15Z</time>
      </trkpt>
      <trkpt lat="52.280000410974026" lon="8.037308631464839">
        <ele>70.609375</ele>
        <time>2026-04-20T10:43:19Z</time>
      </trkpt>
      <trkpt lat="52.279795641079545" lon="8.037485321983695">
        <ele>70.46875</ele>
        <time>2026-04-20T10:43:23Z</time>
      </trkpt>
      <trkpt lat="52.2796097304672" lon="8.037700736895204">
        <ele>70.30859375</ele>
        <time>2026-04-20T10:43:27Z</time>
      </trkpt>
      <trkpt lat="52.279431028291583" lon="8.037893353030086">
        <ele>70.5390625</ele>
        <time>2026-04-20T10:43:31Z</time>
      </trkpt>
      <trkpt lat="52.279253415763378" lon="8.038063924759626">
        <ele>70.98046875</ele>
        <time>2026-04-20T10:43:35Z</time>
      </trkpt>
      <trkpt lat="52.279072450473905" lon="8.038283865898848">
        <ele>71.59765625</ele>
        <time>2026-04-20T10:43:41Z</time>
      </trkpt>
      <trkpt lat="52.278937501832843" lon="8.038492491468787">
        <ele>71.87890625</ele>
        <time>2026-04-20T10:43:51Z</time>
      </trkpt>
      <trkpt lat="52.278800290077925" lon="8.038803962990642">
        <ele>71.33984375</ele>
        <time>2026-04-20T10:43:57Z</time>
      </trkpt>
      <trkpt lat="52.27878687903285" lon="8.039096826687455">
        <ele>70.97265625</ele>
        <time>2026-04-20T10:44:01Z</time>
      </trkpt>
      <trkpt lat="52.278732061386108" lon="8.039403017610312">
        <ele>70.5390625</ele>
        <time>2026-04-20T10:44:05Z</time>
      </trkpt>
      <trkpt lat="52.278660060837865" lon="8.039726307615638">
        <ele>70.06640625</ele>
        <time>2026-04-20T10:44:09Z</time>
      </trkpt>
      <trkpt lat="52.278481442481279" lon="8.039999390020967">
        <ele>69.5234375</ele>
        <time>2026-04-20T10:44:13Z</time>
      </trkpt>
      <trkpt lat="52.278294106945395" lon="8.03992529399693">
        <ele>68.8671875</ele>
        <time>2026-04-20T10:44:17Z</time>
      </trkpt>
      <trkpt lat="52.278105430305004" lon="8.039840133860707">
        <ele>68.58203125</ele>
        <time>2026-04-20T10:44:21Z</time>
      </trkpt>
      <trkpt lat="52.277943743392825" lon="8.03977626375854">
        <ele>68.9296875</ele>
        <time>2026-04-20T10:44:25Z</time>
      </trkpt>
      <trkpt lat="52.277795551344752" lon="8.039861423894763">
        <ele>69.46484375</ele>
        <time>2026-04-20T10:44:29Z</time>
      </trkpt>
      <trkpt lat="52.277445187792182" lon="8.03962723352015">
        <ele>70.24609375</ele>
        <time>2026-04-20T10:44:33Z</time>
      </trkpt>
      <trkpt lat="52.277270006015897" lon="8.039669813588262">
        <ele>70.98828125</ele>
        <time>2026-04-20T10:44:37Z</time>
      </trkpt>
      <trkpt lat="52.277013938874006" lon="8.039435623213649">
        <ele>70.55859375</ele>
        <time>2026-04-20T10:44:41Z</time>
      </trkpt>
    </trkseg>
  </trk>

</gpx>